[[{"header":{"parameterUnit":"m.s-1","parameterCategory":1,"la1":31.0,"la2":29.5877,"lo1":-88.7671,"lo2":-86.6584,"dy":0.0162,"dx":0.0185,"nx":115,"ny":88,"refTime":"2025-11-04T12:00:00:Z","depth":0,"parameterNumber":2,"parameterNumberName":"U-component_of_WINDS"},"data":[0.0,0.0,0.0,0.0,0.0,0.0,0.0,0.0,0.0,0.0,0.0,0.0,0.0,0.0,0.0,0.0,0.0,0.0,0.0,0.0,0.0,0.0,0.0,0.0,0.0,0.0,0.0,0.0,0.0,0.0,0.0,0.0,0.0,0.0,0.0,0.0,0.0,0.0,0.0,0.0,0.0,0.0,0.0,0.0,0.0,0.0,0.0,0.0,0.0,0.0,0.0,0.0,0.0,0.0,0.0,0.0,0.0,0.0,0.0,0.0,0.0,0.0,0.0,0.0,0.0,0.0,0.0,0.0,0.0,0.0,0.0,0.0,0.0,0.0,0.0,0.0,0.0,0.0,0.0,0.0,0.0,0.0,0.0,0.0,0.0,0.0,0.0,0.0,0.0,0.0,0.0,0.0,0.0,0.0,0.0,0.0,0.0,0.0,0.0,0.0,0.0,0.0,0.0,0.0,0.0,0.0,0.0,0.0,0.0,0.0,0.0,0.0,0.0,0.0,0.0,0.0,0.0,0.0,0.0,0.0,0.0,0.0,0.0,0.0,0.0,0.0,0.0,0.0,0.0,0.0,0.0,0.0,0.0,0.0,0.0,0.0,0.0,0.0,0.0,0.0,0.0,0.0,0.0,0.0,0.0,0.0,0.0,0.0,0.0,0.0,0.0,0.0,0.0,0.0,0.0,0.0,0.0,0.0,0.0,0.0,0.0,0.0,0.0,0.0,0.0,0.0,0.0,0.0,0.0,0.0,0.0,0.0,0.0,0.0,0.0,0.0,0.0,0.0,0.0,0.0,0.0,0.0,0.0,0.0,0.0,0.0,0.0,0.0,0.0,0.0,0.0,0.0,0.0,0.0,0.0,0.0,0.0,0.0,0.0,0.0,0.0,0.0,0.0,0.0,0.0,0.0,0.0,0.0,0.0,0.0,0.0,0.0,0.0,0.0,0.0,0.0,0.0,0.0,0.0,0.0,0.0,0.0,0.0,0.0,0.0,0.0,0.0,0.0,0.0,0.0,0.0,0.0,0.0,0.0,0.0,0.0,0.0,0.0,0.0,0.0,0.0,0.0,0.0,0.0,0.0,0.0,0.0,0.0,0.0,0.0,0.0,0.0,0.0,0.0,0.0,0.0,0.0,0.0,0.0,0.0,0.0,0.0,0.0,0.0,0.0,0.0,0.0,0.0,0.0,0.0,0.0,0.0,0.0,0.0,0.0,0.0,0.0,0.0,0.0,0.0,0.0,0.0,0.0,0.0,0.0,0.0,0.0,0.0,0.0,0.0,0.0,0.0,0.0,0.0,0.0,0.0,0.0,0.0,0.0,0.0,0.0,0.0,0.0,0.0,0.0,0.0,0.0,0.0,0.0,0.0,0.0,0.0,0.0,0.0,0.0,0.0,0.0,0.0,0.0,0.0,0.0,0.0,0.0,0.0,0.0,0.0,0.0,0.0,0.0,0.0,0.0,0.0,0.0,0.0,0.0,0.0,0.0,0.0,0.0,0.0,0.0,0.0,0.0,0.0,0.0,0.0,0.0,0.0,0.0,0.0,0.0,0.0,0.0,0.0,0.0,0.0,0.0,0.0,0.0,0.0,0.0,0.0,0.0,0.0,0.0,0.0,0.0,0.0,0.0,0.0,0.0,0.0,0.0,0.0,0.0,0.0,0.0,0.0,0.0,0.0,0.0,0.0,0.0,0.0,0.0,0.0,0.0,0.0,0.0,0.0,0.0,0.0,0.0,0.0,0.0,0.0,0.0,0.0,0.0,0.0,0.0,0.0,0.0,0.0,0.0,0.0,0.0,0.0,0.0,0.0,0.0,0.0,0.0,0.0,0.0,0.0,0.0,0.0,0.0,0.0,0.0,0.0,0.0,0.0,0.0,0.0,0.0,0.0,0.0,0.0,0.0,0.0,0.0,0.0,0.0,0.0,0.0,0.0,0.0,0.0,0.0,0.0,0.0,0.0,0.0,0.0,0.0,0.0,0.0,0.0,0.0,0.0,0.0,0.0,0.0,0.0,0.0,0.0,0.0,0.0,0.0,0.0,0.0,0.0,0.0,0.0,0.0,0.0,0.0,0.0,0.0,0.0,0.0,0.0,0.0,0.0,0.0,0.0,0.0,0.0,0.0,0.0,0.0,0.0,0.0,0.0,0.0,0.0,0.0,0.0,0.0,0.0,0.0,0.0,0.0,0.0,0.0,0.0,0.0,0.0,0.0,0.0,0.0,0.0,0.0,0.0,0.0,0.0,0.0,0.0,0.0,0.0,0.0,0.0,0.0,0.0,0.0,0.0,0.0,0.0,0.0,0.0,0.0,0.0,0.0,0.0,0.0,0.0,0.0,0.0,0.0,0.0,0.0,0.0,0.0,0.0,0.0,0.0,0.0,0.0,0.0,0.0,0.0,0.0,0.0,0.0,0.0,0.0,0.0,0.0,0.0,0.0,0.0,0.0,0.0,0.0,0.0,0.0,0.0,0.0,0.0,0.0,0.0,0.0,0.0,0.0,0.0,0.0,0.0,0.0,0.0,0.0,0.0,0.0,0.0,0.0,0.0,0.0,0.0,0.0,0.0,0.0,0.0,0.0,0.0,0.0,0.0,0.0,0.0,0.0,0.0,0.0,0.0,0.0,0.0,0.0,0.0,0.0,0.0,0.0,0.0,0.0,0.0,0.0,0.0,0.0,0.0,0.0,0.0,0.0,0.0,0.0,0.0,0.0,0.0,0.0,0.0,0.0,0.0,0.0,0.0,0.0,0.0,0.0,0.0,0.0,0.0,0.0,0.0,0.0,0.0,0.0,0.0,0.0,0.0,0.0,0.0,0.0,0.0,0.0,0.0,0.0,0.0,0.0,0.0,0.0,0.0,0.0,0.0,0.0,0.0,0.0,0.0,0.0,0.0,0.0,0.0,0.0,0.0,0.0,0.0,0.0,0.0,0.0,0.0,0.0,0.0,0.0,0.0,0.0,0.0,0.0,0.0,0.0,0.0,0.0,0.0,0.0,0.0,0.0,0.0,0.0,0.0,0.0,0.0,0.0,0.0,0.0,0.0,0.0,0.0,0.0,0.0,0.0,0.0,0.0,0.0,0.0,0.0,0.0,0.0,0.0,0.0,0.0,0.0,0.0,0.0,0.0,0.0,0.0,0.0,0.0,0.0,0.0,0.0,0.0,0.0,0.0,0.0,0.0,0.0,0.0,0.0,0.0,0.0,0.0,0.0,0.0,0.0,0.0,0.0,0.0,0.0,0.0,0.0,0.0,0.0,0.0,0.0,0.0,0.0,0.0,0.0,0.0,0.0,0.0,0.0,0.0,0.0,0.0,0.0,0.0,0.0,0.0,0.0,0.0,0.0,0.0,0.0,0.0,0.0,0.0,0.0,0.0,0.0,0.0,0.0,0.0,0.0,0.0,0.0,0.0,0.0,0.0,0.0,0.0,0.0,0.0,0.0,0.0,0.0,0.0,0.0,0.0,0.0,0.0,0.0,0.0,0.0,0.0,0.0,0.0,0.0,0.0,0.0,0.0,0.0,0.0,0.0,0.0,0.0,0.0,0.0,0.0,0.0,0.0,0.0,0.0,0.0,0.0,0.0,0.0,0.0,0.0,0.0,0.0,0.0,0.0,0.0,0.0,0.0,0.0,0.0,0.0,0.0,0.0,0.0,0.0,0.0,0.0,0.0,0.0,0.0,0.0,0.0,0.0,0.0,0.0,0.0,0.0,0.0,0.0,0.0,0.0,0.0,0.0,0.0,0.0,0.0,0.0,0.0,0.0,0.0,0.0,0.0,0.0,0.0,0.0,0.0,0.0,0.0,0.0,0.0,0.0,0.0,0.0,0.0,0.0,0.0,0.0,0.0,0.0,0.0,0.0,0.0,0.0,0.0,0.0,0.0,0.0,0.0,0.0,0.0,0.0,0.0,0.0,0.0,0.0,0.0,0.0,0.0,0.0,0.0,0.0,0.0,0.0,0.0,0.0,0.0,0.0,0.0,0.0,0.0,0.0,0.0,0.0,0.0,0.0,0.0,0.0,0.0,0.0,0.0,0.0,0.0,0.0,0.0,0.0,0.0,0.0,0.0,0.0,0.0,0.0,0.0,0.0,0.0,0.0,0.0,0.0,0.0,0.0,0.0,0.0,0.0,0.0,0.0,0.0,0.0,0.0,0.0,0.0,0.0,0.0,0.0,0.0,0.0,0.0,0.0,0.0,0.0,0.0,0.0,0.0,0.0,0.0,0.0,0.0,0.0,0.0,0.0,0.0,0.0,0.0,0.0,0.0,4.247,0.0,0.0,0.0,0.0,0.0,0.0,0.0,0.0,0.0,0.0,0.0,0.0,0.0,0.0,0.0,0.0,0.0,0.0,0.0,0.0,0.0,0.0,0.0,0.0,0.0,0.0,0.0,0.0,0.0,0.0,0.0,0.0,0.0,0.0,0.0,0.0,0.0,0.0,0.0,0.0,0.0,0.0,0.0,0.0,0.0,0.0,0.0,0.0,0.0,0.0,0.0,0.0,0.0,0.0,0.0,0.0,0.0,0.0,0.0,0.0,0.0,0.0,0.0,0.0,0.0,0.0,0.0,0.0,0.0,0.0,0.0,0.0,0.0,0.0,0.0,0.0,0.0,0.0,0.0,0.0,0.0,0.0,0.0,0.0,0.0,0.0,0.0,0.0,0.0,0.0,0.0,0.0,0.0,0.0,0.0,0.0,0.0,0.0,0.0,0.0,0.0,0.0,0.0,0.0,0.0,0.0,0.0,0.0,0.0,0.0,4.3497,4.3497,4.3497,4.3094,4.2323,0.0,0.0,0.0,0.0,0.0,0.0,0.0,0.0,0.0,0.0,0.0,0.0,0.0,0.0,0.0,0.0,0.0,0.0,0.0,0.0,0.0,0.0,0.0,0.0,0.0,0.0,0.0,0.0,0.0,0.0,0.0,0.0,0.0,0.0,0.0,0.0,0.0,0.0,0.0,0.0,0.0,0.0,0.0,0.0,0.0,0.0,0.0,0.0,0.0,0.0,0.0,0.0,0.0,0.0,0.0,0.0,0.0,0.0,0.0,0.0,0.0,0.0,0.0,0.0,0.0,0.0,0.0,0.0,0.0,0.0,0.0,0.0,0.0,0.0,0.0,0.0,0.0,0.0,0.0,0.0,0.0,0.0,0.0,0.0,0.0,0.0,0.0,0.0,0.0,0.0,0.0,0.0,0.0,0.0,0.0,0.0,0.0,0.0,0.0,0.0,0.0,0.0,0.0,0.0,0.0,0.0,0.0,0.0,0.0,0.0,0.0,0.0,4.4305,4.3864,4.2873,0.0,0.0,0.0,0.0,0.0,0.0,0.0,0.0,0.0,0.0,0.0,0.0,0.0,0.0,0.0,0.0,0.0,0.0,0.0,0.0,0.0,0.0,0.0,0.0,0.0,0.0,0.0,0.0,0.0,0.0,0.0,0.0,0.0,0.0,0.0,0.0,0.0,0.0,0.0,0.0,0.0,0.0,0.0,0.0,0.0,0.0,0.0,0.0,0.0,0.0,0.0,0.0,0.0,0.0,0.0,0.0,0.0,0.0,0.0,0.0,0.0,0.0,0.0,0.0,0.0,0.0,0.0,0.0,0.0,0.0,0.0,0.0,0.0,0.0,0.0,0.0,0.0,0.0,0.0,0.0,0.0,0.0,0.0,0.0,0.0,0.0,0.0,0.0,0.0,0.0,0.0,0.0,0.0,0.0,0.0,0.0,0.0,0.0,0.0,0.0,0.0,0.0,0.0,0.0,0.0,0.0,0.0,0.0,0.0,0.0,4.4562,4.6654,4.6764,0.0,4.4599,0.0,0.0,0.0,0.0,0.0,0.0,0.0,0.0,0.0,0.0,0.0,0.0,0.0,0.0,0.0,0.0,0.0,0.0,0.0,0.0,0.0,0.0,0.0,0.0,0.0,0.0,0.0,0.0,0.0,0.0,0.0,0.0,0.0,0.0,0.0,0.0,0.0,0.0,0.0,0.0,0.0,0.0,0.0,0.0,0.0,0.0,0.0,0.0,0.0,0.0,0.0,0.0,0.0,0.0,0.0,0.0,0.0,0.0,0.0,0.0,0.0,0.0,0.0,0.0,0.0,0.0,0.0,0.0,0.0,0.0,0.0,0.0,0.0,0.0,0.0,0.0,0.0,0.0,0.0,0.0,0.0,0.0,0.0,0.0,0.0,0.0,0.0,0.0,0.0,0.0,0.0,0.0,0.0,0.0,0.0,0.0,0.0,0.0,0.0,0.0,0.0,0.0,0.0,0.0,0.0,0.0,0.0,0.0,0.0,0.0,4.6104,4.7095,4.6177,4.5369,0.0,0.0,0.0,0.0,0.0,0.0,0.0,0.0,0.0,0.0,0.0,0.0,0.0,0.0,0.0,0.0,0.0,0.0,0.0,0.0,0.0,0.0,0.0,0.0,0.0,0.0,0.0,0.0,0.0,0.0,0.0,0.0,0.0,0.0,0.0,0.0,0.0,0.0,0.0,0.0,0.0,0.0,0.0,0.0,0.0,0.0,0.0,0.0,0.0,0.0,0.0,0.0,0.0,0.0,0.0,0.0,0.0,0.0,0.0,0.0,0.0,0.0,0.0,0.0,0.0,0.0,0.0,0.0,0.0,0.0,0.0,0.0,0.0,0.0,0.0,0.0,0.0,0.0,0.0,0.0,0.0,0.0,0.0,0.0,0.0,0.0,0.0,0.0,0.0,0.0,0.0,0.0,0.0,0.0,0.0,0.0,0.0,0.0,0.0,0.0,0.0,0.0,0.0,0.0,0.0,0.0,0.0,0.0,0.0,0.0,4.6361,0.0,4.7682,4.6874,4.5663,4.4121,0.0,0.0,0.0,0.0,0.0,0.0,0.0,0.0,0.0,0.0,0.0,0.0,0.0,0.0,0.0,0.0,0.0,0.0,0.0,0.0,0.0,0.0,0.0,0.0,0.0,0.0,0.0,0.0,0.0,0.0,0.0,0.0,0.0,0.0,0.0,0.0,0.0,0.0,0.0,0.0,0.0,0.0,0.0,0.0,0.0,0.0,0.0,0.0,0.0,0.0,0.0,0.0,0.0,0.0,0.0,0.0,0.0,0.0,0.0,0.0,0.0,0.0,0.0,0.0,0.0,0.0,0.0,0.0,0.0,0.0,0.0,0.0,0.0,0.0,0.0,0.0,0.0,0.0,0.0,0.0,0.0,0.0,0.0,0.0,0.0,0.0,0.0,0.0,0.0,0.0,0.0,0.0,0.0,0.0,0.0,0.0,0.0,0.0,0.0,0.0,0.0,0.0,0.0,0.0,0.0,0.0,0.0,0.0,0.0,4.7462,4.7058,4.9334,5.0105,4.7976,0.0,0.0,0.0,0.0,0.0,0.0,0.0,0.0,0.0,0.0,0.0,0.0,0.0,0.0,0.0,0.0,0.0,0.0,0.0,0.0,0.0,0.0,0.0,0.0,0.0,0.0,0.0,0.0,0.0,0.0,0.0,0.0,0.0,0.0,0.0,0.0,0.0,0.0,0.0,0.0,0.0,0.0,0.0,0.0,0.0,0.0,0.0,0.0,0.0,0.0,0.0,0.0,0.0,0.0,0.0,0.0,0.0,0.0,0.0,0.0,0.0,0.0,0.0,0.0,0.0,0.0,0.0,0.0,0.0,0.0,0.0,0.0,0.0,0.0,0.0,0.0,0.0,0.0,0.0,0.0,0.0,0.0,0.0,0.0,0.0,0.0,0.0,0.0,0.0,0.0,0.0,0.0,0.0,0.0,0.0,0.0,0.0,0.0,0.0,0.0,0.0,0.0,0.0,0.0,0.0,0.0,0.0,0.0,0.0,4.4525,4.5406,4.8086,5.227,4.8453,4.5883,0.0,0.0,0.0,0.0,0.0,0.0,0.0,0.0,0.0,0.0,0.0,0.0,0.0,0.0,0.0,0.0,0.0,0.0,0.0,0.0,0.0,0.0,0.0,0.0,0.0,0.0,0.0,0.0,0.0,0.0,0.0,0.0,0.0,0.0,0.0,0.0,0.0,0.0,0.0,0.0,0.0,0.0,0.0,0.0,0.0,0.0,0.0,0.0,0.0,0.0,0.0,0.0,0.0,0.0,0.0,0.0,0.0,0.0,0.0,0.0,0.0,0.0,0.0,0.0,0.0,0.0,0.0,0.0,0.0,0.0,0.0,0.0,0.0,0.0,0.0,0.0,0.0,0.0,0.0,0.0,0.0,0.0,0.0,0.0,0.0,0.0,0.0,0.0,0.0,0.0,0.0,0.0,0.0,0.0,0.0,0.0,0.0,0.0,0.0,0.0,0.0,0.0,0.0,0.0,0.0,0.0,0.0,0.0,0.0,4.3094,0.0,4.9517,0.0,4.7278,4.4342,0.0,0.0,0.0,0.0,0.0,0.0,0.0,0.0,0.0,0.0,0.0,0.0,0.0,0.0,0.0,0.0,0.0,0.0,0.0,0.0,0.0,0.0,0.0,0.0,0.0,0.0,0.0,0.0,0.0,0.0,0.0,0.0,0.0,0.0,0.0,0.0,0.0,0.0,0.0,0.0,0.0,0.0,0.0,0.0,0.0,0.0,0.0,0.0,0.0,0.0,0.0,0.0,0.0,0.0,0.0,0.0,0.0,0.0,0.0,0.0,0.0,0.0,0.0,0.0,0.0,0.0,0.0,0.0,0.0,0.0,0.0,0.0,0.0,0.0,0.0,0.0,0.0,0.0,0.0,0.0,0.0,0.0,0.0,0.0,0.0,0.0,0.0,0.0,0.0,0.0,0.0,0.0,0.0,0.0,0.0,0.0,0.0,0.0,0.0,0.0,0.0,0.0,0.0,0.0,0.0,0.0,0.0,0.0,0.0,4.6874,5.0839,5.1096,4.7425,4.7058,4.3681,0.0,0.0,0.0,0.0,0.0,0.0,0.0,0.0,0.0,0.0,0.0,0.0,0.0,0.0,0.0,0.0,0.0,0.0,0.0,0.0,0.0,0.0,0.0,0.0,0.0,0.0,0.0,0.0,0.0,0.0,0.0,0.0,0.0,0.0,0.0,0.0,0.0,0.0,0.0,0.0,0.0,0.0,0.0,0.0,0.0,0.0,0.0,0.0,0.0,0.0,0.0,0.0,0.0,0.0,0.0,0.0,0.0,0.0,0.0,0.0,0.0,0.0,0.0,0.0,0.0,0.0,0.0,0.0,0.0,0.0,0.0,0.0,0.0,0.0,0.0,0.0,0.0,0.0,0.0,0.0,0.0,0.0,0.0,0.0,0.0,0.0,0.0,0.0,0.0,0.0,0.0,0.0,0.0,0.0,0.0,0.0,0.0,0.0,0.0,0.0,0.0,0.0,0.0,0.0,0.0,0.0,0.0,0.0,0.0,4.4672,4.8049,5.0325,5.1096,4.6434,4.3534,0.0,0.0,0.0,0.0,0.0,0.0,0.0,0.0,0.0,0.0,0.0,0.0,0.0,0.0,0.0,0.0,0.0,0.0,0.0,0.0,0.0,0.0,0.0,0.0,0.0,0.0,0.0,0.0,0.0,0.0,0.0,0.0,0.0,0.0,0.0,0.0,0.0,0.0,0.0,0.0,0.0,0.0,0.0,0.0,0.0,0.0,0.0,0.0,0.0,0.0,0.0,0.0,0.0,0.0,0.0,0.0,0.0,0.0,0.0,0.0,0.0,0.0,0.0,0.0,0.0,0.0,0.0,0.0,0.0,0.0,0.0,0.0,0.0,0.0,0.0,0.0,0.0,0.0,0.0,0.0,0.0,0.0,0.0,0.0,0.0,0.0,0.0,0.0,0.0,0.0,0.0,0.0,0.0,0.0,0.0,0.0,0.0,0.0,0.0,0.0,0.0,0.0,0.0,0.0,0.0,0.0,0.0,0.0,0.0,4.7719,5.0986,5.3078,5.3628,4.86,4.5333,4.4085,0.0,0.0,0.0,0.0,0.0,0.0,0.0,0.0,0.0,0.0,0.0,0.0,0.0,0.0,0.0,0.0,0.0,0.0,0.0,0.0,0.0,0.0,0.0,0.0,0.0,0.0,0.0,0.0,0.0,0.0,0.0,0.0,0.0,0.0,0.0,0.0,0.0,0.0,0.0,0.0,0.0,0.0,0.0,0.0,0.0,0.0,0.0,0.0,0.0,0.0,0.0,0.0,0.0,0.0,0.0,0.0,0.0,0.0,0.0,0.0,0.0,0.0,0.0,0.0,0.0,0.0,0.0,0.0,0.0,0.0,0.0,0.0,0.0,0.0,0.0,0.0,0.0,0.0,0.0,0.0,0.0,0.0,0.0,0.0,0.0,0.0,0.0,0.0,0.0,0.0,0.0,0.0,0.0,0.0,0.0,0.0,0.0,0.0,0.0,0.0,0.0,0.0,0.0,0.0,0.0,0.0,0.0,0.0,5.462,5.8767,5.9024,5.517,5.3041,4.8783,0.0,0.0,0.0,0.0,0.0,0.0,0.0,0.0,0.0,0.0,0.0,0.0,0.0,0.0,0.0,0.0,0.0,0.0,0.0,0.0,0.0,0.0,0.0,0.0,0.0,0.0,0.0,0.0,0.0,0.0,0.0,0.0,0.0,0.0,0.0,0.0,0.0,0.0,0.0,0.0,0.0,0.0,0.0,0.0,0.0,0.0,0.0,0.0,0.0,0.0,0.0,0.0,0.0,0.0,0.0,0.0,0.0,0.0,0.0,0.0,0.0,0.0,0.0,0.0,0.0,0.0,0.0,0.0,0.0,0.0,0.0,0.0,0.0,0.0,0.0,0.0,0.0,0.0,0.0,0.0,0.0,0.0,0.0,0.0,0.0,0.0,0.0,0.0,0.0,0.0,0.0,0.0,0.0,0.0,0.0,0.0,0.0,0.0,0.0,0.0,0.0,0.0,0.0,0.0,0.0,0.0,0.0,0.0,0.0,5.7997,6.4237,6.5668,6.1594,5.5941,5.1132,0.0,0.0,0.0,0.0,0.0,0.0,0.0,0.0,0.0,0.0,0.0,0.0,0.0,0.0,0.0,0.0,0.0,0.0,0.0,0.0,0.0,0.0,0.0,0.0,0.0,0.0,0.0,0.0,0.0,0.0,0.0,0.0,0.0,0.0,0.0,0.0,0.0,0.0,0.0,0.0,0.0,0.0,0.0,0.0,0.0,0.0,0.0,0.0,0.0,0.0,0.0,0.0,0.0,0.0,0.0,0.0,0.0,0.0,0.0,0.0,0.0,0.0,0.0,0.0,0.0,0.0,0.0,0.0,0.0,0.0,0.0,0.0,0.0,0.0,0.0,0.0,0.0,0.0,0.0,0.0,0.0,0.0,0.0,0.0,0.0,0.0,0.0,0.0,0.0,0.0,0.0,0.0,0.0,0.0,0.0,0.0,0.0,0.0,0.0,0.0,0.0,0.0,0.0,0.0,0.0,0.0,0.0,0.0,5.6014,6.0199,6.8017,7.0513,6.721,6.141,5.5831,0.0,0.0,0.0,0.0,0.0,0.0,0.0,0.0,0.0,0.0,0.0,0.0,0.0,0.0,0.0,0.0,0.0,0.0,0.0,0.0,0.0,0.0,0.0,0.0,0.0,0.0,0.0,0.0,0.0,0.0,0.0,0.0,0.0,0.0,0.0,0.0,0.0,0.0,0.0,0.0,0.0,0.0,0.0,0.0,0.0,0.0,0.0,0.0,0.0,0.0,0.0,0.0,0.0,0.0,0.0,0.0,0.0,0.0,0.0,0.0,0.0,0.0,0.0,0.0,0.0,0.0,0.0,0.0,0.0,0.0,0.0,0.0,0.0,0.0,0.0,0.0,0.0,0.0,0.0,0.0,0.0,0.0,0.0,0.0,0.0,0.0,0.0,0.0,0.0,0.0,0.0,0.0,0.0,0.0,0.0,0.0,0.0,0.0,0.0,0.0,0.0,0.0,0.0,0.0,0.0,0.0,0.0,0.0,5.8547,6.1851,7.0146,7.3487,7.1321,6.7357,6.1153,0.0,0.0,0.0,0.0,0.0,0.0,0.0,0.0,0.0,0.0,0.0,0.0,0.0,0.0,0.0,0.0,0.0,0.0,0.0,0.0,0.0,0.0,0.0,0.0,0.0,0.0,0.0,0.0,0.0,0.0,0.0,0.0,0.0,0.0,0.0,0.0,0.0,0.0,0.0,0.0,0.0,0.0,0.0,0.0,0.0,0.0,0.0,0.0,0.0,0.0,0.0,0.0,0.0,0.0,0.0,0.0,0.0,0.0,0.0,0.0,0.0,0.0,0.0,0.0,0.0,0.0,0.0,0.0,0.0,0.0,0.0,0.0,0.0,0.0,0.0,0.0,0.0,0.0,0.0,0.0,0.0,0.0,0.0,0.0,0.0,0.0,0.0,0.0,0.0,0.0,0.0,0.0,0.0,0.0,0.0,0.0,0.0,0.0,0.0,0.0,0.0,0.0,0.0,0.0,0.0,0.0,0.0,0.0,5.9648,6.3539,6.9119,7.1835,7.1321,6.6806,6.1374,0.0,0.0,0.0,0.0,0.0,0.0,0.0,0.0,0.0,0.0,0.0,0.0,0.0,0.0,0.0,0.0,0.0,0.0,0.0,0.0,0.0,0.0,0.0,0.0,0.0,0.0,0.0,0.0,0.0,0.0,0.0,0.0,0.0,0.0,0.0,0.0,0.0,0.0,0.0,0.0,0.0,0.0,0.0,0.0,0.0,0.0,0.0,0.0,4.4525,0.0,0.0,0.0,0.0,0.0,0.0,0.0,0.0,0.0,0.0,0.0,0.0,0.0,0.0,0.0,0.0,0.0,0.0,0.0,0.0,0.0,0.0,0.0,0.0,0.0,0.0,0.0,0.0,0.0,0.0,0.0,0.0,0.0,0.0,0.0,0.0,0.0,0.0,0.0,0.0,0.0,0.0,0.0,0.0,0.0,0.0,0.0,0.0,0.0,0.0,0.0,0.0,0.0,0.0,0.0,0.0,0.0,0.0,0.0,6.0162,6.3503,6.8605,7.077,6.9596,6.71,6.2768,0.0,0.0,0.0,0.0,0.0,0.0,0.0,0.0,0.0,0.0,0.0,0.0,0.0,0.0,0.0,0.0,0.0,0.0,0.0,0.0,0.0,0.0,0.0,0.0,0.0,0.0,0.0,0.0,0.0,0.0,0.0,0.0,0.0,0.0,0.0,0.0,0.0,0.0,0.0,0.0,0.0,0.0,0.0,0.0,0.0,0.0,0.0,0.0,0.0,0.0,0.0,0.0,0.0,0.0,0.0,0.0,0.0,0.0,0.0,0.0,0.0,0.0,0.0,0.0,0.0,0.0,0.0,0.0,0.0,0.0,0.0,0.0,0.0,0.0,0.0,0.0,0.0,0.0,0.0,0.0,0.0,0.0,0.0,0.0,0.0,0.0,0.0,0.0,0.0,0.0,0.0,0.0,0.0,0.0,0.0,0.0,0.0,0.0,0.0,0.0,0.0,0.0,0.0,0.0,0.0,0.0,0.0,5.5207,6.0126,6.3246,6.8017,6.9522,6.7393,6.7063,6.3576,5.6528,0.0,0.0,0.0,0.0,0.0,0.0,0.0,0.0,0.0,0.0,0.0,0.0,0.0,0.0,0.0,0.0,0.0,0.0,0.0,0.0,0.0,0.0,0.0,0.0,0.0,0.0,0.0,0.0,0.0,0.0,0.0,0.0,0.0,0.0,0.0,0.0,0.0,0.0,3.9633,4.2608,0.0,0.0,0.0,0.0,0.0,0.0,0.0,0.0,4.57,0.0,0.0,0.0,0.0,0.0,0.0,0.0,0.0,0.0,0.0,0.0,0.0,0.0,0.0,0.0,0.0,0.0,0.0,0.0,0.0,0.0,0.0,0.0,0.0,0.0,0.0,0.0,0.0,0.0,0.0,0.0,0.0,0.0,0.0,0.0,0.0,0.0,0.0,0.0,0.0,0.0,0.0,0.0,0.0,0.0,0.0,0.0,0.0,0.0,0.0,0.0,0.0,0.0,0.0,0.0,0.0,5.4069,5.55,5.8988,6.4751,6.6439,6.6769,6.5705,6.4347,6.0529,5.4179,0.0,0.0,0.0,0.0,0.0,0.0,0.0,0.0,0.0,0.0,0.0,0.0,0.0,0.0,0.0,0.0,0.0,0.0,0.0,0.0,0.0,0.0,0.0,0.0,0.0,0.0,0.0,0.0,0.0,0.0,0.0,0.0,0.0,0.0,0.0,0.0,0.0,0.0,0.0,4.6638,4.8043,0.0,0.0,0.0,0.0,0.0,0.0,0.0,0.0,4.7384,0.0,0.0,0.0,0.0,0.0,0.0,0.0,0.0,0.0,0.0,0.0,0.0,0.0,0.0,0.0,0.0,0.0,0.0,0.0,0.0,0.0,0.0,0.0,0.0,0.0,0.0,0.0,0.0,0.0,0.0,0.0,0.0,0.0,0.0,0.0,0.0,0.0,0.0,0.0,0.0,0.0,0.0,0.0,0.0,0.0,0.0,0.0,0.0,0.0,0.0,0.0,0.0,0.0,0.0,0.0,5.2821,5.6381,6.0236,6.453,6.5448,6.5485,6.464,6.1851,5.7886,0.0,0.0,0.0,0.0,0.0,0.0,0.0,0.0,0.0,0.0,0.0,0.0,0.0,0.0,0.0,0.0,0.0,0.0,0.0,0.0,0.0,0.0,0.0,0.0,0.0,0.0,0.0,0.0,0.0,0.0,0.0,0.0,0.0,0.0,0.0,0.0,0.0,0.0,0.0,0.0,4.8323,4.9883,5.1923,0.0,0.0,0.0,0.0,0.0,0.0,4.7611,4.7328,0.0,0.0,0.0,0.0,0.0,0.0,0.0,0.0,0.0,0.0,0.0,0.0,0.0,0.0,0.0,0.0,0.0,0.0,0.0,0.0,0.0,0.0,0.0,0.0,0.0,0.0,0.0,0.0,0.0,0.0,0.0,0.0,0.0,0.0,0.0,0.0,0.0,0.0,0.0,0.0,0.0,0.0,0.0,0.0,0.0,0.0,0.0,0.0,0.0,0.0,0.0,0.0,0.0,0.0,0.0,5.0802,5.6822,6.119,6.3723,6.4787,6.4751,6.3576,5.9795,5.5721,0.0,0.0,0.0,0.0,0.0,0.0,0.0,0.0,0.0,0.0,0.0,0.0,0.0,0.0,0.0,0.0,0.0,0.0,0.0,0.0,0.0,0.0,0.0,0.0,0.0,0.0,0.0,0.0,0.0,0.0,0.0,0.0,0.0,0.0,0.0,0.0,0.0,0.0,0.0,0.0,0.0,5.1746,5.411,5.1311,0.0,0.0,0.0,0.0,4.815,4.8894,0.0,0.0,0.0,0.0,0.0,0.0,0.0,0.0,0.0,0.0,0.0,0.0,0.0,0.0,0.0,0.0,0.0,0.0,0.0,0.0,0.0,0.0,0.0,0.0,0.0,0.0,0.0,0.0,0.0,0.0,0.0,0.0,0.0,0.0,0.0,0.0,0.0,0.0,0.0,0.0,0.0,0.0,0.0,0.0,0.0,0.0,0.0,0.0,0.0,0.0,0.0,0.0,0.0,0.0,0.0,0.0,5.0655,5.5721,5.9795,6.2842,6.4494,6.42,6.1924,5.8694,5.4363,0.0,0.0,0.0,0.0,0.0,0.0,0.0,0.0,0.0,0.0,0.0,0.0,0.0,0.0,0.0,0.0,0.0,0.0,0.0,0.0,0.0,0.0,0.0,0.0,0.0,0.0,0.0,0.0,0.0,0.0,0.0,0.0,0.0,0.0,0.0,0.0,0.0,0.0,0.0,0.0,0.0,5.4037,5.3675,5.3193,5.2785,0.0,0.0,5.4713,5.4762,5.614,0.0,0.0,0.0,0.0,0.0,0.0,0.0,0.0,0.0,0.0,0.0,0.0,0.0,0.0,0.0,0.0,0.0,0.0,0.0,0.0,0.0,0.0,0.0,0.0,0.0,0.0,0.0,0.0,0.0,0.0,0.0,0.0,0.0,0.0,0.0,0.0,0.0,0.0,0.0,0.0,0.0,0.0,0.0,0.0,0.0,0.0,0.0,0.0,0.0,0.0,0.0,0.0,0.0,0.0,0.0,4.4856,5.0765,5.6895,6.0933,6.2768,6.398,6.3649,6.163,5.6712,5.227,0.0,0.0,0.0,0.0,0.0,0.0,0.0,0.0,0.0,0.0,0.0,0.0,0.0,0.0,0.0,0.0,0.0,0.0,0.0,0.0,0.0,0.0,0.0,0.0,0.0,0.0,0.0,0.0,0.0,0.0,0.0,0.0,0.0,0.0,0.0,0.0,0.0,0.0,0.0,0.0,0.0,0.0,5.5352,5.5558,0.0,0.0,0.0,5.5281,5.3458,0.0,0.0,0.0,0.0,0.0,0.0,0.0,0.0,0.0,0.0,0.0,0.0,0.0,0.0,0.0,0.0,0.0,0.0,0.0,0.0,0.0,0.0,0.0,0.0,0.0,0.0,0.0,0.0,0.0,0.0,0.0,0.0,0.0,0.0,0.0,0.0,0.0,0.0,0.0,0.0,0.0,0.0,0.0,0.0,0.0,0.0,0.0,0.0,0.0,0.0,0.0,0.0,0.0,0.0,0.0,0.0,0.0,5.0802,5.8143,6.2218,6.2842,6.3833,6.3392,6.1263,5.6014,0.0,0.0,0.0,0.0,0.0,0.0,0.0,0.0,0.0,0.0,0.0,0.0,0.0,0.0,0.0,0.0,0.0,0.0,0.0,0.0,0.0,0.0,0.0,0.0,0.0,0.0,0.0,3.1495,0.0,0.0,0.0,0.0,0.0,0.0,0.0,0.0,0.0,0.0,0.0,0.0,0.0,0.0,5.5238,5.7376,5.821,5.8819,0.0,0.0,5.6273,5.408,5.7141,5.6932,0.0,0.0,0.0,0.0,0.0,0.0,0.0,0.0,0.0,0.0,0.0,0.0,0.0,0.0,0.0,0.0,0.0,0.0,0.0,0.0,0.0,0.0,0.0,0.0,0.0,0.0,0.0,0.0,0.0,0.0,0.0,0.0,0.0,0.0,0.0,0.0,0.0,0.0,0.0,0.0,0.0,0.0,0.0,0.0,0.0,0.0,0.0,0.0,0.0,0.0,0.0,0.0,0.0,0.0,0.0,5.0875,5.8657,6.2768,6.2879,6.4383,6.3686,6.0566,5.7886,5.3188,0.0,0.0,0.0,0.0,0.0,0.0,0.0,0.0,0.0,0.0,0.0,0.0,0.0,0.0,0.0,0.0,0.0,0.0,0.0,0.0,0.0,0.0,0.0,0.0,0.0,0.0,0.0,0.0,0.0,0.0,0.0,0.0,0.0,0.0,0.0,0.0,0.0,0.0,0.0,0.0,0.0,5.6958,5.9108,6.1135,6.3232,0.0,0.0,6.0298,6.0774,6.3062,6.1185,5.0629,0.0,0.0,0.0,0.0,0.0,0.0,0.0,0.0,0.0,0.0,0.0,0.0,0.0,0.0,0.0,0.0,0.0,0.0,0.0,0.0,0.0,0.0,0.0,0.0,0.0,0.0,0.0,0.0,0.0,0.0,0.0,0.0,0.0,0.0,0.0,0.0,0.0,0.0,0.0,0.0,0.0,0.0,0.0,0.0,0.0,0.0,0.0,0.0,0.0,0.0,0.0,0.0,0.0,4.6874,5.227,5.9208,6.3062,6.3613,6.4714,6.398,6.119,5.8804,5.462,0.0,0.0,0.0,0.0,0.0,0.0,0.0,0.0,0.0,0.0,0.0,0.0,0.0,0.0,0.0,0.0,0.0,0.0,0.0,0.0,0.0,0.0,0.0,0.0,0.0,0.0,0.0,0.0,4.0493,4.117,4.0832,0.0,0.0,0.0,0.0,0.0,0.0,0.0,0.0,0.0,0.0,5.8625,6.1317,6.3179,0.0,0.0,6.3576,6.1814,6.163,6.1153,5.8432,5.1427,4.8695,0.0,0.0,0.0,0.0,0.0,0.0,0.0,0.0,0.0,0.0,0.0,0.0,0.0,0.0,0.0,0.0,0.0,0.0,0.0,0.0,0.0,0.0,0.0,0.0,0.0,0.0,0.0,0.0,0.0,0.0,0.0,0.0,0.0,0.0,0.0,0.0,0.0,0.0,0.0,0.0,0.0,0.0,0.0,0.0,0.0,0.0,0.0,0.0,0.0,0.0,0.0,0.0,4.7755,5.3188,5.9795,6.3613,6.442,6.5007,6.4237,6.1998,5.9869,5.6308,0.0,0.0,0.0,0.0,0.0,0.0,0.0,0.0,0.0,0.0,0.0,0.0,0.0,0.0,0.0,0.0,0.0,0.0,0.0,0.0,0.0,0.0,0.0,0.0,0.0,0.0,0.0,0.0,4.2354,4.2489,4.1035,0.0,0.0,0.0,0.0,0.0,0.0,0.0,0.0,0.0,0.0,6.097,6.3021,6.427,6.4882,6.4636,6.2589,6.087,6.0272,5.8957,5.6562,5.2164,0.0,0.0,0.0,0.0,0.0,0.0,0.0,0.0,0.0,0.0,0.0,0.0,0.0,0.0,0.0,0.0,0.0,0.0,0.0,0.0,0.0,0.0,0.0,0.0,0.0,0.0,0.0,0.0,0.0,0.0,3.8689,0.0,0.0,0.0,0.0,0.0,0.0,0.0,0.0,0.0,0.0,0.0,0.0,0.0,0.0,0.0,0.0,0.0,0.0,0.0,0.0,0.0,0.0,0.0,5.3225,6.0382,6.442,6.5264,6.5301,6.453,6.2842,6.1227,5.8437,5.4326,0.0,0.0,0.0,0.0,0.0,0.0,0.0,0.0,0.0,0.0,0.0,0.0,0.0,0.0,0.0,0.0,0.0,0.0,0.0,0.0,0.0,0.0,0.0,0.0,0.0,0.0,3.9073,4.1001,4.1677,0.0,0.0,0.0,0.0,0.0,0.0,0.0,0.0,0.0,0.0,5.8844,6.4185,6.4024,6.409,6.3884,6.3128,5.9779,5.7195,5.7216,5.7702,5.6884,0.0,0.0,0.0,0.0,0.0,0.0,0.0,0.0,0.0,0.0,0.0,0.0,0.0,0.0,0.0,0.0,0.0,0.0,0.0,0.0,0.0,0.0,0.0,0.0,0.0,0.0,0.0,5.0178,4.8012,0.0,0.0,0.0,0.0,0.0,0.0,0.0,0.0,0.0,0.0,0.0,5.3995,5.506,0.0,0.0,0.0,0.0,0.0,0.0,0.0,0.0,0.0,0.0,0.0,0.0,4.9921,5.4803,6.0933,6.4751,6.6035,6.6109,6.5558,6.4494,6.2879,5.9612,5.4546,0.0,0.0,0.0,0.0,0.0,0.0,0.0,0.0,0.0,0.0,0.0,0.0,0.0,0.0,0.0,0.0,0.0,0.0,0.0,0.0,0.0,0.0,0.0,0.0,0.0,3.9445,0.0,0.0,0.0,0.0,0.0,0.0,0.0,0.0,0.0,0.0,0.0,5.2604,5.4887,5.903,6.1768,6.1795,6.2638,6.3384,0.0,0.0,0.0,0.0,0.0,0.0,0.0,0.0,0.0,0.0,0.0,0.0,0.0,0.0,5.531,4.7158,4.6244,4.6752,4.6752,0.0,0.0,0.0,0.0,0.0,0.0,0.0,0.0,0.0,0.0,0.0,0.0,0.0,0.0,5.7226,0.0,5.4803,0.0,0.0,0.0,0.0,0.0,0.0,0.0,0.0,5.7189,5.9171,5.9391,6.0419,5.9648,0.0,5.6235,5.1463,0.0,0.0,0.0,0.0,0.0,0.0,0.0,0.0,5.1573,5.6418,6.1741,6.5301,6.6806,6.6623,6.6256,6.5705,6.4383,6.1704,5.7446,5.4216,5.1132,0.0,0.0,0.0,0.0,0.0,0.0,0.0,0.0,0.0,0.0,0.0,0.0,0.0,0.0,0.0,0.0,0.0,0.0,0.0,0.0,0.0,0.0,0.0,4.0933,0.0,0.0,0.0,0.0,0.0,0.0,0.0,0.0,0.0,4.7361,5.2518,5.6886,5.8372,6.0883,6.2021,6.0686,0.0,0.0,0.0,0.0,0.0,0.0,0.0,5.5397,5.5759,5.5107,5.5223,5.7352,6.0317,6.2042,6.1061,0.0,0.0,5.3754,5.2739,5.3179,5.3213,5.3551,5.4126,5.4871,5.619,5.7239,0.0,0.0,0.0,0.0,0.0,0.0,0.0,0.0,6.4273,6.2291,0.0,6.0713,0.0,0.0,0.0,0.0,0.0,5.6455,0.0,0.0,6.6366,6.7907,6.4383,6.431,6.3833,6.2915,6.1374,5.8621,5.4583,4.9958,0.0,0.0,0.0,0.0,0.0,0.0,5.3261,5.8033,6.2842,6.6072,6.7577,6.6953,6.6512,6.6476,6.5742,6.453,6.2915,6.1153,5.8584,5.4693,4.915,0.0,0.0,0.0,0.0,0.0,0.0,0.0,0.0,0.0,0.0,0.0,0.0,0.0,0.0,0.0,0.0,0.0,0.0,0.0,0.0,4.1001,0.0,0.0,0.0,0.0,0.0,0.0,0.0,0.0,0.0,0.0,5.0879,5.698,6.164,6.1398,0.0,0.0,0.0,0.0,6.0382,5.761,5.7173,5.7289,5.7293,5.8345,5.9408,6.0167,0.0,0.0,6.3928,6.3193,6.2516,6.0858,6.3768,6.5189,6.299,6.0723,5.937,5.9268,5.8389,5.7577,5.8152,5.9844,6.0757,7.3854,0.0,0.0,0.0,0.0,6.9192,7.2312,7.7304,7.6864,7.4625,7.1248,7.0881,0.0,0.0,0.0,0.0,0.0,0.0,6.0493,6.2805,6.6035,6.7834,6.8385,6.8972,6.8201,6.6329,6.6402,6.5301,6.2952,5.9869,5.3592,4.4525,0.0,0.0,0.0,0.0,5.5464,5.9648,6.3392,6.6072,6.765,6.7467,6.7063,6.6512,6.6292,6.5668,6.4604,6.2989,6.108,5.8731,5.3849,0.0,0.0,0.0,0.0,0.0,0.0,0.0,0.0,0.0,0.0,0.0,0.0,0.0,0.0,0.0,0.0,0.0,0.0,0.0,4.029,4.161,4.2388,0.0,0.0,0.0,0.0,0.0,0.0,0.0,0.0,0.0,5.8863,6.035,6.1256,0.0,0.0,6.018,5.7431,5.8585,5.9879,6.0102,6.0607,0.0,6.2355,6.1007,6.0381,6.2226,6.5654,6.8116,6.8285,6.9383,6.9992,6.8977,6.9722,7.0094,6.8944,6.7387,6.6034,6.5527,6.5865,6.5967,6.5358,6.6643,6.7692,8.5198,8.0021,7.5249,7.4698,7.6974,7.6717,7.947,8.4058,8.3434,8.1599,7.8956,7.8148,7.3193,6.5264,6.2071,0.0,0.0,0.0,6.4163,6.699,6.7981,6.9009,7.0073,7.0257,6.9596,6.8201,6.8017,6.7467,6.6439,6.3686,5.8364,5.0692,0.0,0.0,4.9884,5.3775,5.7666,6.13,6.3943,6.6072,6.765,6.7687,6.743,6.699,6.699,6.6733,6.6256,6.4971,6.3686,6.2365,5.8327,5.3995,0.0,0.0,0.0,0.0,0.0,0.0,0.0,0.0,0.0,0.0,0.0,3.6821,0.0,0.0,0.0,0.0,3.9358,4.1847,4.4485,4.5128,0.0,0.0,0.0,0.0,0.0,0.0,0.0,5.5108,5.9573,6.2787,6.3193,6.3196,6.3102,6.317,6.2377,6.1126,5.9478,0.0,6.15,6.2264,6.2643,6.3287,6.4588,6.3374,6.31,6.5396,6.7758,6.9722,7.0534,7.1785,7.2428,7.209,7.1954,7.1819,7.1379,7.0567,6.9755,6.8977,6.9282,6.9383,6.8538,6.9485,7.0161,9.4308,9.3308,8.215,7.9653,8.292,8.226,8.3985,8.7031,8.5563,8.4462,8.3654,8.2774,7.8442,7.1505,6.6256,0.0,6.7981,6.8017,6.9192,7.1284,7.1321,7.0881,7.0073,6.9339,6.8935,6.8752,6.7357,6.6659,6.6476,6.3503,6.119,5.9575,5.7299,5.6014,5.5794,5.7336,5.9758,6.2879,6.442,6.6035,6.7614,6.7687,6.765,6.7577,6.7577,6.754,6.7357,6.6696,6.5925,6.5081,6.2108,5.8621,5.4693,0.0,0.0,0.0,0.0,0.0,0.0,0.0,0.0,0.0,0.0,0.0,0.0,0.0,0.0,0.0,4.5891,0.0,5.0405,5.0642,0.0,0.0,0.0,5.4363,5.8017,5.981,6.0926,6.1501,0.0,0.0,6.4952,6.5527,6.6508,6.7996,6.6745,6.5425,6.4715,6.4435,6.4462,6.3841,6.3869,6.4142,6.4988,6.5465,6.6392,6.8388,6.9722,7.0398,7.1075,7.1312,7.1345,7.1345,7.1312,7.1312,7.1312,7.1244,7.1109,7.0364,6.9789,6.9316,6.9113,6.9316,6.9451,9.4795,9.4006,9.0519,8.9638,9.0482,9.0335,8.9711,8.8757,8.7766,8.6885,8.6077,8.4646,8.1012,7.5799,7.3817,7.2018,7.0477,7.1064,7.1321,7.1321,7.1321,7.0881,7.0073,6.9926,6.9155,6.8054,6.8238,6.8017,6.7357,6.5999,6.4494,6.2952,6.1704,5.9575,5.6712,5.8731,6.1117,6.3759,6.42,6.5448,6.7577,6.7687,6.7393,6.6806,6.6806,6.6182,6.5007,6.4787,6.4273,6.3429,6.1484,5.9134,5.6345,5.0068,0.0,0.0,0.0,0.0,0.0,0.0,0.0,0.0,0.0,4.4288,3.6381,0.0,4.5663,0.0,4.9124,5.2807,5.5006,5.5209,0.0,0.0,5.8829,5.9505,6.2651,6.4816,6.5493,6.3971,6.6305,6.803,6.803,6.8199,6.8842,7.0229,6.7726,6.5425,6.4715,6.5081,6.5379,6.5323,6.5619,6.6109,6.6257,6.6937,6.7743,6.8876,6.9688,7.0432,7.1176,7.1312,7.1312,7.1312,7.1312,7.1312,7.1312,7.1312,7.1244,7.1075,7.0906,7.0432,6.9383,6.9992,7.0432,9.3816,9.3712,9.3308,9.2868,9.2464,9.1767,9.0262,8.8353,8.7839,8.7215,8.6334,8.4389,8.1232,7.7341,7.646,7.4735,7.2459,7.2459,7.2275,7.1835,7.1468,7.1064,7.0624,6.9889,6.9082,6.8274,6.8311,6.8128,6.765,6.688,6.6035,6.5191,6.4677,6.2989,6.0199,6.0309,6.1263,6.2952,6.409,6.5632,6.7577,6.7687,6.6953,6.5485,6.5778,6.4861,6.2548,6.2438,6.1741,6.0236,5.9612,5.8253,5.5831,5.2013,4.8746,0.0,0.0,0.0,0.0,0.0,0.0,0.0,0.0,0.0,0.0,0.0,5.008,4.9457,5.4258,5.7949,5.9167,5.9877,6.1467,6.4444,6.4377,6.5155,6.7793,6.9451,6.9789,6.8267,6.9553,7.0432,7.0128,7.006,7.0364,7.121,6.9519,6.7929,6.7252,6.7184,6.7083,6.6745,6.6474,6.6305,6.6305,6.7218,6.8166,6.8977,6.9722,7.0432,7.1176,7.1312,7.1312,7.1312,7.1312,7.1312,7.1312,7.1312,7.1312,7.1312,7.1312,7.1007,7.0263,7.0737,7.1007,9.2389,9.2905,9.2831,9.2281,9.1363,8.9784,8.8353,8.7142,8.6848,8.6114,8.5049,8.2847,8.0131,7.7157,7.6313,7.5065,7.3523,7.2826,7.2532,7.2459,7.1688,7.1248,7.1101,6.9743,6.9009,6.8898,6.8274,6.7981,6.7981,6.721,6.6696,6.6512,6.6402,6.5521,6.3906,6.1777,6.1043,6.1777,6.409,6.5999,6.7357,6.7173,6.5999,6.3906,6.4383,6.3246,6.0272,6.0199,5.9208,5.7005,5.7666,5.7152,5.4987,5.3995,5.2564,0.0,4.8196,0.0,0.0,0.0,0.0,0.0,0.0,0.0,0.0,5.4874,5.5593,5.5856,6.0182,6.3057,6.3362,6.4647,6.6542,6.918,6.9519,7.0331,7.2259,7.3105,7.3206,7.2462,7.2394,7.2157,7.1515,7.1379,7.1312,7.1447,7.1244,7.0669,7.0161,6.9282,6.847,6.7963,6.6576,6.5561,6.5696,6.6779,6.7996,6.8808,6.962,7.0432,7.1176,7.1312,7.1312,7.1312,7.1312,7.1312,7.1312,7.1312,7.1312,7.1312,7.1312,7.1278,7.121,7.1244,7.1312,9.251,9.1987,9.1326,9.0629,8.9748,8.8169,8.7655,8.7839,8.5894,8.3875,8.1856,8.0755,7.8809,7.635,7.5506,7.4258,7.2716,7.2569,7.2532,7.2496,7.1688,7.0954,7.033,7.0,6.9522,6.8972,6.9412,6.9633,6.9633,6.8862,6.7797,6.6512,6.5852,6.4714,6.3099,0.0,0.0,0.0,6.4383,6.5448,6.5705,6.442,6.3209,6.2108,6.1594,0.0,5.8621,5.9098,5.8621,5.7005,5.818,0.0,0.0,0.0,0.0,0.0,0.0,0.0,0.0,0.0,0.0,0.0,6.0958,5.9343,5.5897,5.8234,6.0699,6.2527,6.4715,6.6745,6.8538,6.9519,7.05,7.1616,7.1751,7.2191,7.3172,7.3409,7.3206,7.2496,7.2394,7.236,7.2157,7.1684,7.1548,7.1988,7.1684,7.1041,7.0297,6.9045,6.8132,6.7793,6.6068,6.485,6.4816,6.6068,6.7354,6.8064,6.9316,7.0398,7.1142,7.1345,7.1312,7.1312,7.1312,7.1345,7.1312,7.1312,7.1312,7.1312,7.1312,7.1312,7.1312,7.1312,7.1312,9.2765,0.0,9.1542,9.0739,0.0,8.828,8.7619,8.7472,8.549,8.3251,8.0901,7.9286,7.7414,7.5469,7.5102,7.4037,7.2532,7.2532,7.2532,7.2459,7.1688,7.1101,7.066,7.0293,6.9889,6.9522,6.9889,7.011,7.0073,6.9706,6.9082,6.8274,6.7871,6.7247,6.6439,6.6402,6.5632,6.4053,6.4897,6.5668,6.6402,6.5668,6.4457,6.2915,0.0,0.0,0.0,0.0,0.0,0.0,0.0,0.0,0.0,0.0,0.0,5.9832,6.0896,6.2254,6.3833,6.4714,6.6219,6.8568,6.8783,6.6848,6.2399,6.4308,6.5936,6.6829,6.847,6.9891,7.0669,7.1413,7.2157,7.2834,7.2935,7.3105,7.3443,7.3815,7.3578,7.2665,7.2699,7.2699,7.1954,7.1921,7.1819,7.1853,7.1582,7.1176,7.0669,6.9113,6.7523,6.6034,6.5256,6.4478,6.4309,6.5662,6.7083,6.7861,6.918,7.0364,7.121,7.1616,7.1751,7.1447,7.1582,7.1751,7.1379,7.1312,7.1312,7.1312,7.1312,7.1312,7.1312,7.1312,7.1312,9.2987,9.2923,9.1864,9.0922,9.0041,8.8316,8.6958,8.5857,0.0,0.0,0.0,7.8222,7.6423,7.4918,7.4918,7.4037,7.2532,7.2532,7.2532,7.2459,7.1835,7.1468,7.1284,7.077,7.044,7.033,7.0477,7.0513,7.0513,7.0367,7.033,7.0293,7.0183,7.011,7.011,7.011,6.8788,6.6292,6.5888,6.6366,6.7614,6.7393,6.6329,6.4347,6.5448,6.4787,6.2181,6.3356,6.3135,6.1227,6.2108,6.2071,6.0896,6.3686,6.5411,6.5705,6.8201,7.0477,7.2055,7.2789,7.3854,7.5432,7.4397,7.243,6.9562,7.0037,7.0289,6.9688,7.1244,7.1954,7.1379,7.1853,7.2496,7.324,7.3172,7.3206,7.3646,7.4086,7.3883,7.2902,7.324,7.3206,7.2022,7.2259,7.2394,7.1853,7.1684,7.1278,7.0737,6.8977,6.6643,6.414,6.3802,6.3937,6.3802,6.5324,6.6914,6.759,6.918,7.0567,7.121,7.1921,7.2056,7.1413,7.1921,7.1988,7.1481,7.1312,7.1312,7.1312,7.1312,7.1345,7.1481,7.1413,7.1312,9.2987,9.2811,9.0615,8.9271,8.8353,8.6077,8.3875,8.1856,8.1599,8.0131,7.7818,7.7488,7.6423,7.4918,7.4918,7.4037,7.2532,7.2532,7.2532,0.0,7.2386,7.1982,7.1358,7.1908,7.1798,7.1248,7.1835,7.2165,7.2092,7.1468,7.1138,7.1064,7.044,7.011,7.011,7.011,6.9853,6.9412,6.8054,6.7467,6.765,6.6366,6.5485,6.5154,6.4751,6.4273,6.3759,6.4016,6.3943,6.3649,6.5632,6.6733,6.6623,6.8862,7.0624,7.1284,7.2386,7.3707,7.5285,7.5542,7.6313,7.7719,7.5851,7.4047,7.3206,7.2091,7.1575,7.1898,7.165,7.1447,7.1345,7.1413,7.1819,7.2428,7.2022,7.236,7.4153,7.4018,7.368,7.3409,7.3984,7.4153,7.3274,7.3206,7.3206,7.3071,7.2394,7.1548,6.9789,6.803,6.5831,6.3328,6.2618,6.2651,6.3159,6.5019,6.6779,6.6948,6.9383,7.1109,7.1278,7.1921,7.209,7.1447,7.1921,7.2056,7.1447,7.1312,7.1312,7.1312,7.1345,7.1548,7.2022,7.1751,7.1379,9.3387,9.2737,9.0357,8.894,8.7986,8.5159,8.259,8.0424,8.0351,7.947,7.8038,7.7524,7.6423,7.4955,7.4918,7.4037,7.2532,7.2532,7.2532,7.2532,7.2532,7.2312,7.2055,7.2789,7.2973,7.2642,7.2973,7.3156,7.3083,7.2349,7.1982,7.1945,7.1578,7.1394,7.1394,7.1394,7.1394,7.1358,6.9816,6.8972,6.8972,6.8274,6.7907,6.7907,6.7944,6.8017,6.8017,6.8421,6.8641,6.8641,7.011,7.077,7.0403,7.2606,7.3891,7.3891,7.5432,7.7084,7.8662,7.9176,7.873,7.7255,7.6751,7.5581,7.3448,7.2693,7.2123,7.1808,7.1481,7.1312,7.1312,7.1312,7.1616,7.2326,7.2428,7.3071,7.4322,7.4728,7.4525,7.4255,7.4762,7.4762,7.3612,7.3477,7.3308,7.2935,7.2259,7.1109,6.9417,6.8538,6.7151,6.4783,6.4512,6.458,6.4377,6.6339,6.7827,6.8064,6.9857,7.1142,7.1345,7.1921,7.2022,7.1548,7.1921,7.2056,7.1447,7.1312,7.1312,7.1345,7.1684,7.2022,7.2259,7.209,7.1819,9.3538,9.2492,9.0291,8.8525,8.6848,8.3875,8.1489,7.98,7.9396,7.8883,7.8259,7.7598,7.6533,7.5249,7.4992,7.4147,7.2863,7.2569,7.2606,7.2753,7.2753,7.2863,7.3083,7.3707,7.3964,7.3964,7.3964,7.3891,7.3634,7.3046,7.2679,7.2532,7.2532,7.2532,7.2532,7.2532,7.2532,7.2459,7.1431,7.0807,7.066,7.0807,7.0881,7.0954,7.1688,7.2129,7.2165,7.2716,7.3046,7.3083,7.4001,7.4221,7.3744,7.5542,7.6387,7.5983,7.7524,7.9213,8.0571,8.1305,8.0107,7.6722,7.7519,7.6759,7.3786,7.3317,7.2673,7.1558,7.1515,7.1582,7.1616,7.1751,7.209,7.2834,7.3206,7.3815,7.4728,7.5236,7.527,7.4762,7.5236,7.5168,7.4119,7.3883,7.368,7.2868,7.1887,7.0838,6.9823,6.9586,6.8741,6.7387,6.6812,6.6474,6.617,6.7624,6.8842,6.9113,7.0331,7.1109,7.1447,7.1921,7.2056,7.1582,7.1921,7.2022,7.1515,7.1312,7.1312,7.1345,7.1684,7.2056,7.2056,7.2259,7.2124,9.3197,9.1562,8.999,8.7137,8.3765,8.1269,8.0057,7.9617,7.8259,7.7524,7.7488,7.7341,7.6827,7.5946,7.5249,7.4441,7.356,7.2826,7.2936,7.3523,7.3597,7.3964,7.4551,7.4771,7.4808,7.4808,7.4771,7.4478,7.3854,7.3634,7.323,7.2569,7.2532,7.2532,7.2532,7.2532,7.2532,7.2532,7.3046,7.301,7.2386,7.301,7.3377,7.3377,7.4111,7.4588,7.4441,7.4661,7.4661,7.4808,7.6093,7.69,7.69,7.7818,7.8295,7.8222,7.8479,7.8993,7.98,7.9947,7.9486,7.8167,7.8027,7.7183,7.4976,7.4756,7.3774,7.2055,7.1954,7.2293,7.236,7.2834,7.3409,7.3984,7.3781,7.4018,7.5168,7.5067,7.4661,7.4627,7.5303,7.5371,7.4661,7.4762,7.4661,7.3206,7.2022,7.121,7.0973,7.0872,7.0635,6.9519,6.8267,6.7083,6.7049,6.803,6.9147,6.935,7.0331,7.1142,7.1447,7.1819,7.2191,7.1582,7.1819,7.1988,7.1582,7.1312,7.1312,7.1345,7.1447,7.1515,7.1515,7.1954,7.2056,9.3245,9.0846,8.922,8.6301,8.2692,8.1085,8.0241,7.969,7.8589,7.7818,7.7341,7.7341,7.6864,7.6093,7.5726,7.5175,7.4404,7.4074,7.4111,7.4404,7.4404,7.4588,7.4918,7.5395,7.5616,7.5616,7.5616,7.5432,7.4992,7.4147,7.3523,7.3193,7.2753,7.2716,7.3156,7.3193,7.2973,7.2569,7.3303,7.3523,7.334,7.4001,7.4184,7.3817,7.4478,7.4918,7.4918,7.4918,7.4918,7.4955,7.5983,7.6827,7.7304,7.7671,7.8295,7.925,8.0204,8.0461,7.9837,8.0515,7.9935,7.7441,7.7496,7.6698,7.4385,7.4513,7.4105,7.2925,7.2868,7.3037,7.3071,7.3308,7.3612,7.3916,7.4052,7.4424,7.4931,7.5202,7.527,7.527,7.5506,7.5405,7.4695,7.4086,7.3341,7.2394,7.1616,7.1345,7.1312,7.1312,7.1176,7.0838,6.9992,6.9383,6.8977,6.9654,7.0263,7.05,7.0872,7.1312,7.1379,7.1481,7.1616,7.1345,7.1616,7.1718,7.1413,7.1312,7.1312,7.1345,7.1751,7.1954,7.1954,7.2191,7.2056,9.2999,9.0018,8.7562,8.4854,8.215,8.1085,8.0351,7.9653,7.8699,7.7892,7.7341,7.7341,7.6974,7.646,7.6203,7.5763,7.5249,7.5028,7.5028,7.5212,7.5249,7.5359,7.5616,7.6166,7.6423,7.6423,7.6423,7.6313,7.5983,7.4735,7.3927,7.367,7.334,7.334,7.367,7.3891,7.3634,7.2973,7.3634,7.3927,7.3854,7.4698,7.4955,7.4478,7.5139,7.5579,7.5579,7.5579,7.5579,7.5616,7.635,7.7047,7.7635,7.7892,7.8626,7.9984,8.1195,8.1322,8.01,8.098,8.0139,7.7248,7.7143,7.639,7.467,7.4593,7.4627,7.4221,7.4086,7.4086,7.3815,7.3984,7.4086,7.4119,7.4627,7.4897,7.4999,7.5405,7.5676,7.5676,7.5676,7.5439,7.4593,7.3443,7.2326,7.1853,7.1515,7.1312,7.1312,7.1312,7.1312,7.1312,7.1278,7.1041,7.0635,7.0804,7.1278,7.1312,7.1312,7.1312,7.1312,7.1312,7.1312,7.1312,7.1312,7.1312,7.1312,7.1312,7.1312,7.1413,7.1718,7.2056,7.1921,7.209,7.1887,9.2157,8.8753,8.4373,8.2472,8.2039,8.0534,7.9837,7.9617,7.8075,7.7378,7.7341,7.7341,7.7304,7.7157,7.6497,7.6093,7.5946,7.5359,7.5432,7.6019,7.6056,7.646,7.7194,7.7268,7.7231,7.7157,7.7157,7.679,7.6093,7.5285,7.4478,7.3817,7.4368,7.4404,7.4001,7.4551,7.4478,7.3817,7.4441,7.4515,7.4037,7.5249,7.5983,7.6019,7.6754,7.7084,7.7157,7.7194,7.7157,7.7157,7.7928,7.8442,7.8589,7.925,8.0094,8.0828,8.1048,8.0947,8.0658,8.0587,7.9691,7.7767,7.7197,7.6802,7.5594,7.5473,7.5473,7.554,7.5405,7.5202,7.4728,7.4999,7.5371,7.5439,7.554,7.5574,7.5608,7.5608,7.5676,7.5676,7.5642,7.527,7.4593,7.3308,7.2597,7.2259,7.1785,7.1413,7.1413,7.1379,7.1379,7.1312,7.1312,7.1278,7.1244,7.1244,7.1278,7.1312,7.1312,7.1312,7.1312,7.1312,7.1312,7.1312,7.1312,7.1312,7.1312,7.1312,7.1312,7.1345,7.1345,7.1515,7.1616,7.1447,7.1345,9.0711,8.6743,8.3508,8.1893,8.1305,8.0241,7.9507,7.8956,7.7818,7.7341,7.7341,7.7341,7.7341,7.7304,7.7011,7.69,7.6864,7.657,7.6607,7.6864,7.6864,7.7047,7.7268,7.7341,7.7341,7.7341,7.7304,7.69,7.6166,7.5799,7.5542,7.5212,7.4992,7.4992,7.5249,7.5506,7.5285,7.4625,7.5249,7.5506,7.5249,7.5799,7.6313,7.6864,7.7157,7.7341,7.7341,7.7341,7.7341,7.7341,7.8148,7.8846,7.9433,8.0608,8.1195,8.1085,8.1489,8.1725,8.1506,8.0366,7.9302,7.8494,7.7016,7.6173,7.5771,7.5676,7.5676,7.5676,7.5676,7.554,7.5439,7.5574,7.5676,7.5676,7.5676,7.5676,7.5676,7.5676,7.5676,7.5642,7.5337,7.4728,7.4119,7.3409,7.3105,7.3071,7.2868,7.2496,7.2124,7.2022,7.1887,7.1447,7.1312,7.1312,7.1312,7.1312,7.1312,7.1312,7.1312,7.1312,7.1312,7.1312,7.1312,7.1312,7.1312,7.1312,7.1312,7.1312,7.1312,7.1312,7.1312,7.1312,7.1312,7.1312,7.1312,8.9263,8.5508,8.3139,8.1893,8.1269,8.0241,7.9507,7.8846,7.7818,7.7341,7.7341,7.7341,7.7341,7.7341,7.7341,7.7341,7.7341,7.7304,7.7341,7.7341,7.7341,7.7341,7.7341,7.7341,7.7341,7.7341,7.7341,7.7011,7.657,7.6497,7.635,7.6056,7.5763,7.5799,7.6093,7.635,7.6093,7.5579,7.5836,7.6093,7.613,7.613,7.6497,7.7231,7.7598,7.7745,7.7708,7.7745,7.7892,7.8185,7.8919,7.9874,8.0938,8.2003,8.237,8.1929,8.2296,8.2105,8.1196,7.9768,7.8659,7.7907,7.6599,7.5676,7.5676,7.5676,7.5676,7.5676,7.5676,7.5676,7.5676,7.5676,7.5676,7.5676,7.5676,7.5676,7.5676,7.5676,7.5676,7.5608,7.51,7.4458,7.395,7.3646,7.3477,7.3477,7.3477,7.324,7.2868,7.2732,7.2496,7.1819,7.1718,7.1582,7.1413,7.1312,7.1312,7.1312,7.1312,7.1312,7.1312,7.1312,7.1312,7.1312,7.1312,7.1312,7.1312,7.1312,7.1312,7.1312,7.1312,7.1312,7.1312,7.1312,7.1312,8.7714,8.5221,8.3126,8.2242,8.1875,8.0451,7.9764,7.936,7.8002,7.7341,7.7341,7.7341,7.7341,7.7341,7.7341,7.7341,7.7341,7.7341,7.7341,7.7341,7.7341,7.7341,7.7341,7.7341,7.7341,7.7341,7.7341,7.7304,7.7231,7.7194,7.6864,7.6387,7.6864,7.6754,7.6166,7.6827,7.6864,7.6313,7.6203,7.6203,7.613,7.6203,7.6607,7.7414,7.8112,7.8552,7.8662,7.8626,7.8919,7.9617,8.0424,8.1709,8.2847,8.3214,8.3287,8.3214,8.3258,8.1886,7.9679,7.9063,7.7907,7.6599,7.5771,7.5676,7.5676,7.5676,7.5676,7.5676,7.5676,7.5676,7.5676,7.5676,7.5676,7.5676,7.5676,7.5676,7.5676,7.5676,7.5676,7.554,7.5067,7.4661,7.4458,7.4153,7.3815,7.3781,7.3781,7.3713,7.3544,7.3477,7.3172,7.2563,7.2191,7.1954,7.1616,7.1312,7.1312,7.1312,7.1312,7.1312,7.1312,7.1312,7.1312,7.1312,7.1312,7.1312,7.1312,7.1312,7.1312,7.1312,7.1312,7.1312,7.1312,7.1312,7.1312,8.6729,8.4544,8.3358,8.2579,8.1926,8.0419,7.9507,7.8883,7.7781,7.7341,7.7341,7.7341,7.7341,7.7341,7.7341,7.7341,7.7341,7.7341,7.7341,7.7341,7.7341,7.7341,7.7341,7.7341,7.7341,7.7341,7.7341,7.7341,7.7341,7.7341,7.7157,7.7047,7.7194,7.7194,7.7011,7.7194,7.7157,7.7011,7.6937,7.6937,7.6937,7.6974,7.7341,7.8112,7.8479,7.9066,8.0131,7.9727,7.9543,7.9837,8.0571,8.1746,8.2994,8.2884,8.2847,8.3184,8.213,8.1237,8.0179,7.874,7.765,7.6747,7.6114,7.5771,7.5676,7.5676,7.5676,7.5676,7.5676,7.5676,7.5676,7.5676,7.5676,7.5676,7.5676,7.5676,7.5676,7.5676,7.5473,7.51,7.5168,7.5134,7.483,7.4627,7.4864,7.4897,7.4897,7.4796,7.439,7.4255,7.3713,7.2732,7.2496,7.2259,7.1785,7.1413,7.1312,7.1312,7.1312,7.1312,7.1312,7.1312,7.1312,7.1312,7.1312,7.1312,7.1312,7.1312,7.1312,7.1312,7.1312,7.1312,7.1312,7.1312,7.1312,8.6343,8.4205,8.3488,8.2756,8.1941,8.0725,7.9764,7.8993,7.8148,7.7635,7.7378,7.7341,7.7341,7.7341,7.7341,7.7524,7.7745,7.7488,7.7488,7.7671,7.7414,7.7341,7.7341,7.7341,7.7341,7.7341,7.7341,7.7341,7.7341,7.7341,7.7488,7.7708,7.7488,7.7708,7.8112,7.7928,7.7892,7.8185,7.8259,7.8259,7.8259,7.8222,7.8479,7.8993,7.9323,8.0021,8.0901,8.0755,8.0681,8.0828,8.1452,8.2517,8.3691,8.3691,8.3765,8.3851,8.2928,8.1708,8.0534,7.8917,7.7511,7.6837,7.6114,7.5676,7.5676,7.5676,7.5676,7.5676,7.5676,7.5676,7.5676,7.5676,7.5676,7.5676,7.5676,7.5676,7.5676,7.5676,7.554,7.5303,7.5439,7.5405,7.5303,7.5337,7.5676,7.5676,7.5676,7.5642,7.5134,7.5033,7.4221,7.3477,7.3105,7.2631,7.1921,7.1582,7.1345,7.1312,7.1312,7.1312,7.1312,7.1312,7.1312,7.1312,7.1312,7.1312,7.1312,7.1312,7.1312,7.1312,7.1312,7.1312,7.1312,7.1312,7.1312,8.6387,8.4254,8.3543,8.2935,8.2223,8.1296,8.0461,7.969,7.8993,7.8222,7.7598,7.7524,7.7488,7.7414,7.7524,7.7892,7.8369,7.8002,7.8038,7.8332,7.8038,7.7671,7.7561,7.7671,7.7781,7.7671,7.7635,7.7598,7.7745,7.7745,7.7855,7.8516,7.8075,7.8222,7.9176,7.8993,7.8956,7.947,7.9617,7.9617,7.9617,7.9653,7.9764,7.9837,8.0461,8.0938,8.1195,8.1672,8.2039,8.226,8.2774,8.3581,8.4499,8.5306,8.5416,8.549,8.4908,8.2794,8.0741,7.9233,7.8033,7.6488,7.6143,7.5811,7.6048,7.6115,7.6115,7.6082,7.6048,7.5946,7.5879,7.598,7.5946,7.5811,7.5777,7.5709,7.5676,7.5676,7.5608,7.5642,7.5676,7.5676,7.5608,7.5676,7.5676,7.5676,7.5676,7.5642,7.5608,7.5405,7.527,7.4627,7.3781,7.3037,7.2326,7.1921,7.165,7.1312,7.1312,7.1312,7.1312,7.1312,7.1312,7.1312,7.1312,7.1312,7.1312,7.1312,7.1312,7.1312,7.1312,7.1312,7.1312,7.1312,7.1312,8.7006,8.4866,8.4228,8.3543,8.2765,8.1586,8.0534,7.98,7.958,7.9029,7.8369,7.8259,7.8222,7.8259,7.8222,7.8405,7.8626,7.8956,7.9213,7.9396,7.9286,7.8772,7.8516,7.8846,7.9103,7.9066,7.8956,7.914,7.914,7.8993,7.9213,7.947,7.9213,7.9286,7.969,7.9617,7.958,7.9764,7.98,7.9837,7.9874,7.9874,8.0094,8.0681,8.0901,8.1342,8.1782,8.2076,8.2186,8.226,8.2994,8.3765,8.4572,8.4939,8.5343,8.5463,8.3588,8.2013,8.0954,7.9371,7.8032,7.7561,7.7232,7.7367,7.7401,7.7367,7.7401,7.7401,7.7367,7.7096,7.6792,7.7029,7.7063,7.6589,7.6183,7.5777,7.5709,7.5676,7.5676,7.5676,7.5709,7.5743,7.5709,7.5743,7.5743,7.5709,7.5676,7.5676,7.5676,7.5676,7.5439,7.4931,7.4221,7.3477,7.2834,7.2394,7.1954,7.1447,7.1312,7.1312,7.1312,7.1312,7.1312,7.1312,7.1312,7.1312,7.1312,7.1312,7.1312,7.1312,7.1312,7.1312,7.1312,7.1312,7.1312,8.7273,8.5079,8.4467,8.3772,8.3095,8.2018,8.1048,8.0388,8.0277,7.9837,7.9213,7.9103,7.8919,7.8626,7.8956,7.9066,7.9176,7.958,7.9947,8.0277,8.0277,7.9837,7.9396,7.9617,7.98,7.98,7.98,7.9764,7.9727,7.98,7.9947,8.0167,7.9947,8.0131,8.0828,8.0424,8.0498,8.0755,8.0791,8.0791,8.0791,8.0791,8.1012,8.1452,8.1525,8.1893,8.259,8.27,8.27,8.2884,8.3471,8.4278,8.5013,8.5453,8.582,8.6192,8.3871,8.2388,8.1542,7.9865,7.849,7.8138,7.801,7.801,7.7942,7.801,7.801,7.7942,7.801,7.7773,7.7536,7.7739,7.7773,7.7401,7.6927,7.6386,7.5845,7.5676,7.5676,7.5743,7.598,7.6048,7.5811,7.598,7.598,7.5811,7.5676,7.5676,7.5676,7.5676,7.5574,7.5168,7.4728,7.4086,7.3409,7.2902,7.2259,7.1718,7.1312,7.1312,7.1312,7.1312,7.1312,7.1312,7.1312,7.1312,7.1312,7.1312,7.1312,7.1312,7.1312,7.1312,7.1312,7.1312,7.1312,8.7503,8.5194,8.4505,8.3824,8.3132,8.246,8.1672,8.1085,8.1085,8.0681,8.0057,7.991,7.9617,7.8919,7.969,7.991,7.9947,8.0204,8.0571,8.0975,8.1085,8.0755,8.0277,8.0277,8.0314,8.0277,8.0094,8.0167,8.0314,8.0204,8.0461,8.0865,8.0461,8.0828,8.1562,8.1415,8.1562,8.1893,8.1893,8.1893,8.1893,8.1893,8.1929,8.2003,8.2296,8.2737,8.3324,8.3544,8.3581,8.3691,8.4352,8.5013,8.5783,8.6518,8.6921,8.6496,8.4968,8.3415,8.2488,8.0712,7.9239,7.8579,7.8382,7.8213,7.8382,7.8483,7.8483,7.8517,7.8247,7.8382,7.8314,7.8179,7.8044,7.801,7.801,7.7266,7.6352,7.5946,7.5946,7.5946,7.6623,7.6555,7.6284,7.6318,7.6589,7.5777,7.5676,7.5676,7.5676,7.5676,7.5676,7.5574,7.5168,7.4728,7.4052,7.3409,7.2699,7.2022,7.1515,7.1312,7.1312,7.1312,7.1312,7.1312,7.1312,7.1312,7.1312,7.1312,7.1312,7.1312,7.1312,7.1312,7.1312,7.1312,7.1312,8.8883,8.5994,8.4732,8.381,8.3132,8.246,8.1746,8.1085,8.1672,8.1415,8.0865,8.0755,8.0608,8.0424,8.0608,8.0755,8.0791,8.1232,8.1819,8.1893,8.1929,8.1856,8.1636,8.1562,8.1599,8.1599,8.1636,8.1636,8.1599,8.1489,8.1746,8.1819,8.1672,8.1856,8.2076,8.2039,8.2003,8.2186,8.2186,8.2186,8.2186,8.2186,8.2223,8.2296,8.281,8.3544,8.4168,8.4352,8.4646,8.5159,8.5453,8.5673,8.5967,8.6591,8.6995,8.6535,8.5015,8.359,8.3046,8.1332,7.9933,7.9666,7.9532,7.9735,7.9735,7.9634,7.9667,7.9701,7.9735,7.9566,7.9498,7.8585,7.8483,7.8653,7.8416,7.7976,7.757,7.7435,7.7367,7.7435,7.7536,7.7468,7.6758,7.6758,7.6589,7.5912,7.5676,7.5676,7.5676,7.5676,7.5676,7.5676,7.554,7.51,7.4593,7.3781,7.28,7.209,7.1582,7.1312,7.1312,7.1312,7.1312,7.1312,7.1312,7.1312,7.1312,7.1312,7.1312,7.1312,7.1312,7.1312,7.1312,7.1312,7.1312,8.9075,8.5765,8.4656,8.3862,8.3132,8.246,8.1966,8.1672,8.2003,8.1966,8.1636,8.1562,8.1342,8.1085,8.1342,8.1379,8.1232,8.1819,8.2186,8.215,8.215,8.2186,8.2186,8.2186,8.2186,8.2186,8.215,8.2186,8.2186,8.226,8.2333,8.27,8.2443,8.2406,8.259,8.2443,8.2186,8.2186,8.2186,8.2186,8.2186,8.2186,8.248,8.27,8.3251,8.3911,8.5013,8.5159,8.56,8.6151,8.6371,8.6371,8.6407,8.6775,8.6995,8.6679,8.4888,8.367,8.3068,8.1663,8.0141,8.0209,8.0209,8.0209,8.0209,8.0209,8.0209,8.0209,8.0175,8.0175,8.0175,7.9701,7.9329,7.9397,7.9261,7.9025,7.8923,7.845,7.801,7.8077,7.8247,7.7807,7.7435,7.7232,7.6657,7.598,7.5709,7.5676,7.5676,7.5676,7.5676,7.5676,7.5676,7.5439,7.5033,7.4119,7.2834,7.209,7.1447,7.1312,7.1312,7.1312,7.1312,7.1312,7.1312,7.1312,7.1312,7.1312,7.1312,7.1312,7.1312,7.1312,7.1312,7.1312,7.1312,8.9036,8.5613,8.4618,8.39,8.3318,8.2718,8.2517,8.259,8.2443,8.2443,8.2333,8.2296,8.1746,8.1489,8.1856,8.1746,8.1562,8.1782,8.2186,8.2186,8.2186,8.2186,8.2186,8.2186,8.2333,8.2333,8.226,8.2223,8.2406,8.2443,8.292,8.3361,8.2994,8.3104,8.3324,8.2994,8.2627,8.2553,8.2737,8.248,8.2333,8.237,8.2847,8.3471,8.3911,8.4646,8.571,8.604,8.6334,8.7105,8.7178,8.7178,8.7178,8.7031,8.7142,8.7072,8.4996,8.3897,8.3402,8.1767,8.0209,8.0209,8.0209,8.0209,8.0209,8.0209,8.0209,8.0209,8.0209,8.0209,8.0209,8.004,8.0073,8.0141,8.0175,8.0209,7.9972,7.9058,7.8619,7.8551,7.8889,7.8686,7.7942,7.7502,7.6792,7.6149,7.5879,7.5676,7.5676,7.5709,7.5709,7.5676,7.5676,7.5067,7.4559,7.3984,7.2732,7.2124,7.1413,7.1447,7.1413,7.1312,7.1312,7.1312,7.1312,7.1312,7.1312,7.1312,7.1312,7.1312,7.1312,7.1312,7.1312,7.1312,7.1312,9.0071,8.8057,8.5338,8.4148,8.4137,8.3429,8.3544,8.4022,8.3434,8.3214,8.3104,8.2517,8.2186,8.2039,8.2076,8.2076,8.2039,8.226,8.2296,8.2296,8.2296,8.2296,8.2333,8.2223,8.2553,8.2847,8.2663,8.259,8.3104,8.3251,8.3654,8.4205,8.4168,8.4205,8.4278,8.4205,8.3691,8.3361,8.3654,8.3434,8.2774,8.2957,8.3581,8.4352,8.4866,8.5673,8.6481,8.6811,8.7178,8.7876,8.7986,8.8023,8.7949,8.7545,8.7472,8.7157,8.5355,8.4081,8.4176,8.1983,8.0578,8.0209,8.0344,8.0276,8.0276,8.0242,8.0276,8.0209,8.0209,8.0209,8.0209,8.0209,8.0209,8.0209,8.0209,8.0209,8.0107,7.987,7.96,7.9532,7.9667,7.9498,7.8619,7.7841,7.7232,7.6589,7.6115,7.5845,7.5709,7.5709,7.5743,7.5709,7.5676,7.4796,7.3916,7.3308,7.2529,7.2157,7.1718,7.1718,7.165,7.1379,7.1312,7.1515,7.1447,7.1312,7.1312,7.1312,7.1312,7.1312,7.1312,7.1312,7.1312,7.1312,7.1312,9.0071,8.8057,8.53,8.426,8.4286,8.365,8.3875,8.4499,8.4168,8.3801,8.3398,8.2994,8.2553,8.2296,8.2186,8.2406,8.2737,8.281,8.281,8.2847,8.281,8.281,8.27,8.2443,8.303,8.3471,8.3287,8.3251,8.3948,8.4022,8.4462,8.4903,8.4866,8.4792,8.5013,8.4756,8.4462,8.4205,8.4389,8.4315,8.3508,8.3875,8.4425,8.5123,8.56,8.6187,8.6921,8.7509,8.8023,8.8647,8.883,8.905,8.9087,8.8723,8.8243,8.7814,8.6037,8.4895,8.4899,8.288,8.1495,8.1359,8.1325,8.1122,8.0885,8.075,8.0615,8.031,8.0209,8.0209,8.0209,8.0242,8.0209,8.0209,8.0242,8.0276,8.0209,8.0209,8.0209,8.0242,8.0073,7.9667,7.9025,7.8314,7.7739,7.7096,7.642,7.6048,7.5777,7.5709,7.5743,7.5912,7.5879,7.5134,7.4187,7.351,7.2868,7.2394,7.2157,7.2157,7.2225,7.2124,7.2022,7.2022,7.1819,7.1616,7.1312,7.1312,7.1312,7.1312,7.1312,7.1312,7.1312,7.1312,7.1312,9.0532,8.8515,8.6312,8.532,8.5031,8.4606,8.4698,8.4976,8.4939,8.4535,8.3911,8.3544,8.303,8.259,8.2517,8.281,8.3434,8.3508,8.3654,8.3654,8.3654,8.3618,8.3251,8.3141,8.3287,8.3875,8.4278,8.4205,8.4719,8.4829,8.5306,8.571,8.5343,8.5343,8.5783,8.582,8.527,8.4939,8.5233,8.527,8.4939,8.4866,8.5123,8.5783,8.5967,8.6481,8.7288,8.8059,8.8977,8.9711,9.0188,9.0408,9.0593,9.0155,8.935,8.8252,8.6809,8.6096,8.5203,8.3679,8.2171,8.2137,8.234,8.2035,8.1731,8.146,8.1224,8.0615,8.0682,8.0648,8.0615,8.0615,8.0716,8.075,8.0784,8.0648,8.0547,8.0479,8.0378,8.0344,8.0242,7.9803,7.9126,7.8754,7.8179,7.7266,7.6589,7.6183,7.5912,7.5709,7.5777,7.6115,7.6048,7.5473,7.4762,7.4119,7.3544,7.3105,7.2902,7.2868,7.2969,7.3071,7.2868,7.2529,7.2428,7.2191,7.1751,7.1312,7.1312,7.1312,7.1312,7.1312,7.1312,7.1312,7.1312,9.291,9.1959,9.0149,8.8797,8.7689,8.745,8.71,8.6481,8.5857,8.5637,8.5123,8.4058,8.3398,8.3177,8.3141,8.3251,8.3581,8.4058,8.4242,8.4168,8.4352,8.4095,8.3654,8.4132,8.3985,8.4352,8.5013,8.549,8.5637,8.5637,8.604,8.6554,8.6628,8.6738,8.6664,8.6885,8.6995,8.6151,8.6958,8.6958,8.5894,8.5673,8.5747,8.6114,8.6554,8.7325,8.8133,8.894,8.9895,9.1326,9.217,9.2207,9.173,9.1297,9.0255,8.8771,8.7108,8.5762,8.5307,8.377,8.2678,8.2746,8.2712,8.2408,8.2374,8.2171,8.1866,8.1291,8.1663,8.1697,8.1393,8.1731,8.2002,8.2002,8.1832,8.1528,8.1257,8.0818,8.0716,8.0344,8.0209,7.9769,7.9194,7.8957,7.8619,7.7638,7.6826,7.6454,7.6318,7.6352,7.598,7.6284,7.6487,7.598,7.527,7.4661,7.4322,7.3849,7.3781,7.368,7.3781,7.3815,7.3274,7.3003,7.2969,7.2597,7.1921,7.1515,7.1379,7.1379,7.1447,7.1379,7.1312,7.1312,7.1312,9.4407,9.3101,9.1052,8.9621,8.8691,8.8271,8.7413,8.6397,8.5967,8.5527,8.5086,8.4462,8.3838,8.3398,8.2994,8.2994,8.3508,8.4242,8.4315,8.4389,8.4756,8.4829,8.4315,8.4499,8.4609,8.5306,8.5673,8.6004,8.6261,8.6481,8.6738,8.6921,8.7031,8.6958,8.7031,8.7362,8.7105,8.6811,8.7068,8.7142,8.6664,8.6518,8.6885,8.7729,8.7692,8.8353,8.9344,8.9858,9.0922,9.2134,9.2611,9.2721,9.2721,9.2162,9.071,8.8607,8.7797,8.6903,8.5922,8.4421,8.3801,8.3761,8.393,8.42,8.3693,8.2915,8.2374,8.1968,8.2205,8.2205,8.2035,8.2205,8.234,8.2441,8.2644,8.2035,8.1629,8.1359,8.1021,8.0581,8.0141,7.9769,7.9498,7.9464,7.9126,7.8314,7.7671,7.7367,7.7468,7.7807,7.7232,7.6555,7.6657,7.6589,7.5879,7.5202,7.5168,7.4897,7.4897,7.4796,7.4695,7.4492,7.3916,7.3781,7.3883,7.3274,7.2225,7.1887,7.1853,7.1751,7.1582,7.1447,7.1312,7.1312,7.1312,9.5252,9.3908,9.2327,9.1171,9.0196,8.9311,8.7985,8.6443,8.5992,8.5343,8.4682,8.4352,8.3801,8.3251,8.281,8.3104,8.3765,8.4352,8.4535,8.4756,8.5123,8.5343,8.5159,8.5196,8.5637,8.6481,8.6224,8.6261,8.6518,8.6848,8.6958,8.7031,8.7031,8.7031,8.7068,8.7325,8.7399,8.7362,8.7142,8.7068,8.6958,8.6958,8.7766,8.839,8.872,8.905,9.0592,9.1216,9.206,9.3272,9.3345,9.3565,9.3784,9.1994,9.0285,8.8402,8.7374,8.6498,8.5783,8.4896,8.4713,8.4809,8.5012,8.4843,8.4505,8.349,8.278,8.2712,8.3016,8.2949,8.278,8.2847,8.3152,8.3186,8.3118,8.2408,8.1799,8.1629,8.1156,8.0513,8.0141,8.0006,7.9837,8.0006,7.9634,7.8957,7.8517,7.8247,7.8314,7.8585,7.7874,7.6927,7.6758,7.669,7.6014,7.5574,7.5676,7.5676,7.5676,7.5473,7.5067,7.4864,7.4492,7.4525,7.4492,7.3815,7.2732,7.2529,7.2326,7.1853,7.1447,7.1379,7.1312,7.1312,7.1312,9.5196,9.5127,9.5557,9.4704,9.3174,9.195,8.9986,8.7687,8.6414,8.538,8.4535,8.3875,8.3177,8.2737,8.3141,8.3654,8.4462,8.4572,8.5196,8.582,8.6187,8.582,8.5783,8.6004,8.6151,8.5563,8.6114,8.6407,8.6297,8.6811,8.6958,8.7031,8.7031,8.7031,8.7178,8.7435,8.7729,8.7619,8.7288,8.7031,8.7031,8.7142,8.7655,8.828,8.8536,8.9307,9.1583,9.2391,9.3161,9.4666,9.4446,9.3966,9.3331,9.1469,8.9514,8.8002,8.6512,8.5617,8.4961,8.4785,8.4747,8.464,8.4708,8.4877,8.4809,8.464,8.4133,8.3558,8.3795,8.3862,8.3828,8.393,8.4031,8.3964,8.3625,8.2983,8.2408,8.2002,8.1494,8.0547,8.0107,7.9972,7.9904,8.0006,7.9904,7.9228,7.9194,7.8923,7.8382,7.8416,7.7874,7.7232,7.6961,7.6589,7.5912,7.5676,7.5676,7.5676,7.5676,7.5337,7.4931,7.4796,7.4695,7.4322,7.4052,7.368,7.3308,7.2766,7.2225,7.165,7.1312,7.1312,7.1312,7.1312,7.1312,9.4528,9.4528,9.4817,9.4035,9.2467,9.1917,9.0367,8.8228,8.6985,8.5783,8.4572,8.3801,8.3508,8.3618,8.3361,8.3838,8.4609,8.5159,8.549,8.5747,8.6004,8.6151,8.6334,8.6481,8.6664,8.6261,8.6775,8.6958,8.6701,8.6885,8.6958,8.7031,8.7031,8.7031,8.7178,8.7399,8.7545,8.7509,8.7252,8.7068,8.7105,8.7619,8.8353,8.9564,9.0262,9.1069,9.2501,9.3382,9.3822,9.4079,9.4189,9.363,9.2727,9.0684,8.9005,8.7469,8.5953,8.5344,8.4713,8.4674,8.4809,8.5148,8.4979,8.4776,8.5046,8.4911,8.4573,8.437,8.4403,8.437,8.437,8.4403,8.4505,8.4471,8.4133,8.3524,8.2847,8.2306,8.1528,8.0479,8.0141,7.9972,7.9938,7.9904,7.9769,7.96,7.9634,7.9566,7.9025,7.8483,7.8044,7.7502,7.7164,7.6555,7.5845,7.5743,7.5709,7.5676,7.5676,7.5337,7.4999,7.4728,7.4525,7.4086,7.3578,7.3172,7.2834,7.2597,7.2191,7.1751,7.1481,7.1312,7.1312,7.1312,7.1312,9.3764,9.3764,9.3764,9.3251,9.2428,9.192,9.0657,8.8944,8.7831,8.6444,8.4939,8.4389,8.4389,8.4682,8.4499,8.4646,8.5306,8.5637,8.5563,8.582,8.6151,8.6407,8.6444,8.6628,8.6958,8.7031,8.7031,8.6995,8.6921,8.6995,8.7031,8.7031,8.7031,8.7031,8.7142,8.7509,8.7509,8.7178,8.8096,8.7766,8.7766,8.8463,8.9234,9.0445,9.0886,9.1803,9.2794,9.3712,9.4116,9.4042,9.3784,9.2961,9.1668,9.0192,8.8508,8.7056,8.5987,8.5447,8.489,8.4674,8.4877,8.508,8.4911,8.4945,8.5114,8.4945,8.4573,8.4573,8.4606,8.4606,8.4606,8.4606,8.4606,8.4539,8.4403,8.3828,8.2847,8.2171,8.1291,8.0412,8.0209,8.004,8.004,8.004,7.9972,7.987,7.9904,7.987,7.96,7.9058,7.8551,7.7942,7.7299,7.6589,7.5845,7.5777,7.5676,7.5676,7.5642,7.5439,7.5134,7.4796,7.4119,7.3409,7.2935,7.2631,7.2293,7.1988,7.1988,7.1988,7.165,7.1312,7.1312,7.1312,7.1312,9.2987,9.2987,9.2987,9.3349,9.3538,9.233,9.121,9.0184,8.8809,8.7325,8.5967,8.5673,8.56,8.5673,8.549,8.582,8.6297,8.6151,8.6114,8.6554,8.6334,8.6444,8.6701,8.6995,8.7031,8.7031,8.7031,8.7031,8.7031,8.7031,8.7031,8.7031,8.7031,8.7031,8.7178,8.8573,8.85,8.7655,8.9931,8.9638,8.8793,8.9417,9.0298,9.0555,9.1106,9.2024,9.2721,9.4006,9.441,9.4189,9.4153,9.329,9.1903,8.9657,8.7931,8.661,8.5412,8.4887,8.4674,8.464,8.4708,8.4776,8.4674,8.4742,8.4708,8.4606,8.4606,8.4606,8.4606,8.4606,8.4606,8.4606,8.4606,8.4539,8.4403,8.3828,8.2847,8.2002,8.1156,8.0445,8.0276,8.0175,8.0175,8.0175,8.0175,8.0141,8.0175,8.0107,7.9938,7.9261,7.8585,7.7976,7.7232,7.6487,7.5811,7.5743,7.5676,7.5676,7.5608,7.5405,7.4999,7.4458,7.3713,7.2834,7.2428,7.2259,7.1819,7.1379,7.1515,7.1684,7.1548,7.1312,7.1312,7.1222,7.1098,9.2229,9.2229,9.2229,9.2331,9.2492,9.2035,9.1602,9.109,8.9706,8.839,8.7288,8.6371,8.6151,8.6297,8.6187,8.6371,8.6848,8.6885,8.6921,8.6885,8.6628,8.6775,8.6958,8.7031,8.7031,8.7031,8.7031,8.7031,8.7031,8.7031,8.7031,8.7031,8.7178,8.7031,8.7435,8.839,8.861,8.7766,8.9271,9.0115,8.8683,8.9784,9.0702,9.0739,9.1546,9.2134,9.2464,9.3859,9.4373,9.3822,9.3639,9.3258,9.1423,8.8984,8.7712,8.6651,8.5685,8.5384,8.5215,8.5046,8.464,8.4606,8.4606,8.4606,8.4606,8.4606,8.4606,8.4606,8.4606,8.4606,8.4606,8.4606,8.4606,8.4471,8.4167,8.3422,8.2577,8.1866,8.1156,8.0547,8.0209,8.0209,8.0209,8.0209,8.0209,8.0209,8.0209,8.0209,8.0073,7.9025,7.8145,7.7671,7.7029,7.6284,7.5777,7.5676,7.5574,7.5506,7.5473,7.5371,7.4864,7.4119,7.3443,7.2597,7.2259,7.1921,7.1582,7.1312,7.1312,7.1312,7.1312,7.1312,7.1312,7.1098,7.0791,9.1803,9.1803,9.1803,9.1803,9.1803,9.1803,9.1803,9.162,9.0665,8.9784,8.894,8.7912,8.7582,8.7692,8.7399,8.6921,8.7472,8.7399,8.7105,8.7105,8.6995,8.6995,8.6995,8.7031,8.7031,8.7031,8.7031,8.7031,8.7031,8.7031,8.7031,8.7142,8.7545,8.7986,8.8463,8.9234,8.9968,8.9821,9.1253,9.1767,9.0665,9.0702,9.1363,9.1436,9.184,9.2354,9.2501,9.3125,9.4006,9.3015,9.2793,9.2819,9.0773,8.9019,8.7748,8.6622,8.5719,8.5424,8.5148,8.4945,8.464,8.4606,8.4606,8.4606,8.4606,8.4606,8.4606,8.4606,8.4606,8.4606,8.4606,8.4606,8.4573,8.4437,8.4167,8.3456,8.2543,8.1866,8.1257,8.0648,8.0209,8.0209,8.0209,8.0209,8.0209,8.0209,8.0209,8.0209,8.0073,7.8957,7.7976,7.757,7.6826,7.598,7.5608,7.5574,7.5473,7.5337,7.5236,7.5168,7.4356,7.3544,7.2969,7.2394,7.1954,7.1582,7.1447,7.1312,7.1312,7.1312,7.1312,7.1312,7.1312,7.0882,7.0263,9.1803,9.1803,9.1803,9.1803,9.1803,9.1803,9.1803,9.1803,9.173,9.1253,9.0555,9.0372,8.9748,8.9307,8.9234,8.861,8.7986,8.7912,8.7545,8.7178,8.7031,8.7031,8.7031,8.7031,8.7031,8.7031,8.7031,8.7031,8.7031,8.7031,8.7031,8.7545,8.85,8.9271,9.0115,9.1033,9.151,9.1693,9.2794,9.2794,9.173,9.2024,9.2134,9.2097,9.2134,9.2207,9.2427,9.3015,9.3198,9.3015,9.3051,9.2337,9.1108,8.9356,8.7818,8.6385,8.5236,8.4954,8.4945,8.4843,8.464,8.4606,8.4606,8.4606,8.4606,8.4606,8.4606,8.4606,8.4606,8.4606,8.4606,8.4606,8.4606,8.4539,8.4471,8.3659,8.2678,8.1968,8.1359,8.0818,8.0344,8.0209,8.0209,8.0209,8.0209,8.0209,8.0209,8.0209,7.9904,7.8855,7.8044,7.7739,7.686,7.5642,7.5405,7.5506,7.5506,7.5405,7.4931,7.4661,7.3815,7.3138,7.2665,7.2157,7.1616,7.1312,7.1312,7.1312,7.1312,7.1312,7.1098,7.1098,7.1098,7.0136,6.9442,9.1803,9.1803,9.1803,9.1803,9.1803,9.1803,9.1803,9.1803,9.1803,9.162,9.14,9.0849,9.0225,8.9417,8.8793,8.8133,8.7655,8.7325,8.7215,8.7068,8.7031,8.7031,8.7031,8.7031,8.7031,8.7031,8.7031,8.7031,8.7031,8.7031,8.7766,8.8757,8.9307,9.0592,9.2134,9.3308,9.2794,9.2794,9.4116,9.3492,9.2464,9.2244,9.2317,9.2427,9.2391,9.2391,9.2648,9.3235,9.3235,9.2427,9.2831,9.2533,9.1653,8.9534,8.7597,8.6131,8.5187,8.4843,8.5215,8.4911,8.4606,8.4606,8.4606,8.4606,8.4606,8.4606,8.4606,8.4606,8.4606,8.4606,8.4606,8.4606,8.4539,8.4403,8.4167,8.3456,8.2509,8.1799,8.119,8.0648,8.0209,8.0209,8.0209,8.0209,8.0209,8.0209,8.0209,8.0209,7.9769,7.8754,7.8111,7.7841,7.6826,7.5608,7.5473,7.5608,7.5574,7.5439,7.483,7.4289,7.3713,7.3071,7.2462,7.1954,7.1447,7.1312,7.1312,7.1312,7.1312,7.0791,7.0574,7.0791,7.0666,6.931,6.8307,9.1425,9.0812,9.0482,9.0555,9.0922,9.151,9.1803,9.1803,9.1803,9.1803,9.173,9.1326,9.0445,8.9454,8.8904,8.8169,8.7105,8.7105,8.7031,8.7031,8.7031,8.7031,8.7031,8.7031,8.7031,8.7031,8.7031,8.7031,8.7031,8.7178,8.7802,8.9271,8.9858,9.1913,9.3529,9.4373,9.4446,9.4299,9.4299,9.3859,9.3088,9.2134,9.2244,9.2464,9.2464,9.2354,9.2648,9.3272,9.2684,9.195,9.2464,9.2354,9.1397,8.951,8.7221,8.5752,8.4945,8.4843,8.5012,8.4877,8.4674,8.4606,8.4606,8.4606,8.4606,8.4606,8.4606,8.4606,8.4606,8.4606,8.4606,8.4573,8.437,8.42,8.3625,8.3084,8.234,8.1596,8.0987,8.0412,8.0209,8.0209,8.0209,8.0209,8.0209,8.0209,8.0209,8.0209,7.9701,7.8822,7.8247,7.7942,7.6758,7.5574,7.5608,7.554,7.5439,7.5134,7.439,7.3883,7.3477,7.28,7.1988,7.1616,7.1379,7.1222,7.1098,7.1222,7.1222,7.0482,6.9661,6.9306,6.863,6.7193,6.6511,9.0691,8.9417,8.8573,8.883,8.9601,9.0922,9.162,9.1803,9.1803,9.1803,9.1767,9.1693,9.0739,8.9564,8.905,8.8206,8.7362,8.7031,8.7031,8.7031,8.7031,8.7031,8.7031,8.7031,8.7031,8.7031,8.7031,8.7031,8.7105,8.7509,8.8426,8.9601,9.1253,9.2941,9.4116,9.474,9.474,9.4483,9.452,9.4336,9.3712,9.2758,9.1767,9.1877,9.1546,9.1253,9.1803,9.1987,9.184,9.184,9.1803,9.184,9.0559,8.9221,8.6838,8.5583,8.4781,8.4708,8.4776,8.4674,8.4674,8.4606,8.4606,8.4606,8.4606,8.4606,8.4606,8.4606,8.4606,8.4606,8.4606,8.4606,8.4471,8.4031,8.349,8.2881,8.2238,8.146,8.075,8.0276,8.0209,8.0209,8.0209,8.0209,8.0209,8.0209,8.0209,8.0209,7.9667,7.8855,7.828,7.7908,7.669,7.5642,7.5439,7.5371,7.5236,7.4796,7.4086,7.351,7.3138,7.2326,7.1379,7.1312,7.1312,7.1007,7.0916,7.0791,7.0263,6.925,6.8373,6.7752,6.6662,6.5186,6.5031,8.9776,8.9344,8.8536,8.8683,8.9381,8.9821,9.0739,9.1767,9.1803,9.1767,9.1693,9.1143,9.0408,8.9491,8.883,8.7949,8.7252,8.7031,8.7031,8.7031,8.7031,8.7031,8.7031,8.7031,8.7031,8.7031,8.7031,8.7031,8.7178,8.8096,8.9528,9.1106,9.2391,9.3382,9.3969,9.441,9.4116,9.3712,9.3492,9.3749,9.3675,9.2391,9.1253,9.1877,9.195,9.173,9.2207,9.2648,9.2281,9.1987,9.184,9.0907,8.9135,8.7677,8.6252,8.4995,8.4606,8.4606,8.4606,8.4606,8.4606,8.4606,8.4606,8.4606,8.4606,8.4606,8.4606,8.4606,8.4606,8.4606,8.4606,8.4606,8.4471,8.393,8.3355,8.2712,8.2069,8.1257,8.0479,8.031,8.0209,8.0209,8.0209,8.0209,8.0209,8.0209,8.0209,8.0073,7.9634,7.8957,7.8179,7.7638,7.6555,7.5709,7.5473,7.5303,7.5236,7.4728,7.4052,7.3409,7.2766,7.2022,7.1312,7.1312,7.1222,7.0791,7.0263,6.9727,6.9024,6.8007,6.7068,6.6266,6.4622,6.2963,6.3379,8.9442,8.8753,8.7978,8.8133,8.8867,8.9271,9.0335,9.1546,9.1436,9.1473,9.1657,9.0959,9.0152,8.9344,8.8573,8.7766,8.7105,8.7031,8.7031,8.7031,8.7031,8.7031,8.7031,8.7031,8.7031,8.7031,8.7031,8.7068,8.7215,8.7692,8.8977,9.0702,9.195,9.2648,9.2978,9.2868,9.2464,9.1913,9.1693,9.195,9.2611,9.151,9.0629,9.1326,9.1216,9.1326,9.184,9.2244,9.2244,9.1656,9.1285,8.9641,8.8043,8.6865,8.5887,8.4961,8.4606,8.4606,8.4606,8.4573,8.4573,8.4539,8.4573,8.4573,8.4031,8.4031,8.4336,8.437,8.4573,8.4606,8.4606,8.4606,8.4268,8.3795,8.3016,8.2272,8.1494,8.0682,8.031,8.0242,8.0209,8.0209,8.0209,8.0209,8.0209,8.0209,8.0209,7.9904,7.9464,7.8923,7.8213,7.7401,7.6386,7.5845,7.5642,7.5473,7.5337,7.4728,7.3984,7.3071,7.2293,7.1751,7.1312,7.1098,7.0666,7.0043,6.9537,6.8699,6.7673,6.6574,6.5602,6.4832,6.2914,6.1395,6.1716,8.9045,8.7787,8.7003,8.7142,8.7949,8.872,8.9968,9.1179,9.0886,9.0996,9.1289,9.0445,8.9821,8.9344,8.8426,8.7692,8.7215,8.7068,8.7031,8.7031,8.7031,8.7031,8.7031,8.7031,8.7031,8.7031,8.7031,8.7031,8.7068,8.7766,8.861,8.9307,8.9858,9.0372,9.0959,9.0959,9.0592,9.0335,9.0078,8.9748,9.0005,9.0335,9.0078,8.9711,8.9528,8.9895,9.0702,9.1289,9.1767,9.136,9.0716,8.91,8.7677,8.6707,8.5684,8.4995,8.4606,8.4606,8.4573,8.4403,8.4403,8.4403,8.4437,8.4099,8.3524,8.349,8.3795,8.393,8.4167,8.4268,8.4234,8.42,8.3828,8.3422,8.2577,8.1799,8.0953,8.0276,8.0209,8.0209,8.0209,8.0209,8.0209,8.0209,8.0209,8.0209,8.004,7.9667,7.9261,7.8619,7.7942,7.7198,7.6318,7.5912,7.5709,7.5608,7.5439,7.4728,7.3916,7.28,7.1762,7.0993,7.0574,7.0482,7.0043,6.9024,6.8206,6.7368,6.6259,6.5219,6.4641,6.3873,6.2445,6.1047,6.0636,8.707,8.62,8.5411,8.5527,8.6334,8.7142,8.839,8.9821,9.0372,9.0739,9.0152,8.872,8.8169,8.9307,8.7839,8.7068,8.6921,8.6921,8.7031,8.7031,8.7031,8.7031,8.7031,8.7031,8.7031,8.7031,8.7031,8.7031,8.7105,8.8133,8.894,8.9234,9.0702,9.0629,8.9638,8.9491,8.916,8.883,8.8647,8.8426,8.8059,8.8573,8.9528,8.9564,8.9784,9.0482,9.1179,9.1657,9.1767,9.1435,9.0528,8.9042,8.772,8.6568,8.5683,8.4927,8.4573,8.4471,8.437,8.3964,8.3795,8.3693,8.3524,8.305,8.2678,8.2611,8.2746,8.2678,8.2813,8.2915,8.2949,8.305,8.2813,8.2543,8.1934,8.1257,8.0513,8.0276,8.0209,8.0209,8.0209,8.0209,8.0209,8.0209,8.0209,8.0209,8.0209,7.9803,7.9194,7.8483,7.7739,7.6961,7.6217,7.5912,7.5676,7.5676,7.5439,7.4695,7.3789,7.2582,7.1337,7.0209,6.9727,6.9537,6.8536,6.7266,6.6543,6.6122,6.5111,6.4209,6.3676,6.2889,6.1553,6.0535,5.9997]},{"header":{"parameterUnit":"m.s-1","parameterCategory":1,"la1":31.0,"la2":29.5877,"lo1":-88.7671,"lo2":-86.6584,"dy":0.0162,"dx":0.0185,"nx":115,"ny":88,"refTime":"2025-11-04T12:00:00:Z","depth":0,"parameterNumber":3,"parameterNumberName":"V-component_of_WINDS"},"data":[0.0,0.0,0.0,0.0,0.0,0.0,0.0,0.0,0.0,0.0,0.0,0.0,0.0,0.0,0.0,0.0,0.0,0.0,0.0,0.0,0.0,0.0,0.0,0.0,0.0,0.0,0.0,0.0,0.0,0.0,0.0,0.0,0.0,0.0,0.0,0.0,0.0,0.0,0.0,0.0,0.0,0.0,0.0,0.0,0.0,0.0,0.0,0.0,0.0,0.0,0.0,0.0,0.0,0.0,0.0,0.0,0.0,0.0,0.0,0.0,0.0,0.0,0.0,0.0,0.0,0.0,0.0,0.0,0.0,0.0,0.0,0.0,0.0,0.0,0.0,0.0,0.0,0.0,0.0,0.0,0.0,0.0,0.0,0.0,0.0,0.0,0.0,0.0,0.0,0.0,0.0,0.0,0.0,0.0,0.0,0.0,0.0,0.0,0.0,0.0,0.0,0.0,0.0,0.0,0.0,0.0,0.0,0.0,0.0,0.0,0.0,0.0,0.0,0.0,0.0,0.0,0.0,0.0,0.0,0.0,0.0,0.0,0.0,0.0,0.0,0.0,0.0,0.0,0.0,0.0,0.0,0.0,0.0,0.0,0.0,0.0,0.0,0.0,0.0,0.0,0.0,0.0,0.0,0.0,0.0,0.0,0.0,0.0,0.0,0.0,0.0,0.0,0.0,0.0,0.0,0.0,0.0,0.0,0.0,0.0,0.0,0.0,0.0,0.0,0.0,0.0,0.0,0.0,0.0,0.0,0.0,0.0,0.0,0.0,0.0,0.0,0.0,0.0,0.0,0.0,0.0,0.0,0.0,0.0,0.0,0.0,0.0,0.0,0.0,0.0,0.0,0.0,0.0,0.0,0.0,0.0,0.0,0.0,0.0,0.0,0.0,0.0,0.0,0.0,0.0,0.0,0.0,0.0,0.0,0.0,0.0,0.0,0.0,0.0,0.0,0.0,0.0,0.0,0.0,0.0,0.0,0.0,0.0,0.0,0.0,0.0,0.0,0.0,0.0,0.0,0.0,0.0,0.0,0.0,0.0,0.0,0.0,0.0,0.0,0.0,0.0,0.0,0.0,0.0,0.0,0.0,0.0,0.0,0.0,0.0,0.0,0.0,0.0,0.0,0.0,0.0,0.0,0.0,0.0,0.0,0.0,0.0,0.0,0.0,0.0,0.0,0.0,0.0,0.0,0.0,0.0,0.0,0.0,0.0,0.0,0.0,0.0,0.0,0.0,0.0,0.0,0.0,0.0,0.0,0.0,0.0,0.0,0.0,0.0,0.0,0.0,0.0,0.0,0.0,0.0,0.0,0.0,0.0,0.0,0.0,0.0,0.0,0.0,0.0,0.0,0.0,0.0,0.0,0.0,0.0,0.0,0.0,0.0,0.0,0.0,0.0,0.0,0.0,0.0,0.0,0.0,0.0,0.0,0.0,0.0,0.0,0.0,0.0,0.0,0.0,0.0,0.0,0.0,0.0,0.0,0.0,0.0,0.0,0.0,0.0,0.0,0.0,0.0,0.0,0.0,0.0,0.0,0.0,0.0,0.0,0.0,0.0,0.0,0.0,0.0,0.0,0.0,0.0,0.0,0.0,0.0,0.0,0.0,0.0,0.0,0.0,0.0,0.0,0.0,0.0,0.0,0.0,0.0,0.0,0.0,0.0,0.0,0.0,0.0,0.0,0.0,0.0,0.0,0.0,0.0,0.0,0.0,0.0,0.0,0.0,0.0,0.0,0.0,0.0,0.0,0.0,0.0,0.0,0.0,0.0,0.0,0.0,0.0,0.0,0.0,0.0,0.0,0.0,0.0,0.0,0.0,0.0,0.0,0.0,0.0,0.0,0.0,0.0,0.0,0.0,0.0,0.0,0.0,0.0,0.0,0.0,0.0,0.0,0.0,0.0,0.0,0.0,0.0,0.0,0.0,0.0,0.0,0.0,0.0,0.0,0.0,0.0,0.0,0.0,0.0,0.0,0.0,0.0,0.0,0.0,0.0,0.0,0.0,0.0,0.0,0.0,0.0,0.0,0.0,0.0,0.0,0.0,0.0,0.0,0.0,0.0,0.0,0.0,0.0,0.0,0.0,0.0,0.0,0.0,0.0,0.0,0.0,0.0,0.0,0.0,0.0,0.0,0.0,0.0,0.0,0.0,0.0,0.0,0.0,0.0,0.0,0.0,0.0,0.0,0.0,0.0,0.0,0.0,0.0,0.0,0.0,0.0,0.0,0.0,0.0,0.0,0.0,0.0,0.0,0.0,0.0,0.0,0.0,0.0,0.0,0.0,0.0,0.0,0.0,0.0,0.0,0.0,0.0,0.0,0.0,0.0,0.0,0.0,0.0,0.0,0.0,0.0,0.0,0.0,0.0,0.0,0.0,0.0,0.0,0.0,0.0,0.0,0.0,0.0,0.0,0.0,0.0,0.0,0.0,0.0,0.0,0.0,0.0,0.0,0.0,0.0,0.0,0.0,0.0,0.0,0.0,0.0,0.0,0.0,0.0,0.0,0.0,0.0,0.0,0.0,0.0,0.0,0.0,0.0,0.0,0.0,0.0,0.0,0.0,0.0,0.0,0.0,0.0,0.0,0.0,0.0,0.0,0.0,0.0,0.0,0.0,0.0,0.0,0.0,0.0,0.0,0.0,0.0,0.0,0.0,0.0,0.0,0.0,0.0,0.0,0.0,0.0,0.0,0.0,0.0,0.0,0.0,0.0,0.0,0.0,0.0,0.0,0.0,0.0,0.0,0.0,0.0,0.0,0.0,0.0,0.0,0.0,0.0,0.0,0.0,0.0,0.0,0.0,0.0,0.0,0.0,0.0,0.0,0.0,0.0,0.0,0.0,0.0,0.0,0.0,0.0,0.0,0.0,0.0,0.0,0.0,0.0,0.0,0.0,0.0,0.0,0.0,0.0,0.0,0.0,0.0,0.0,0.0,0.0,0.0,0.0,0.0,0.0,0.0,0.0,0.0,0.0,0.0,0.0,0.0,0.0,0.0,0.0,0.0,0.0,0.0,0.0,0.0,0.0,0.0,0.0,0.0,0.0,0.0,0.0,0.0,0.0,0.0,0.0,0.0,0.0,0.0,0.0,0.0,0.0,0.0,0.0,0.0,0.0,0.0,0.0,0.0,0.0,0.0,0.0,0.0,0.0,0.0,0.0,0.0,0.0,0.0,0.0,0.0,0.0,0.0,0.0,0.0,0.0,0.0,0.0,0.0,0.0,0.0,0.0,0.0,0.0,0.0,0.0,0.0,0.0,0.0,0.0,0.0,0.0,0.0,0.0,0.0,0.0,0.0,0.0,0.0,0.0,0.0,0.0,0.0,0.0,0.0,0.0,0.0,0.0,0.0,0.0,0.0,0.0,0.0,0.0,0.0,0.0,0.0,0.0,0.0,0.0,0.0,0.0,0.0,0.0,0.0,0.0,0.0,0.0,0.0,0.0,0.0,0.0,0.0,0.0,0.0,0.0,0.0,0.0,0.0,0.0,0.0,0.0,0.0,0.0,0.0,0.0,0.0,0.0,0.0,0.0,0.0,0.0,0.0,0.0,0.0,0.0,0.0,0.0,0.0,0.0,0.0,0.0,0.0,0.0,0.0,0.0,0.0,0.0,0.0,0.0,0.0,0.0,0.0,0.0,0.0,0.0,0.0,0.0,0.0,0.0,0.0,0.0,0.0,0.0,0.0,0.0,0.0,0.0,0.0,0.0,0.0,0.0,0.0,0.0,0.0,0.0,0.0,0.0,0.0,0.0,0.0,0.0,0.0,0.0,0.0,0.0,0.0,0.0,0.0,0.0,0.0,0.0,0.0,0.0,0.0,0.0,0.0,0.0,0.0,0.0,0.0,0.0,0.0,0.0,0.0,0.0,0.0,0.0,0.0,0.0,0.0,0.0,0.0,0.0,0.0,0.0,0.0,0.0,0.0,0.0,0.0,0.0,0.0,0.0,0.0,0.0,0.0,0.0,0.0,0.0,0.0,0.0,0.0,0.0,0.0,0.0,0.0,0.0,0.0,0.0,0.0,0.0,0.0,0.0,0.0,0.0,0.0,0.0,0.0,0.0,0.0,0.0,0.0,0.0,0.0,0.0,0.0,0.0,0.0,0.0,0.0,0.0,0.0,0.0,0.0,0.0,0.0,0.0,0.0,0.0,0.0,0.0,0.0,0.0,0.0,0.0,0.0,0.0,0.0,0.0,0.0,0.0,0.0,0.0,0.0,0.0,0.0,0.0,0.0,0.0,0.0,0.0,0.0,0.0,0.0,0.0,0.0,0.0,-1.5458,0.0,0.0,0.0,0.0,0.0,0.0,0.0,0.0,0.0,0.0,0.0,0.0,0.0,0.0,0.0,0.0,0.0,0.0,0.0,0.0,0.0,0.0,0.0,0.0,0.0,0.0,0.0,0.0,0.0,0.0,0.0,0.0,0.0,0.0,0.0,0.0,0.0,0.0,0.0,0.0,0.0,0.0,0.0,0.0,0.0,0.0,0.0,0.0,0.0,0.0,0.0,0.0,0.0,0.0,0.0,0.0,0.0,0.0,0.0,0.0,0.0,0.0,0.0,0.0,0.0,0.0,0.0,0.0,0.0,0.0,0.0,0.0,0.0,0.0,0.0,0.0,0.0,0.0,0.0,0.0,0.0,0.0,0.0,0.0,0.0,0.0,0.0,0.0,0.0,0.0,0.0,0.0,0.0,0.0,0.0,0.0,0.0,0.0,0.0,0.0,0.0,0.0,0.0,0.0,0.0,0.0,0.0,0.0,0.0,0.0,-1.5832,-1.5832,-1.5832,-1.5685,-1.5404,0.0,0.0,0.0,0.0,0.0,0.0,0.0,0.0,0.0,0.0,0.0,0.0,0.0,0.0,0.0,0.0,0.0,0.0,0.0,0.0,0.0,0.0,0.0,0.0,0.0,0.0,0.0,0.0,0.0,0.0,0.0,0.0,0.0,0.0,0.0,0.0,0.0,0.0,0.0,0.0,0.0,0.0,0.0,0.0,0.0,0.0,0.0,0.0,0.0,0.0,0.0,0.0,0.0,0.0,0.0,0.0,0.0,0.0,0.0,0.0,0.0,0.0,0.0,0.0,0.0,0.0,0.0,0.0,0.0,0.0,0.0,0.0,0.0,0.0,0.0,0.0,0.0,0.0,0.0,0.0,0.0,0.0,0.0,0.0,0.0,0.0,0.0,0.0,0.0,0.0,0.0,0.0,0.0,0.0,0.0,0.0,0.0,0.0,0.0,0.0,0.0,0.0,0.0,0.0,0.0,0.0,0.0,0.0,0.0,0.0,0.0,0.0,-1.6126,-1.5965,-1.5605,0.0,0.0,0.0,0.0,0.0,0.0,0.0,0.0,0.0,0.0,0.0,0.0,0.0,0.0,0.0,0.0,0.0,0.0,0.0,0.0,0.0,0.0,0.0,0.0,0.0,0.0,0.0,0.0,0.0,0.0,0.0,0.0,0.0,0.0,0.0,0.0,0.0,0.0,0.0,0.0,0.0,0.0,0.0,0.0,0.0,0.0,0.0,0.0,0.0,0.0,0.0,0.0,0.0,0.0,0.0,0.0,0.0,0.0,0.0,0.0,0.0,0.0,0.0,0.0,0.0,0.0,0.0,0.0,0.0,0.0,0.0,0.0,0.0,0.0,0.0,0.0,0.0,0.0,0.0,0.0,0.0,0.0,0.0,0.0,0.0,0.0,0.0,0.0,0.0,0.0,0.0,0.0,0.0,0.0,0.0,0.0,0.0,0.0,0.0,0.0,0.0,0.0,0.0,0.0,0.0,0.0,0.0,0.0,0.0,0.0,-1.6219,-1.7096,-1.7021,0.0,-1.6233,0.0,0.0,0.0,0.0,0.0,0.0,0.0,0.0,0.0,0.0,0.0,0.0,0.0,0.0,0.0,0.0,0.0,0.0,0.0,0.0,0.0,0.0,0.0,0.0,0.0,0.0,0.0,0.0,0.0,0.0,0.0,0.0,0.0,0.0,0.0,0.0,0.0,0.0,0.0,0.0,0.0,0.0,0.0,0.0,0.0,0.0,0.0,0.0,0.0,0.0,0.0,0.0,0.0,0.0,0.0,0.0,0.0,0.0,0.0,0.0,0.0,0.0,0.0,0.0,0.0,0.0,0.0,0.0,0.0,0.0,0.0,0.0,0.0,0.0,0.0,0.0,0.0,0.0,0.0,0.0,0.0,0.0,0.0,0.0,0.0,0.0,0.0,0.0,0.0,0.0,0.0,0.0,0.0,0.0,0.0,0.0,0.0,0.0,0.0,0.0,0.0,0.0,0.0,0.0,0.0,0.0,0.0,0.0,0.0,0.0,-1.678,-1.7141,-1.6807,-1.6513,0.0,0.0,0.0,0.0,0.0,0.0,0.0,0.0,0.0,0.0,0.0,0.0,0.0,0.0,0.0,0.0,0.0,0.0,0.0,0.0,0.0,0.0,0.0,0.0,0.0,0.0,0.0,0.0,0.0,0.0,0.0,0.0,0.0,0.0,0.0,0.0,0.0,0.0,0.0,0.0,0.0,0.0,0.0,0.0,0.0,0.0,0.0,0.0,0.0,0.0,0.0,0.0,0.0,0.0,0.0,0.0,0.0,0.0,0.0,0.0,0.0,0.0,0.0,0.0,0.0,0.0,0.0,0.0,0.0,0.0,0.0,0.0,0.0,0.0,0.0,0.0,0.0,0.0,0.0,0.0,0.0,0.0,0.0,0.0,0.0,0.0,0.0,0.0,0.0,0.0,0.0,0.0,0.0,0.0,0.0,0.0,0.0,0.0,0.0,0.0,0.0,0.0,0.0,0.0,0.0,0.0,0.0,0.0,0.0,0.0,-1.6874,0.0,-1.7355,-1.7061,-1.662,-1.6059,0.0,0.0,0.0,0.0,0.0,0.0,0.0,0.0,0.0,0.0,0.0,0.0,0.0,0.0,0.0,0.0,0.0,0.0,0.0,0.0,0.0,0.0,0.0,0.0,0.0,0.0,0.0,0.0,0.0,0.0,0.0,0.0,0.0,0.0,0.0,0.0,0.0,0.0,0.0,0.0,0.0,0.0,0.0,0.0,0.0,0.0,0.0,0.0,0.0,0.0,0.0,0.0,0.0,0.0,0.0,0.0,0.0,0.0,0.0,0.0,0.0,0.0,0.0,0.0,0.0,0.0,0.0,0.0,0.0,0.0,0.0,0.0,0.0,0.0,0.0,0.0,0.0,0.0,0.0,0.0,0.0,0.0,0.0,0.0,0.0,0.0,0.0,0.0,0.0,0.0,0.0,0.0,0.0,0.0,0.0,0.0,0.0,0.0,0.0,0.0,0.0,0.0,0.0,0.0,0.0,0.0,0.0,0.0,0.0,-1.7275,-1.7128,-1.7956,-1.8237,-1.7462,0.0,0.0,0.0,0.0,0.0,0.0,0.0,0.0,0.0,0.0,0.0,0.0,0.0,0.0,0.0,0.0,0.0,0.0,0.0,0.0,0.0,0.0,0.0,0.0,0.0,0.0,0.0,0.0,0.0,0.0,0.0,0.0,0.0,0.0,0.0,0.0,0.0,0.0,0.0,0.0,0.0,0.0,0.0,0.0,0.0,0.0,0.0,0.0,0.0,0.0,0.0,0.0,0.0,0.0,0.0,0.0,0.0,0.0,0.0,0.0,0.0,0.0,0.0,0.0,0.0,0.0,0.0,0.0,0.0,0.0,0.0,0.0,0.0,0.0,0.0,0.0,0.0,0.0,0.0,0.0,0.0,0.0,0.0,0.0,0.0,0.0,0.0,0.0,0.0,0.0,0.0,0.0,0.0,0.0,0.0,0.0,0.0,0.0,0.0,0.0,0.0,0.0,0.0,0.0,0.0,0.0,0.0,0.0,0.0,-1.6206,-1.6526,-1.7502,-1.9025,-1.7635,-1.67,0.0,0.0,0.0,0.0,0.0,0.0,0.0,0.0,0.0,0.0,0.0,0.0,0.0,0.0,0.0,0.0,0.0,0.0,0.0,0.0,0.0,0.0,0.0,0.0,0.0,0.0,0.0,0.0,0.0,0.0,0.0,0.0,0.0,0.0,0.0,0.0,0.0,0.0,0.0,0.0,0.0,0.0,0.0,0.0,0.0,0.0,0.0,0.0,0.0,0.0,0.0,0.0,0.0,0.0,0.0,0.0,0.0,0.0,0.0,0.0,0.0,0.0,0.0,0.0,0.0,0.0,0.0,0.0,0.0,0.0,0.0,0.0,0.0,0.0,0.0,0.0,0.0,0.0,0.0,0.0,0.0,0.0,0.0,0.0,0.0,0.0,0.0,0.0,0.0,0.0,0.0,0.0,0.0,0.0,0.0,0.0,0.0,0.0,0.0,0.0,0.0,0.0,0.0,0.0,0.0,0.0,0.0,0.0,0.0,-1.5685,0.0,-1.8023,0.0,-1.7208,-1.6139,0.0,0.0,0.0,0.0,0.0,0.0,0.0,0.0,0.0,0.0,0.0,0.0,0.0,0.0,0.0,0.0,0.0,0.0,0.0,0.0,0.0,0.0,0.0,0.0,0.0,0.0,0.0,0.0,0.0,0.0,0.0,0.0,0.0,0.0,0.0,0.0,0.0,0.0,0.0,0.0,0.0,0.0,0.0,0.0,0.0,0.0,0.0,0.0,0.0,0.0,0.0,0.0,0.0,0.0,0.0,0.0,0.0,0.0,0.0,0.0,0.0,0.0,0.0,0.0,0.0,0.0,0.0,0.0,0.0,0.0,0.0,0.0,0.0,0.0,0.0,0.0,0.0,0.0,0.0,0.0,0.0,0.0,0.0,0.0,0.0,0.0,0.0,0.0,0.0,0.0,0.0,0.0,0.0,0.0,0.0,0.0,0.0,0.0,0.0,0.0,0.0,0.0,0.0,0.0,0.0,0.0,0.0,0.0,0.0,-1.7061,-1.8504,-1.8597,-1.7261,-1.7128,-1.5899,0.0,0.0,0.0,0.0,0.0,0.0,0.0,0.0,0.0,0.0,0.0,0.0,0.0,0.0,0.0,0.0,0.0,0.0,0.0,0.0,0.0,0.0,0.0,0.0,0.0,0.0,0.0,0.0,0.0,0.0,0.0,0.0,0.0,0.0,0.0,0.0,0.0,0.0,0.0,0.0,0.0,0.0,0.0,0.0,0.0,0.0,0.0,0.0,0.0,0.0,0.0,0.0,0.0,0.0,0.0,0.0,0.0,0.0,0.0,0.0,0.0,0.0,0.0,0.0,0.0,0.0,0.0,0.0,0.0,0.0,0.0,0.0,0.0,0.0,0.0,0.0,0.0,0.0,0.0,0.0,0.0,0.0,0.0,0.0,0.0,0.0,0.0,0.0,0.0,0.0,0.0,0.0,0.0,0.0,0.0,0.0,0.0,0.0,0.0,0.0,0.0,0.0,0.0,0.0,0.0,0.0,0.0,0.0,0.0,-1.6259,-1.7488,-1.8317,-1.8597,-1.6901,-1.5845,0.0,0.0,0.0,0.0,0.0,0.0,0.0,0.0,0.0,0.0,0.0,0.0,0.0,0.0,0.0,0.0,0.0,0.0,0.0,0.0,0.0,0.0,0.0,0.0,0.0,0.0,0.0,0.0,0.0,0.0,0.0,0.0,0.0,0.0,0.0,0.0,0.0,0.0,0.0,0.0,0.0,0.0,0.0,0.0,0.0,0.0,0.0,0.0,0.0,0.0,0.0,0.0,0.0,0.0,0.0,0.0,0.0,0.0,0.0,0.0,0.0,0.0,0.0,0.0,0.0,0.0,0.0,0.0,0.0,0.0,0.0,0.0,0.0,0.0,0.0,0.0,0.0,0.0,0.0,0.0,0.0,0.0,0.0,0.0,0.0,0.0,0.0,0.0,0.0,0.0,0.0,0.0,0.0,0.0,0.0,0.0,0.0,0.0,0.0,0.0,0.0,0.0,0.0,0.0,0.0,0.0,0.0,0.0,0.0,-1.7368,-1.8557,-1.9319,-1.9519,-1.7689,-1.65,-1.6046,0.0,0.0,0.0,0.0,0.0,0.0,0.0,0.0,0.0,0.0,0.0,0.0,0.0,0.0,0.0,0.0,0.0,0.0,0.0,0.0,0.0,0.0,0.0,0.0,0.0,0.0,0.0,0.0,0.0,0.0,0.0,0.0,0.0,0.0,0.0,0.0,0.0,0.0,0.0,0.0,0.0,0.0,0.0,0.0,0.0,0.0,0.0,0.0,0.0,0.0,0.0,0.0,0.0,0.0,0.0,0.0,0.0,0.0,0.0,0.0,0.0,0.0,0.0,0.0,0.0,0.0,0.0,0.0,0.0,0.0,0.0,0.0,0.0,0.0,0.0,0.0,0.0,0.0,0.0,0.0,0.0,0.0,0.0,0.0,0.0,0.0,0.0,0.0,0.0,0.0,0.0,0.0,0.0,0.0,0.0,0.0,0.0,0.0,0.0,0.0,0.0,0.0,0.0,0.0,0.0,0.0,0.0,0.0,-1.988,-2.139,-2.1483,-2.008,-1.9305,-1.7756,0.0,0.0,0.0,0.0,0.0,0.0,0.0,0.0,0.0,0.0,0.0,0.0,0.0,0.0,0.0,0.0,0.0,0.0,0.0,0.0,0.0,0.0,0.0,0.0,0.0,0.0,0.0,0.0,0.0,0.0,0.0,0.0,0.0,0.0,0.0,0.0,0.0,0.0,0.0,0.0,0.0,0.0,0.0,0.0,0.0,0.0,0.0,0.0,0.0,0.0,0.0,0.0,0.0,0.0,0.0,0.0,0.0,0.0,0.0,0.0,0.0,0.0,0.0,0.0,0.0,0.0,0.0,0.0,0.0,0.0,0.0,0.0,0.0,0.0,0.0,0.0,0.0,0.0,0.0,0.0,0.0,0.0,0.0,0.0,0.0,0.0,0.0,0.0,0.0,0.0,0.0,0.0,0.0,0.0,0.0,0.0,0.0,0.0,0.0,0.0,0.0,0.0,0.0,0.0,0.0,0.0,0.0,0.0,0.0,-2.1109,-2.338,-2.3901,-2.2418,-2.0361,-1.8611,0.0,0.0,0.0,0.0,0.0,0.0,0.0,0.0,0.0,0.0,0.0,0.0,0.0,0.0,0.0,0.0,0.0,0.0,0.0,0.0,0.0,0.0,0.0,0.0,0.0,0.0,0.0,0.0,0.0,0.0,0.0,0.0,0.0,0.0,0.0,0.0,0.0,0.0,0.0,0.0,0.0,0.0,0.0,0.0,0.0,0.0,0.0,0.0,0.0,0.0,0.0,0.0,0.0,0.0,0.0,0.0,0.0,0.0,0.0,0.0,0.0,0.0,0.0,0.0,0.0,0.0,0.0,0.0,0.0,0.0,0.0,0.0,0.0,0.0,0.0,0.0,0.0,0.0,0.0,0.0,0.0,0.0,0.0,0.0,0.0,0.0,0.0,0.0,0.0,0.0,0.0,0.0,0.0,0.0,0.0,0.0,0.0,0.0,0.0,0.0,0.0,0.0,0.0,0.0,0.0,0.0,0.0,0.0,-2.0388,-2.1911,-2.4756,-2.5665,-2.4462,-2.2352,-2.0321,0.0,0.0,0.0,0.0,0.0,0.0,0.0,0.0,0.0,0.0,0.0,0.0,0.0,0.0,0.0,0.0,0.0,0.0,0.0,0.0,0.0,0.0,0.0,0.0,0.0,0.0,0.0,0.0,0.0,0.0,0.0,0.0,0.0,0.0,0.0,0.0,0.0,0.0,0.0,0.0,0.0,0.0,0.0,0.0,0.0,0.0,0.0,0.0,0.0,0.0,0.0,0.0,0.0,0.0,0.0,0.0,0.0,0.0,0.0,0.0,0.0,0.0,0.0,0.0,0.0,0.0,0.0,0.0,0.0,0.0,0.0,0.0,0.0,0.0,0.0,0.0,0.0,0.0,0.0,0.0,0.0,0.0,0.0,0.0,0.0,0.0,0.0,0.0,0.0,0.0,0.0,0.0,0.0,0.0,0.0,0.0,0.0,0.0,0.0,0.0,0.0,0.0,0.0,0.0,0.0,0.0,0.0,0.0,-2.1309,-2.2512,-2.5531,-2.6747,-2.5959,-2.4516,-2.2258,0.0,0.0,0.0,0.0,0.0,0.0,0.0,0.0,0.0,0.0,0.0,0.0,0.0,0.0,0.0,0.0,0.0,0.0,0.0,0.0,0.0,0.0,0.0,0.0,0.0,0.0,0.0,0.0,0.0,0.0,0.0,0.0,0.0,0.0,0.0,0.0,0.0,0.0,0.0,0.0,0.0,0.0,0.0,0.0,0.0,0.0,0.0,0.0,0.0,0.0,0.0,0.0,0.0,0.0,0.0,0.0,0.0,0.0,0.0,0.0,0.0,0.0,0.0,0.0,0.0,0.0,0.0,0.0,0.0,0.0,0.0,0.0,0.0,0.0,0.0,0.0,0.0,0.0,0.0,0.0,0.0,0.0,0.0,0.0,0.0,0.0,0.0,0.0,0.0,0.0,0.0,0.0,0.0,0.0,0.0,0.0,0.0,0.0,0.0,0.0,0.0,0.0,0.0,0.0,0.0,0.0,0.0,0.0,-2.171,-2.3126,-2.5157,-2.6146,-2.5959,-2.4315,-2.2338,0.0,0.0,0.0,0.0,0.0,0.0,0.0,0.0,0.0,0.0,0.0,0.0,0.0,0.0,0.0,0.0,0.0,0.0,0.0,0.0,0.0,0.0,0.0,0.0,0.0,0.0,0.0,0.0,0.0,0.0,0.0,0.0,0.0,0.0,0.0,0.0,0.0,0.0,0.0,0.0,0.0,0.0,0.0,0.0,0.0,0.0,0.0,0.0,-1.6206,0.0,0.0,0.0,0.0,0.0,0.0,0.0,0.0,0.0,0.0,0.0,0.0,0.0,0.0,0.0,0.0,0.0,0.0,0.0,0.0,0.0,0.0,0.0,0.0,0.0,0.0,0.0,0.0,0.0,0.0,0.0,0.0,0.0,0.0,0.0,0.0,0.0,0.0,0.0,0.0,0.0,0.0,0.0,0.0,0.0,0.0,0.0,0.0,0.0,0.0,0.0,0.0,0.0,0.0,0.0,0.0,0.0,0.0,0.0,-2.1897,-2.3113,-2.497,-2.5758,-2.5331,-2.4422,-2.2846,0.0,0.0,0.0,0.0,0.0,0.0,0.0,0.0,0.0,0.0,0.0,0.0,0.0,0.0,0.0,0.0,0.0,0.0,0.0,0.0,0.0,0.0,0.0,0.0,0.0,0.0,0.0,0.0,0.0,0.0,0.0,0.0,0.0,0.0,0.0,0.0,0.0,0.0,0.0,0.0,0.0,0.0,0.0,0.0,0.0,0.0,0.0,0.0,0.0,0.0,0.0,0.0,0.0,0.0,0.0,0.0,0.0,0.0,0.0,0.0,0.0,0.0,0.0,0.0,0.0,0.0,0.0,0.0,0.0,0.0,0.0,0.0,0.0,0.0,0.0,0.0,0.0,0.0,0.0,0.0,0.0,0.0,0.0,0.0,0.0,0.0,0.0,0.0,0.0,0.0,0.0,0.0,0.0,0.0,0.0,0.0,0.0,0.0,0.0,0.0,0.0,0.0,0.0,0.0,0.0,0.0,0.0,-2.0094,-2.1884,-2.302,-2.4756,-2.5304,-2.4529,-2.4409,-2.314,-2.0575,0.0,0.0,0.0,0.0,0.0,0.0,0.0,0.0,0.0,0.0,0.0,0.0,0.0,0.0,0.0,0.0,0.0,0.0,0.0,0.0,0.0,0.0,0.0,0.0,0.0,0.0,0.0,0.0,0.0,0.0,0.0,0.0,0.0,0.0,0.0,0.0,0.0,0.0,-2.0303,-1.897,0.0,0.0,0.0,0.0,0.0,0.0,0.0,0.0,-1.6973,0.0,0.0,0.0,0.0,0.0,0.0,0.0,0.0,0.0,0.0,0.0,0.0,0.0,0.0,0.0,0.0,0.0,0.0,0.0,0.0,0.0,0.0,0.0,0.0,0.0,0.0,0.0,0.0,0.0,0.0,0.0,0.0,0.0,0.0,0.0,0.0,0.0,0.0,0.0,0.0,0.0,0.0,0.0,0.0,0.0,0.0,0.0,0.0,0.0,0.0,0.0,0.0,0.0,0.0,0.0,0.0,-1.9679,-2.0201,-2.147,-2.3567,-2.4182,-2.4302,-2.3915,-2.342,-2.2031,-1.972,0.0,0.0,0.0,0.0,0.0,0.0,0.0,0.0,0.0,0.0,0.0,0.0,0.0,0.0,0.0,0.0,0.0,0.0,0.0,0.0,0.0,0.0,0.0,0.0,0.0,0.0,0.0,0.0,0.0,0.0,0.0,0.0,0.0,0.0,0.0,0.0,0.0,0.0,0.0,-1.908,-1.7843,0.0,0.0,0.0,0.0,0.0,0.0,0.0,0.0,-1.8904,0.0,0.0,0.0,0.0,0.0,0.0,0.0,0.0,0.0,0.0,0.0,0.0,0.0,0.0,0.0,0.0,0.0,0.0,0.0,0.0,0.0,0.0,0.0,0.0,0.0,0.0,0.0,0.0,0.0,0.0,0.0,0.0,0.0,0.0,0.0,0.0,0.0,0.0,0.0,0.0,0.0,0.0,0.0,0.0,0.0,0.0,0.0,0.0,0.0,0.0,0.0,0.0,0.0,0.0,0.0,-1.9225,-2.0521,-2.1924,-2.3487,-2.3821,-2.3834,-2.3527,-2.2512,-2.1069,0.0,0.0,0.0,0.0,0.0,0.0,0.0,0.0,0.0,0.0,0.0,0.0,0.0,0.0,0.0,0.0,0.0,0.0,0.0,0.0,0.0,0.0,0.0,0.0,0.0,0.0,0.0,0.0,0.0,0.0,0.0,0.0,0.0,0.0,0.0,0.0,0.0,0.0,0.0,0.0,-2.0016,-1.9273,-2.0061,0.0,0.0,0.0,0.0,0.0,0.0,-1.8755,-1.8405,0.0,0.0,0.0,0.0,0.0,0.0,0.0,0.0,0.0,0.0,0.0,0.0,0.0,0.0,0.0,0.0,0.0,0.0,0.0,0.0,0.0,0.0,0.0,0.0,0.0,0.0,0.0,0.0,0.0,0.0,0.0,0.0,0.0,0.0,0.0,0.0,0.0,0.0,0.0,0.0,0.0,0.0,0.0,0.0,0.0,0.0,0.0,0.0,0.0,0.0,0.0,0.0,0.0,0.0,0.0,-1.849,-2.0681,-2.2271,-2.3193,-2.3581,-2.3567,-2.314,-2.1764,-2.0281,0.0,0.0,0.0,0.0,0.0,0.0,0.0,0.0,0.0,0.0,0.0,0.0,0.0,0.0,0.0,0.0,0.0,0.0,0.0,0.0,0.0,0.0,0.0,0.0,0.0,0.0,0.0,0.0,0.0,0.0,0.0,0.0,0.0,0.0,0.0,0.0,0.0,0.0,0.0,0.0,0.0,-2.1038,-2.1862,-2.178,0.0,0.0,0.0,0.0,-1.9821,-1.9014,0.0,0.0,0.0,0.0,0.0,0.0,0.0,0.0,0.0,0.0,0.0,0.0,0.0,0.0,0.0,0.0,0.0,0.0,0.0,0.0,0.0,0.0,0.0,0.0,0.0,0.0,0.0,0.0,0.0,0.0,0.0,0.0,0.0,0.0,0.0,0.0,0.0,0.0,0.0,0.0,0.0,0.0,0.0,0.0,0.0,0.0,0.0,0.0,0.0,0.0,0.0,0.0,0.0,0.0,0.0,0.0,-1.8437,-2.0281,-2.1764,-2.2873,-2.3474,-2.3367,-2.2539,-2.1363,-1.9786,0.0,0.0,0.0,0.0,0.0,0.0,0.0,0.0,0.0,0.0,0.0,0.0,0.0,0.0,0.0,0.0,0.0,0.0,0.0,0.0,0.0,0.0,0.0,0.0,0.0,0.0,0.0,0.0,0.0,0.0,0.0,0.0,0.0,0.0,0.0,0.0,0.0,0.0,0.0,0.0,0.0,-2.1832,-2.1686,-2.1627,-2.1595,0.0,0.0,-2.2245,-2.2125,-2.2256,0.0,0.0,0.0,0.0,0.0,0.0,0.0,0.0,0.0,0.0,0.0,0.0,0.0,0.0,0.0,0.0,0.0,0.0,0.0,0.0,0.0,0.0,0.0,0.0,0.0,0.0,0.0,0.0,0.0,0.0,0.0,0.0,0.0,0.0,0.0,0.0,0.0,0.0,0.0,0.0,0.0,0.0,0.0,0.0,0.0,0.0,0.0,0.0,0.0,0.0,0.0,0.0,0.0,0.0,0.0,-1.6326,-1.8477,-2.0708,-2.2178,-2.2846,-2.3287,-2.3166,-2.2432,-2.0641,-1.9025,0.0,0.0,0.0,0.0,0.0,0.0,0.0,0.0,0.0,0.0,0.0,0.0,0.0,0.0,0.0,0.0,0.0,0.0,0.0,0.0,0.0,0.0,0.0,0.0,0.0,0.0,0.0,0.0,0.0,0.0,0.0,0.0,0.0,0.0,0.0,0.0,0.0,0.0,0.0,0.0,0.0,0.0,-2.2645,-2.2447,0.0,0.0,0.0,-2.2195,-2.1598,0.0,0.0,0.0,0.0,0.0,0.0,0.0,0.0,0.0,0.0,0.0,0.0,0.0,0.0,0.0,0.0,0.0,0.0,0.0,0.0,0.0,0.0,0.0,0.0,0.0,0.0,0.0,0.0,0.0,0.0,0.0,0.0,0.0,0.0,0.0,0.0,0.0,0.0,0.0,0.0,0.0,0.0,0.0,0.0,0.0,0.0,0.0,0.0,0.0,0.0,0.0,0.0,0.0,0.0,0.0,0.0,0.0,-1.849,-2.1162,-2.2645,-2.2873,-2.3233,-2.3073,-2.2298,-2.0388,0.0,0.0,0.0,0.0,0.0,0.0,0.0,0.0,0.0,0.0,0.0,0.0,0.0,0.0,0.0,0.0,0.0,0.0,0.0,0.0,0.0,0.0,0.0,0.0,0.0,0.0,0.0,-1.8184,0.0,0.0,0.0,0.0,0.0,0.0,0.0,0.0,0.0,0.0,0.0,0.0,0.0,0.0,-2.4018,-2.3473,-2.3076,-2.3021,0.0,0.0,-2.2025,-2.1303,-2.1506,-2.1286,0.0,0.0,0.0,0.0,0.0,0.0,0.0,0.0,0.0,0.0,0.0,0.0,0.0,0.0,0.0,0.0,0.0,0.0,0.0,0.0,0.0,0.0,0.0,0.0,0.0,0.0,0.0,0.0,0.0,0.0,0.0,0.0,0.0,0.0,0.0,0.0,0.0,0.0,0.0,0.0,0.0,0.0,0.0,0.0,0.0,0.0,0.0,0.0,0.0,0.0,0.0,0.0,0.0,0.0,0.0,-1.8517,-2.1349,-2.2846,-2.2886,-2.3434,-2.318,-2.2044,-2.1069,-1.9359,0.0,0.0,0.0,0.0,0.0,0.0,0.0,0.0,0.0,0.0,0.0,0.0,0.0,0.0,0.0,0.0,0.0,0.0,0.0,0.0,0.0,0.0,0.0,0.0,0.0,0.0,0.0,0.0,0.0,0.0,0.0,0.0,0.0,0.0,0.0,0.0,0.0,0.0,0.0,0.0,0.0,-2.4471,-2.3881,-2.3315,-2.3171,0.0,0.0,-2.2096,-2.227,-2.2953,-2.3181,-2.1883,0.0,0.0,0.0,0.0,0.0,0.0,0.0,0.0,0.0,0.0,0.0,0.0,0.0,0.0,0.0,0.0,0.0,0.0,0.0,0.0,0.0,0.0,0.0,0.0,0.0,0.0,0.0,0.0,0.0,0.0,0.0,0.0,0.0,0.0,0.0,0.0,0.0,0.0,0.0,0.0,0.0,0.0,0.0,0.0,0.0,0.0,0.0,0.0,0.0,0.0,0.0,0.0,0.0,-1.7061,-1.9025,-2.155,-2.2953,-2.3153,-2.3554,-2.3287,-2.2271,-2.1403,-1.988,0.0,0.0,0.0,0.0,0.0,0.0,0.0,0.0,0.0,0.0,0.0,0.0,0.0,0.0,0.0,0.0,0.0,0.0,0.0,0.0,0.0,0.0,0.0,0.0,0.0,0.0,0.0,0.0,-2.3379,-2.3769,-2.3574,0.0,0.0,0.0,0.0,0.0,0.0,0.0,0.0,0.0,0.0,-2.4134,-2.4774,-2.4094,0.0,0.0,-2.314,-2.2498,-2.2432,-2.2258,-2.1847,-2.1302,-2.0545,0.0,0.0,0.0,0.0,0.0,0.0,0.0,0.0,0.0,0.0,0.0,0.0,0.0,0.0,0.0,0.0,0.0,0.0,0.0,0.0,0.0,0.0,0.0,0.0,0.0,0.0,0.0,0.0,0.0,0.0,0.0,0.0,0.0,0.0,0.0,0.0,0.0,0.0,0.0,0.0,0.0,0.0,0.0,0.0,0.0,0.0,0.0,0.0,0.0,0.0,0.0,0.0,-1.7382,-1.9359,-2.1764,-2.3153,-2.3447,-2.3661,-2.338,-2.2565,-2.179,-2.0494,0.0,0.0,0.0,0.0,0.0,0.0,0.0,0.0,0.0,0.0,0.0,0.0,0.0,0.0,0.0,0.0,0.0,0.0,0.0,0.0,0.0,0.0,0.0,0.0,0.0,0.0,0.0,0.0,-2.4453,-2.4531,-2.3691,0.0,0.0,0.0,0.0,0.0,0.0,0.0,0.0,0.0,0.0,-2.417,-2.4825,-2.419,-2.3776,-2.4327,-2.3557,-2.291,-2.2835,-2.2337,-2.1712,-2.0943,0.0,0.0,0.0,0.0,0.0,0.0,0.0,0.0,0.0,0.0,0.0,0.0,0.0,0.0,0.0,0.0,0.0,0.0,0.0,0.0,0.0,0.0,0.0,0.0,0.0,0.0,0.0,0.0,0.0,0.0,-1.4082,0.0,0.0,0.0,0.0,0.0,0.0,0.0,0.0,0.0,0.0,0.0,0.0,0.0,0.0,0.0,0.0,0.0,0.0,0.0,0.0,0.0,0.0,0.0,-1.9372,-2.1977,-2.3447,-2.3754,-2.3768,-2.3487,-2.2873,-2.2285,-2.1269,-1.9773,0.0,0.0,0.0,0.0,0.0,0.0,0.0,0.0,0.0,0.0,0.0,0.0,0.0,0.0,0.0,0.0,0.0,0.0,0.0,0.0,0.0,0.0,0.0,0.0,0.0,0.0,-2.2559,-2.3672,-2.4062,0.0,0.0,0.0,0.0,0.0,0.0,0.0,0.0,0.0,0.0,-2.4524,-2.496,-2.362,-2.3327,-2.3885,-2.5505,-2.4304,-2.3399,-2.3554,-2.3606,-2.3127,0.0,0.0,0.0,0.0,0.0,0.0,0.0,0.0,0.0,0.0,0.0,0.0,0.0,0.0,0.0,0.0,0.0,0.0,0.0,0.0,0.0,0.0,0.0,0.0,0.0,0.0,0.0,-1.8263,-1.7475,0.0,0.0,0.0,0.0,0.0,0.0,0.0,0.0,0.0,0.0,0.0,-1.9653,-2.004,0.0,0.0,0.0,0.0,0.0,0.0,0.0,0.0,0.0,0.0,0.0,0.0,-1.817,-1.9947,-2.2178,-2.3567,-2.4035,-2.4062,-2.3861,-2.3474,-2.2886,-2.1697,-1.9853,0.0,0.0,0.0,0.0,0.0,0.0,0.0,0.0,0.0,0.0,0.0,0.0,0.0,0.0,0.0,0.0,0.0,0.0,0.0,0.0,0.0,0.0,0.0,0.0,0.0,-2.2773,0.0,0.0,0.0,0.0,0.0,0.0,0.0,0.0,0.0,0.0,0.0,-2.5091,-2.6919,-2.5974,-2.5427,-2.6072,-2.5467,-2.5288,0.0,0.0,0.0,0.0,0.0,0.0,0.0,0.0,0.0,0.0,0.0,0.0,0.0,0.0,-3.1934,-2.7226,-2.6699,-2.6992,-2.6992,0.0,0.0,0.0,0.0,0.0,0.0,0.0,0.0,0.0,0.0,0.0,0.0,0.0,0.0,-2.0828,0.0,-1.9947,0.0,0.0,0.0,0.0,0.0,0.0,0.0,0.0,-2.0815,-2.1537,-2.1617,-2.1991,-2.171,0.0,-2.0468,-1.8731,0.0,0.0,0.0,0.0,0.0,0.0,0.0,0.0,-1.8771,-2.0535,-2.2472,-2.3768,-2.4315,-2.4249,-2.4115,-2.3915,-2.3434,-2.2458,-2.0909,-1.9733,-1.8611,0.0,0.0,0.0,0.0,0.0,0.0,0.0,0.0,0.0,0.0,0.0,0.0,0.0,0.0,0.0,0.0,0.0,0.0,0.0,0.0,0.0,0.0,0.0,-2.3633,0.0,0.0,0.0,0.0,0.0,0.0,0.0,0.0,0.0,-2.7344,-2.7194,-2.7899,-2.9903,-2.8229,-2.7129,-2.7816,0.0,0.0,0.0,0.0,0.0,0.0,0.0,-2.2946,-2.468,-2.6285,-2.8595,-3.2614,-3.4824,-3.582,-3.5254,0.0,0.0,-3.1035,-3.0449,-3.0703,-3.0723,-3.0918,-3.125,-3.168,-3.2441,-3.3047,0.0,0.0,0.0,0.0,0.0,0.0,0.0,0.0,-2.3394,-2.2672,0.0,-2.2098,0.0,0.0,0.0,0.0,0.0,-2.0548,0.0,0.0,-2.4155,-2.4716,-2.3434,-2.3407,-2.3233,-2.2899,-2.2338,-2.1336,-1.9867,-1.8183,0.0,0.0,0.0,0.0,0.0,0.0,-1.9386,-2.1122,-2.2873,-2.4048,-2.4596,-2.4369,-2.4209,-2.4195,-2.3928,-2.3487,-2.2899,-2.2258,-2.1323,-1.9907,-1.7889,0.0,0.0,0.0,0.0,0.0,0.0,0.0,0.0,0.0,0.0,0.0,0.0,0.0,0.0,0.0,0.0,0.0,0.0,0.0,0.0,-2.3672,0.0,0.0,0.0,0.0,0.0,0.0,0.0,0.0,0.0,0.0,-2.9375,-3.0457,-3.1577,-3.1962,0.0,0.0,0.0,0.0,-2.6098,-2.6559,-2.4859,-2.3583,-2.3878,-2.5977,-2.723,-2.6005,0.0,0.0,-3.6538,-3.6484,-3.6094,-3.5137,-3.6816,-3.7637,-3.6367,-3.5059,-3.4277,-3.4219,-3.3711,-3.3242,-3.3574,-3.4551,-3.5078,-2.6881,0.0,0.0,0.0,0.0,-2.5184,-2.6319,-2.8136,-2.7976,-2.7161,-2.5932,-2.5798,0.0,0.0,0.0,0.0,0.0,0.0,-2.2017,-2.2859,-2.4035,-2.469,-2.489,-2.5104,-2.4823,-2.4142,-2.4168,-2.3768,-2.2913,-2.179,-1.9506,-1.6206,0.0,0.0,0.0,0.0,-2.0187,-2.171,-2.3073,-2.4048,-2.4623,-2.4556,-2.4409,-2.4209,-2.4128,-2.3901,-2.3514,-2.2926,-2.2231,-2.1376,-1.9599,0.0,0.0,0.0,0.0,0.0,0.0,0.0,0.0,0.0,0.0,0.0,0.0,0.0,0.0,0.0,0.0,0.0,0.0,0.0,-2.3262,-2.4023,-2.4473,0.0,0.0,0.0,0.0,0.0,0.0,0.0,0.0,0.0,-3.3984,-3.2767,-3.2399,0.0,0.0,-3.0829,-3.1021,-3.0173,-2.9691,-3.0294,-2.8908,0.0,-2.8581,-2.861,-2.9287,-3.1025,-3.5277,-3.8735,-3.9226,-4.0059,-4.041,-3.9824,-4.0254,-4.0469,-3.9805,-3.8906,-3.8125,-3.7832,-3.8027,-3.8086,-3.7734,-3.8476,-3.9082,-2.9961,-2.9125,-2.7388,-2.7188,-2.8016,-2.7923,-2.8925,-3.0595,-3.0368,-2.97,-2.8738,-2.8444,-2.664,-2.3754,-2.2592,0.0,0.0,0.0,-2.3354,-2.4382,-2.4743,-2.5117,-2.5504,-2.5571,-2.5331,-2.4823,-2.4756,-2.4556,-2.4182,-2.318,-2.1243,-1.845,0.0,0.0,-1.8156,-1.9573,-2.0989,-2.2311,-2.3273,-2.4048,-2.4623,-2.4636,-2.4543,-2.4382,-2.4382,-2.4289,-2.4115,-2.3647,-2.318,-2.2699,-2.1229,-1.9653,0.0,0.0,0.0,0.0,0.0,0.0,0.0,0.0,0.0,0.0,0.0,-1.395,0.0,0.0,0.0,0.0,-2.1816,-2.416,-2.5684,-2.6055,0.0,0.0,0.0,0.0,0.0,0.0,0.0,-3.1816,-3.4394,-3.625,-3.6484,-3.5211,-3.4978,-3.6288,-3.4755,-3.3709,-3.4167,0.0,-3.2356,-3.2413,-3.1062,-3.0186,-3.0634,-3.1081,-3.2325,-3.5507,-3.8336,-4.0254,-4.0723,-4.1445,-4.1816,-4.1621,-4.1543,-4.1465,-4.1211,-4.0742,-4.0273,-3.9824,-4.0,-4.0059,-3.957,-4.0117,-4.0508,-3.1326,-3.3961,-2.99,-2.8991,-3.0181,-2.994,-3.0568,-3.1677,-3.1142,-3.0742,-3.0448,-3.0127,-2.8551,-2.6026,-2.4115,0.0,-2.4743,-2.4756,-2.5184,-2.5945,-2.5959,-2.5798,-2.5504,-2.5237,-2.509,-2.5024,-2.4516,-2.4262,-2.4195,-2.3113,-2.2271,-2.1683,-2.0855,-2.0388,-2.0307,-2.0869,-2.175,-2.2886,-2.3447,-2.4035,-2.4609,-2.4636,-2.4623,-2.4596,-2.4596,-2.4583,-2.4516,-2.4275,-2.3995,-2.3688,-2.2605,-2.1336,-1.9907,0.0,0.0,0.0,0.0,0.0,0.0,0.0,0.0,0.0,0.0,0.0,0.0,0.0,0.0,0.0,-2.5177,0.0,-2.9101,-2.9238,0.0,0.0,0.0,-3.1387,-3.3496,-3.4531,-3.5176,-3.5508,0.0,0.0,-3.75,-3.7832,-3.8398,-3.9258,-3.8535,-3.7773,-3.7363,-3.5717,-3.4275,-3.3945,-3.2193,-3.1111,-3.1872,-3.3536,-3.6048,-3.8889,-4.0254,-4.0644,-4.1035,-4.1172,-4.1191,-4.1191,-4.1172,-4.1172,-4.1172,-4.1133,-4.1055,-4.0625,-4.0293,-4.0019,-3.9902,-4.0019,-4.0098,-3.1718,-3.4215,-3.2946,-3.2625,-3.2933,-3.2879,-3.2652,-3.2305,-3.1944,-3.1623,-3.133,-3.0808,-2.9486,-2.7589,-2.6867,-2.6213,-2.5651,-2.5865,-2.5959,-2.5959,-2.5959,-2.5798,-2.5504,-2.5451,-2.517,-2.477,-2.4836,-2.4756,-2.4516,-2.4022,-2.3474,-2.2913,-2.2458,-2.1683,-2.0641,-2.1376,-2.2245,-2.3207,-2.3367,-2.3821,-2.4596,-2.4636,-2.4529,-2.4315,-2.4315,-2.4088,-2.3661,-2.3581,-2.3394,-2.3086,-2.2378,-2.1523,-2.0508,-1.8223,0.0,0.0,0.0,0.0,0.0,0.0,0.0,0.0,0.0,-1.8119,-1.5162,0.0,-2.2395,0.0,-2.6672,-3.0488,-3.1758,-3.1875,0.0,0.0,-3.3965,-3.4355,-3.6172,-3.7422,-3.7812,-3.6934,-3.8281,-3.9277,-3.9277,-3.9375,-3.9746,-4.0547,-3.9101,-3.7773,-3.7363,-3.7197,-3.6989,-3.677,-3.6561,-3.6645,-3.6538,-3.7486,-3.8522,-3.9766,-4.0234,-4.0664,-4.1094,-4.1172,-4.1172,-4.1172,-4.1172,-4.1172,-4.1172,-4.1172,-4.1133,-4.1035,-4.0937,-4.0664,-4.0059,-4.041,-4.0664,-3.2533,-3.4108,-3.3961,-3.3801,-3.3654,-3.34,-3.2853,-3.2158,-3.1971,-3.1744,-3.1423,-3.0715,-2.9566,-2.815,-2.7829,-2.7201,-2.6373,-2.6373,-2.6306,-2.6146,-2.6012,-2.5865,-2.5705,-2.5438,-2.5144,-2.485,-2.4863,-2.4796,-2.4623,-2.4342,-2.4035,-2.3728,-2.3541,-2.2926,-2.1911,-2.1951,-2.2298,-2.2913,-2.3327,-2.3888,-2.4596,-2.4636,-2.4369,-2.3834,-2.3941,-2.3607,-2.2766,-2.2726,-2.2472,-2.1924,-2.1697,-2.1203,-2.0321,-1.8931,-1.7742,0.0,0.0,0.0,0.0,0.0,0.0,0.0,0.0,0.0,0.0,0.0,-2.4833,-2.5883,-3.0386,-3.3457,-3.416,-3.457,-3.5488,-3.7207,-3.7168,-3.7617,-3.9141,-4.0098,-4.0293,-3.9414,-4.0156,-4.0664,-4.0488,-4.0449,-4.0625,-4.1113,-4.0137,-3.9219,-3.8828,-3.8789,-3.873,-3.8535,-3.8379,-3.8281,-3.8281,-3.8809,-3.9355,-3.9824,-4.0254,-4.0664,-4.1094,-4.1172,-4.1172,-4.1172,-4.1172,-4.1172,-4.1172,-4.1172,-4.1172,-4.1172,-4.1172,-4.0996,-4.0566,-4.084,-4.0996,-3.3171,-3.3814,-3.3788,-3.3587,-3.3253,-3.2679,-3.2158,-3.1717,-3.161,-3.1343,-3.0955,-3.0154,-2.9165,-2.8083,-2.7776,-2.7321,-2.676,-2.6507,-2.64,-2.6373,-2.6092,-2.5932,-2.5879,-2.5384,-2.5117,-2.5077,-2.485,-2.4743,-2.4743,-2.4462,-2.4275,-2.4209,-2.4168,-2.3848,-2.326,-2.2485,-2.2218,-2.2485,-2.3327,-2.4022,-2.4516,-2.4449,-2.4022,-2.326,-2.3434,-2.302,-2.1937,-2.1911,-2.155,-2.0748,-2.0989,-2.0802,-2.0013,-1.9653,-1.9132,0.0,-1.7542,0.0,0.0,0.0,0.0,0.0,0.0,0.0,0.0,-2.5588,-2.7869,-3.1924,-3.4746,-3.6406,-3.6582,-3.7324,-3.8418,-3.9941,-4.0137,-4.0605,-4.1719,-4.2207,-4.2266,-4.1836,-4.1797,-4.166,-4.1289,-4.1211,-4.1172,-4.125,-4.1133,-4.0801,-4.0508,-4.0,-3.9531,-3.9238,-3.8437,-3.7851,-3.793,-3.8555,-3.9258,-3.9726,-4.0195,-4.0664,-4.1094,-4.1172,-4.1172,-4.1172,-4.1172,-4.1172,-4.1172,-4.1172,-4.1172,-4.1172,-4.1172,-4.1152,-4.1113,-4.1133,-4.1172,-3.1403,-3.348,-3.324,-3.2986,-3.2666,-3.2091,-3.1904,-3.1971,-3.1263,-3.0528,-2.9793,-2.9392,-2.8684,-2.7789,-2.7482,-2.7028,-2.6466,-2.6413,-2.64,-2.6386,-2.6092,-2.5825,-2.5598,-2.5478,-2.5304,-2.5104,-2.5264,-2.5344,-2.5344,-2.5064,-2.4676,-2.4209,-2.3968,-2.3554,-2.2966,0.0,0.0,0.0,-2.3434,-2.3821,-2.3915,-2.3447,-2.3006,-2.2605,-2.2418,0.0,-2.1336,-2.151,-2.1336,-2.0748,-2.1176,0.0,0.0,0.0,0.0,0.0,0.0,0.0,0.0,0.0,0.0,0.0,-2.2338,-2.3077,-2.5327,-2.8876,-3.2615,-3.5918,-3.7363,-3.8535,-3.957,-4.0137,-4.0703,-4.1348,-4.1426,-4.168,-4.2246,-4.2383,-4.2266,-4.1855,-4.1797,-4.1777,-4.166,-4.1387,-4.1308,-4.1562,-4.1387,-4.1016,-4.0586,-3.9863,-3.9336,-3.9141,-3.8144,-3.7441,-3.7422,-3.8144,-3.8887,-3.9297,-4.0019,-4.0644,-4.1074,-4.1191,-4.1172,-4.1172,-4.1172,-4.1191,-4.1172,-4.1172,-4.1172,-4.1172,-4.1172,-4.1172,-4.1172,-4.1172,-4.1172,-3.0141,0.0,-3.2642,-3.3026,0.0,-3.2131,-3.1891,-3.1837,-3.1116,-3.0301,-2.9446,-2.8858,-2.8177,-2.7468,-2.7335,-2.6947,-2.64,-2.64,-2.64,-2.6373,-2.6092,-2.5879,-2.5718,-2.5585,-2.5438,-2.5304,-2.5438,-2.5518,-2.5504,-2.5371,-2.5144,-2.485,-2.4703,-2.4476,-2.4182,-2.4168,-2.3888,-2.3313,-2.3621,-2.3901,-2.4168,-2.3901,-2.346,-2.2899,0.0,0.0,0.0,0.0,0.0,0.0,0.0,0.0,0.0,0.0,0.0,-2.1777,-2.2164,-2.2659,-2.3233,-2.3554,-2.4102,-2.4957,-2.606,-2.7348,-2.8766,-3.3477,-3.7115,-3.8389,-3.9531,-4.0351,-4.0801,-4.123,-4.166,-4.2051,-4.2109,-4.2207,-4.2402,-4.2617,-4.248,-4.1953,-4.1973,-4.1973,-4.1543,-4.1523,-4.1465,-4.1484,-4.1328,-4.1094,-4.0801,-3.9902,-3.8984,-3.8125,-3.7676,-3.7226,-3.7129,-3.791,-3.873,-3.918,-3.9941,-4.0625,-4.1113,-4.1348,-4.1426,-4.125,-4.1328,-4.1426,-4.1211,-4.1172,-4.1172,-4.1172,-4.1172,-4.1172,-4.1172,-4.1172,-4.1172,-2.9319,-2.9522,-3.208,-3.3093,-3.2772,-3.2144,-3.165,-3.1249,0.0,0.0,0.0,-2.847,-2.7816,-2.7268,-2.7268,-2.6947,-2.64,-2.64,-2.64,-2.6373,-2.6146,-2.6012,-2.5945,-2.5758,-2.5638,-2.5598,-2.5651,-2.5665,-2.5665,-2.5611,-2.5598,-2.5585,-2.5545,-2.5518,-2.5518,-2.5518,-2.5037,-2.4128,-2.3981,-2.4155,-2.4609,-2.4529,-2.4142,-2.342,-2.3821,-2.3581,-2.2632,-2.306,-2.2979,-2.2285,-2.2605,-2.2592,-2.2164,-2.318,-2.3808,-2.3915,-2.4823,-2.5651,-2.6226,-2.6493,-2.6881,-2.7455,-2.9306,-3.1306,-3.318,-3.7435,-3.997,-4.0234,-4.1133,-4.1543,-4.1211,-4.1484,-4.1855,-4.2285,-4.2246,-4.2266,-4.2519,-4.2773,-4.2656,-4.209,-4.2285,-4.2266,-4.1582,-4.1719,-4.1797,-4.1484,-4.1387,-4.1152,-4.084,-3.9824,-3.8476,-3.7031,-3.6836,-3.6914,-3.6836,-3.7715,-3.8633,-3.9023,-3.9941,-4.0742,-4.1113,-4.1523,-4.1601,-4.123,-4.1523,-4.1562,-4.1269,-4.1172,-4.1172,-4.1172,-4.1172,-4.1191,-4.1269,-4.123,-4.1172,-2.9319,-2.9486,-3.1866,-3.2492,-3.2158,-3.133,-3.0528,-2.9793,-2.97,-2.9165,-2.8323,-2.8203,-2.7816,-2.7268,-2.7268,-2.6947,-2.64,-2.64,-2.64,0.0,-2.6346,-2.6199,-2.5972,-2.6172,-2.6132,-2.5932,-2.6146,-2.6266,-2.6239,-2.6012,-2.5892,-2.5865,-2.5638,-2.5518,-2.5518,-2.5518,-2.5424,-2.5264,-2.477,-2.4556,-2.4623,-2.4155,-2.3834,-2.3714,-2.3567,-2.3394,-2.3207,-2.33,-2.3273,-2.3166,-2.3888,-2.4289,-2.4249,-2.5064,-2.5705,-2.5945,-2.6346,-2.6827,-2.7402,-2.7495,-2.7776,-2.848,-2.9878,-3.2775,-3.7099,-3.7728,-3.8862,-4.1093,-4.1367,-4.125,-4.1191,-4.123,-4.1465,-4.1816,-4.1582,-4.1777,-4.2812,-4.2734,-4.2539,-4.2383,-4.2715,-4.2812,-4.2305,-4.2266,-4.2266,-4.2187,-4.1797,-4.1308,-4.0293,-3.9277,-3.8008,-3.6562,-3.6152,-3.6172,-3.6465,-3.7539,-3.8555,-3.8652,-4.0059,-4.1055,-4.1152,-4.1523,-4.1621,-4.125,-4.1523,-4.1601,-4.125,-4.1172,-4.1172,-4.1172,-4.1191,-4.1308,-4.1582,-4.1426,-4.1211,-2.7884,-2.9462,-3.1775,-3.2372,-3.2024,-3.0996,-3.006,-2.9272,-2.9245,-2.8925,-2.8404,-2.8217,-2.7816,-2.7281,-2.7268,-2.6947,-2.64,-2.64,-2.64,-2.64,-2.64,-2.6319,-2.6226,-2.6493,-2.656,-2.644,-2.656,-2.6627,-2.66,-2.6333,-2.6199,-2.6186,-2.6052,-2.5985,-2.5985,-2.5985,-2.5985,-2.5972,-2.5411,-2.5104,-2.5104,-2.485,-2.4716,-2.4716,-2.473,-2.4756,-2.4756,-2.4903,-2.4983,-2.4983,-2.5518,-2.5758,-2.5625,-2.6426,-2.6894,-2.6894,-2.7455,-2.8056,-2.8631,-2.8818,-2.924,-3.0043,-3.1204,-3.3651,-3.7828,-3.7842,-3.8753,-4.125,-4.1269,-4.1172,-4.1172,-4.1172,-4.1348,-4.1758,-4.1816,-4.2187,-4.291,-4.3144,-4.3027,-4.2871,-4.3164,-4.3164,-4.25,-4.2422,-4.2324,-4.2109,-4.1719,-4.1055,-4.0078,-3.957,-3.8769,-3.7402,-3.7246,-3.7285,-3.7168,-3.8301,-3.916,-3.9297,-4.0332,-4.1074,-4.1191,-4.1523,-4.1582,-4.1308,-4.1523,-4.1601,-4.125,-4.1172,-4.1172,-4.1191,-4.1387,-4.1582,-4.1719,-4.1621,-4.1465,-2.6381,-2.8278,-3.065,-3.1566,-3.161,-3.0528,-2.9659,-2.9045,-2.8898,-2.8711,-2.8484,-2.8243,-2.7856,-2.7388,-2.7295,-2.6987,-2.652,-2.6413,-2.6426,-2.648,-2.648,-2.652,-2.66,-2.6827,-2.6921,-2.6921,-2.6921,-2.6894,-2.68,-2.6587,-2.6453,-2.64,-2.64,-2.64,-2.64,-2.64,-2.64,-2.6373,-2.5999,-2.5772,-2.5718,-2.5772,-2.5798,-2.5825,-2.6092,-2.6253,-2.6266,-2.6466,-2.6587,-2.66,-2.6934,-2.7014,-2.6841,-2.7495,-2.7802,-2.7655,-2.8217,-2.8831,-2.9325,-2.9593,-3.035,-3.1583,-3.2109,-3.4175,-3.7596,-3.8166,-3.9049,-4.0899,-4.1289,-4.1328,-4.1348,-4.1426,-4.1621,-4.2051,-4.2266,-4.2617,-4.3144,-4.3437,-4.3457,-4.3164,-4.3437,-4.3398,-4.2793,-4.2656,-4.2539,-4.207,-4.1504,-4.0898,-4.0312,-4.0176,-3.9687,-3.8906,-3.8574,-3.8379,-3.8203,-3.9043,-3.9746,-3.9902,-4.0605,-4.1055,-4.125,-4.1523,-4.1601,-4.1328,-4.1523,-4.1582,-4.1289,-4.1172,-4.1172,-4.1191,-4.1387,-4.1601,-4.1601,-4.1719,-4.1641,-2.4972,-2.5177,-2.7513,-2.9367,-3.0488,-2.9579,-2.9138,-2.8978,-2.8484,-2.8217,-2.8203,-2.815,-2.7963,-2.7642,-2.7388,-2.7094,-2.6774,-2.6507,-2.6547,-2.676,-2.6787,-2.6921,-2.7134,-2.7215,-2.7228,-2.7228,-2.7215,-2.7108,-2.6881,-2.68,-2.6653,-2.6413,-2.64,-2.64,-2.64,-2.64,-2.64,-2.64,-2.6587,-2.6573,-2.6346,-2.6573,-2.6707,-2.6707,-2.6974,-2.7148,-2.7094,-2.7175,-2.7175,-2.7228,-2.7696,-2.7989,-2.7989,-2.8323,-2.8497,-2.847,-2.8564,-2.8751,-2.9045,-2.9098,-3.0115,-3.2178,-3.2719,-3.4566,-3.8615,-3.9123,-3.964,-4.0974,-4.1543,-4.1738,-4.1777,-4.2051,-4.2383,-4.2715,-4.2598,-4.2734,-4.3398,-4.334,-4.3105,-4.3086,-4.3476,-4.3516,-4.3105,-4.3164,-4.3105,-4.2266,-4.1582,-4.1113,-4.0976,-4.0918,-4.0781,-4.0137,-3.9414,-3.873,-3.8711,-3.9277,-3.9922,-4.0039,-4.0605,-4.1074,-4.125,-4.1465,-4.168,-4.1328,-4.1465,-4.1562,-4.1328,-4.1172,-4.1172,-4.1191,-4.125,-4.1289,-4.1289,-4.1543,-4.1601,-2.4332,-2.6695,-2.749,-2.8667,-2.9893,-2.9513,-2.9205,-2.9005,-2.8604,-2.8323,-2.815,-2.815,-2.7976,-2.7696,-2.7562,-2.7362,-2.7081,-2.6961,-2.6974,-2.7081,-2.7081,-2.7148,-2.7268,-2.7442,-2.7522,-2.7522,-2.7522,-2.7455,-2.7295,-2.6987,-2.676,-2.664,-2.648,-2.6466,-2.6627,-2.664,-2.656,-2.6413,-2.668,-2.676,-2.6694,-2.6934,-2.7001,-2.6867,-2.7108,-2.7268,-2.7268,-2.7268,-2.7268,-2.7281,-2.7655,-2.7963,-2.8136,-2.827,-2.8497,-2.8845,-2.9192,-2.9285,-2.9058,-3.0706,-3.2499,-3.4277,-3.6137,-3.824,-4.0809,-4.1303,-4.1714,-4.1892,-4.207,-4.2168,-4.2187,-4.2324,-4.25,-4.2676,-4.2754,-4.2969,-4.3262,-4.3418,-4.3457,-4.3457,-4.3594,-4.3535,-4.3125,-4.2773,-4.2344,-4.1797,-4.1348,-4.1191,-4.1172,-4.1172,-4.1094,-4.0898,-4.041,-4.0059,-3.9824,-4.0215,-4.0566,-4.0703,-4.0918,-4.1172,-4.1211,-4.1269,-4.1348,-4.1191,-4.1348,-4.1406,-4.123,-4.1172,-4.1172,-4.1191,-4.1426,-4.1543,-4.1543,-4.168,-4.1601,-2.3403,-2.6878,-2.7818,-2.8804,-2.99,-2.9513,-2.9245,-2.8991,-2.8644,-2.835,-2.815,-2.815,-2.8016,-2.7829,-2.7736,-2.7575,-2.7388,-2.7308,-2.7308,-2.7375,-2.7388,-2.7428,-2.7522,-2.7722,-2.7816,-2.7816,-2.7816,-2.7776,-2.7655,-2.7201,-2.6907,-2.6814,-2.6694,-2.6694,-2.6814,-2.6894,-2.68,-2.656,-2.68,-2.6907,-2.6881,-2.7188,-2.7281,-2.7108,-2.7348,-2.7509,-2.7509,-2.7509,-2.7509,-2.7522,-2.7789,-2.8043,-2.8257,-2.835,-2.8617,-2.9112,-2.9553,-3.0001,-3.0148,-3.2308,-3.4638,-3.6846,-3.9095,-4.1046,-4.2461,-4.3066,-4.3086,-4.2851,-4.2773,-4.2773,-4.2617,-4.2715,-4.2773,-4.2793,-4.3086,-4.3242,-4.3301,-4.3535,-4.3691,-4.3691,-4.3691,-4.3555,-4.3066,-4.2402,-4.1758,-4.1484,-4.1289,-4.1172,-4.1172,-4.1172,-4.1172,-4.1172,-4.1152,-4.1016,-4.0781,-4.0879,-4.1152,-4.1172,-4.1172,-4.1172,-4.1172,-4.1172,-4.1172,-4.1172,-4.1172,-4.1172,-4.1172,-4.1172,-4.1172,-4.123,-4.1406,-4.1601,-4.1523,-4.1621,-4.1504,-2.1912,-2.4197,-2.8026,-2.9814,-2.986,-2.9312,-2.9058,-2.8978,-2.8417,-2.8163,-2.815,-2.815,-2.8136,-2.8083,-2.7843,-2.7696,-2.7642,-2.7428,-2.7455,-2.7669,-2.7682,-2.7829,-2.8096,-2.8123,-2.811,-2.8083,-2.8083,-2.7949,-2.7696,-2.7402,-2.7108,-2.6867,-2.7068,-2.7081,-2.6934,-2.7134,-2.7108,-2.6867,-2.7094,-2.7121,-2.6947,-2.7388,-2.7655,-2.7669,-2.7936,-2.8056,-2.8083,-2.8096,-2.8083,-2.8083,-2.8364,-2.8551,-2.8604,-2.8845,-2.9152,-2.9419,-2.9499,-3.0668,-3.2588,-3.338,-3.5273,-3.8985,-4.0186,-4.1267,-4.3206,-4.3574,-4.3574,-4.3613,-4.3535,-4.3418,-4.3144,-4.3301,-4.3516,-4.3555,-4.3613,-4.3633,-4.3652,-4.3652,-4.3691,-4.3691,-4.3672,-4.3457,-4.3066,-4.2324,-4.1914,-4.1719,-4.1445,-4.123,-4.123,-4.1211,-4.1211,-4.1172,-4.1172,-4.1152,-4.1133,-4.1133,-4.1152,-4.1172,-4.1172,-4.1172,-4.1172,-4.1172,-4.1172,-4.1172,-4.1172,-4.1172,-4.1172,-4.1172,-4.1172,-4.1191,-4.1191,-4.1289,-4.1348,-4.125,-4.1191,-2.2407,-2.5694,-2.8754,-2.9806,-2.9593,-2.9205,-2.8938,-2.8738,-2.8323,-2.815,-2.815,-2.815,-2.815,-2.8136,-2.803,-2.7989,-2.7976,-2.7869,-2.7883,-2.7976,-2.7976,-2.8043,-2.8123,-2.815,-2.815,-2.815,-2.8136,-2.7989,-2.7722,-2.7589,-2.7495,-2.7375,-2.7295,-2.7295,-2.7388,-2.7482,-2.7402,-2.7161,-2.7388,-2.7482,-2.7388,-2.7589,-2.7776,-2.7976,-2.8083,-2.815,-2.815,-2.815,-2.815,-2.815,-2.8444,-2.8698,-2.8911,-2.9339,-2.9553,-2.9513,-2.9659,-3.015,-3.1287,-3.3907,-3.614,-3.7861,-4.095,-4.2659,-4.3526,-4.3691,-4.3691,-4.3691,-4.3691,-4.3613,-4.3555,-4.3633,-4.3691,-4.3691,-4.3691,-4.3691,-4.3691,-4.3691,-4.3691,-4.3672,-4.3496,-4.3144,-4.2793,-4.2383,-4.2207,-4.2187,-4.207,-4.1855,-4.1641,-4.1582,-4.1504,-4.125,-4.1172,-4.1172,-4.1172,-4.1172,-4.1172,-4.1172,-4.1172,-4.1172,-4.1172,-4.1172,-4.1172,-4.1172,-4.1172,-4.1172,-4.1172,-4.1172,-4.1172,-4.1172,-4.1172,-4.1172,-4.1172,-4.1172,-4.1172,-2.2877,-2.5735,-2.8627,-2.9806,-2.9579,-2.9205,-2.8938,-2.8698,-2.8323,-2.815,-2.815,-2.815,-2.815,-2.815,-2.815,-2.815,-2.815,-2.8136,-2.815,-2.815,-2.815,-2.815,-2.815,-2.815,-2.815,-2.815,-2.815,-2.803,-2.7869,-2.7843,-2.7789,-2.7682,-2.7575,-2.7589,-2.7696,-2.7789,-2.7696,-2.7509,-2.7602,-2.7696,-2.7709,-2.7709,-2.7843,-2.811,-2.8243,-2.8297,-2.8283,-2.8297,-2.835,-2.8457,-2.8724,-2.9072,-2.9459,-2.9847,-2.998,-2.982,-2.9953,-3.0698,-3.2189,-3.5099,-3.7518,-3.9055,-4.1807,-4.3691,-4.3691,-4.3691,-4.3691,-4.3691,-4.3691,-4.3691,-4.3691,-4.3691,-4.3691,-4.3691,-4.3691,-4.3691,-4.3691,-4.3691,-4.3691,-4.3652,-4.3359,-4.2988,-4.2695,-4.2519,-4.2422,-4.2422,-4.2422,-4.2285,-4.207,-4.1992,-4.1855,-4.1465,-4.1406,-4.1328,-4.123,-4.1172,-4.1172,-4.1172,-4.1172,-4.1172,-4.1172,-4.1172,-4.1172,-4.1172,-4.1172,-4.1172,-4.1172,-4.1172,-4.1172,-4.1172,-4.1172,-4.1172,-4.1172,-4.1172,-4.1172,-2.3093,-2.3634,-2.7814,-2.9528,-2.9396,-2.9083,-2.9032,-2.8885,-2.839,-2.815,-2.815,-2.815,-2.815,-2.815,-2.815,-2.815,-2.815,-2.815,-2.815,-2.815,-2.815,-2.815,-2.815,-2.815,-2.815,-2.815,-2.815,-2.8136,-2.811,-2.8096,-2.7976,-2.7802,-2.7976,-2.7936,-2.7722,-2.7963,-2.7976,-2.7776,-2.7736,-2.7736,-2.7709,-2.7736,-2.7883,-2.8177,-2.843,-2.8591,-2.8631,-2.8617,-2.8724,-2.8978,-2.9272,-2.974,-3.0154,-3.0287,-3.0314,-3.0287,-3.0509,-3.2462,-3.5684,-3.6658,-3.9055,-4.1807,-4.3526,-4.3691,-4.3691,-4.3691,-4.3691,-4.3691,-4.3691,-4.3691,-4.3691,-4.3691,-4.3691,-4.3691,-4.3691,-4.3691,-4.3691,-4.3691,-4.3691,-4.3613,-4.334,-4.3105,-4.2988,-4.2812,-4.2617,-4.2598,-4.2598,-4.2558,-4.2461,-4.2422,-4.2246,-4.1894,-4.168,-4.1543,-4.1348,-4.1172,-4.1172,-4.1172,-4.1172,-4.1172,-4.1172,-4.1172,-4.1172,-4.1172,-4.1172,-4.1172,-4.1172,-4.1172,-4.1172,-4.1172,-4.1172,-4.1172,-4.1172,-4.1172,-4.1172,-2.1423,-2.2851,-2.6083,-2.7231,-2.7214,-2.8478,-2.8938,-2.8711,-2.831,-2.815,-2.815,-2.815,-2.815,-2.815,-2.815,-2.815,-2.815,-2.815,-2.815,-2.815,-2.815,-2.815,-2.815,-2.815,-2.815,-2.815,-2.815,-2.815,-2.815,-2.815,-2.8083,-2.8043,-2.8096,-2.8096,-2.803,-2.8096,-2.8083,-2.803,-2.8003,-2.8003,-2.8003,-2.8016,-2.815,-2.843,-2.8564,-2.8778,-2.9165,-2.9018,-2.8951,-2.9058,-2.9325,-2.9753,-3.0207,-3.0167,-3.0154,-3.0482,-3.1732,-3.2822,-3.4447,-3.7347,-3.9564,-4.1453,-4.2844,-4.3526,-4.3691,-4.3691,-4.3691,-4.3691,-4.3691,-4.3691,-4.3691,-4.3691,-4.3691,-4.3691,-4.3691,-4.3691,-4.3691,-4.3691,-4.3574,-4.3359,-4.3398,-4.3379,-4.3203,-4.3086,-4.3223,-4.3242,-4.3242,-4.3183,-4.2949,-4.2871,-4.2558,-4.1992,-4.1855,-4.1719,-4.1445,-4.123,-4.1172,-4.1172,-4.1172,-4.1172,-4.1172,-4.1172,-4.1172,-4.1172,-4.1172,-4.1172,-4.1172,-4.1172,-4.1172,-4.1172,-4.1172,-4.1172,-4.1172,-4.1172,-4.1172,-2.053,-2.276,-2.5127,-2.6689,-2.7417,-2.8784,-2.9032,-2.8751,-2.8444,-2.8257,-2.8163,-2.815,-2.815,-2.815,-2.815,-2.8217,-2.8297,-2.8203,-2.8203,-2.827,-2.8177,-2.815,-2.815,-2.815,-2.815,-2.815,-2.815,-2.815,-2.815,-2.815,-2.8203,-2.8283,-2.8203,-2.8283,-2.843,-2.8364,-2.835,-2.8457,-2.8484,-2.8484,-2.8484,-2.847,-2.8564,-2.8751,-2.8871,-2.9125,-2.9446,-2.9392,-2.9366,-2.9419,-2.9646,-3.0034,-3.0461,-3.0461,-3.0488,-3.0934,-3.1833,-3.3012,-3.4808,-3.743,-3.9921,-4.1286,-4.2844,-4.3691,-4.3691,-4.3691,-4.3691,-4.3691,-4.3691,-4.3691,-4.3691,-4.3691,-4.3691,-4.3691,-4.3691,-4.3691,-4.3691,-4.3691,-4.3613,-4.3476,-4.3555,-4.3535,-4.3476,-4.3496,-4.3691,-4.3691,-4.3691,-4.3672,-4.3379,-4.332,-4.2851,-4.2422,-4.2207,-4.1933,-4.1523,-4.1328,-4.1191,-4.1172,-4.1172,-4.1172,-4.1172,-4.1172,-4.1172,-4.1172,-4.1172,-4.1172,-4.1172,-4.1172,-4.1172,-4.1172,-4.1172,-4.1172,-4.1172,-4.1172,-4.1172,-2.0341,-2.2576,-2.4945,-2.7148,-2.9117,-2.9389,-2.9285,-2.9005,-2.8751,-2.847,-2.8243,-2.8217,-2.8203,-2.8177,-2.8217,-2.835,-2.8524,-2.839,-2.8404,-2.8511,-2.8404,-2.827,-2.823,-2.827,-2.831,-2.827,-2.8257,-2.8243,-2.8297,-2.8297,-2.8337,-2.8577,-2.8417,-2.847,-2.8818,-2.8751,-2.8738,-2.8925,-2.8978,-2.8978,-2.8978,-2.8991,-2.9032,-2.9058,-2.9285,-2.9459,-2.9553,-2.9726,-2.986,-2.994,-3.0127,-3.0421,-3.0755,-3.1049,-3.1089,-3.1116,-3.1114,-3.3661,-3.6371,-3.8218,-3.976,-4.3055,-4.374,-4.3769,-4.3906,-4.3945,-4.3945,-4.3926,-4.3906,-4.3848,-4.3808,-4.3867,-4.3848,-4.3769,-4.375,-4.3711,-4.3691,-4.3691,-4.3652,-4.3672,-4.3691,-4.3691,-4.3652,-4.3691,-4.3691,-4.3691,-4.3691,-4.3672,-4.3652,-4.3535,-4.3457,-4.3086,-4.2598,-4.2168,-4.1758,-4.1523,-4.1367,-4.1172,-4.1172,-4.1172,-4.1172,-4.1172,-4.1172,-4.1172,-4.1172,-4.1172,-4.1172,-4.1172,-4.1172,-4.1172,-4.1172,-4.1172,-4.1172,-4.1172,-4.1172,-1.7899,-1.9983,-2.2372,-2.4945,-2.7292,-2.8691,-2.9312,-2.9045,-2.8965,-2.8764,-2.8524,-2.8484,-2.847,-2.8484,-2.847,-2.8537,-2.8617,-2.8738,-2.8831,-2.8898,-2.8858,-2.8671,-2.8577,-2.8698,-2.8791,-2.8778,-2.8738,-2.8804,-2.8804,-2.8751,-2.8831,-2.8925,-2.8831,-2.8858,-2.9005,-2.8978,-2.8965,-2.9032,-2.9045,-2.9058,-2.9072,-2.9072,-2.9152,-2.9366,-2.9446,-2.9606,-2.9766,-2.9873,-2.9913,-2.994,-3.0207,-3.0488,-3.0782,-3.0915,-3.1062,-3.1529,-3.4197,-3.63,-3.7965,-4.066,-4.3254,-4.433,-4.459,-4.4668,-4.4687,-4.4668,-4.4687,-4.4687,-4.4668,-4.4512,-4.4336,-4.4473,-4.4492,-4.4219,-4.3984,-4.375,-4.3711,-4.3691,-4.3691,-4.3691,-4.3711,-4.373,-4.3711,-4.373,-4.373,-4.3711,-4.3691,-4.3691,-4.3691,-4.3691,-4.3555,-4.3262,-4.2851,-4.2422,-4.2051,-4.1797,-4.1543,-4.125,-4.1172,-4.1172,-4.1172,-4.1172,-4.1172,-4.1172,-4.1172,-4.1172,-4.1172,-4.1172,-4.1172,-4.1172,-4.1172,-4.1172,-4.1172,-4.1172,-4.1172,-1.6964,-1.9056,-2.1452,-2.4021,-2.6399,-2.8642,-2.9499,-2.9259,-2.9219,-2.9058,-2.8831,-2.8791,-2.8724,-2.8617,-2.8738,-2.8778,-2.8818,-2.8965,-2.9098,-2.9219,-2.9219,-2.9058,-2.8898,-2.8978,-2.9045,-2.9045,-2.9045,-2.9032,-2.9018,-2.9045,-2.9098,-2.9179,-2.9098,-2.9165,-2.9419,-2.9272,-2.9299,-2.9392,-2.9406,-2.9406,-2.9406,-2.9406,-2.9486,-2.9646,-2.9673,-2.9806,-3.006,-3.01,-3.01,-3.0167,-3.0381,-3.0675,-3.0942,-3.1102,-3.1236,-3.1584,-3.474,-3.6897,-3.8458,-4.1575,-4.3957,-4.4659,-4.5039,-4.5039,-4.5,-4.5039,-4.5039,-4.5,-4.5039,-4.4902,-4.4766,-4.4883,-4.4902,-4.4687,-4.4414,-4.4101,-4.3789,-4.3691,-4.3691,-4.373,-4.3867,-4.3906,-4.3769,-4.3867,-4.3867,-4.3769,-4.3691,-4.3691,-4.3691,-4.3691,-4.3633,-4.3398,-4.3144,-4.2773,-4.2383,-4.209,-4.1719,-4.1406,-4.1172,-4.1172,-4.1172,-4.1172,-4.1172,-4.1172,-4.1172,-4.1172,-4.1172,-4.1172,-4.1172,-4.1172,-4.1172,-4.1172,-4.1172,-4.1172,-4.1172,-1.7009,-1.9082,-2.1461,-2.3838,-2.6411,-2.8796,-2.9726,-2.9513,-2.9513,-2.9366,-2.9138,-2.9085,-2.8978,-2.8724,-2.9005,-2.9085,-2.9098,-2.9192,-2.9325,-2.9472,-2.9513,-2.9392,-2.9219,-2.9219,-2.9232,-2.9219,-2.9152,-2.9179,-2.9232,-2.9192,-2.9285,-2.9432,-2.9285,-2.9419,-2.9686,-2.9633,-2.9686,-2.9806,-2.9806,-2.9806,-2.9806,-2.9806,-2.982,-2.9847,-2.9953,-3.0114,-3.0327,-3.0408,-3.0421,-3.0461,-3.0702,-3.0942,-3.1223,-3.149,-3.1637,-3.2339,-3.4329,-3.6703,-3.8465,-4.1125,-4.3248,-4.4911,-4.5254,-4.5156,-4.5254,-4.5312,-4.5312,-4.5332,-4.5176,-4.5254,-4.5215,-4.5137,-4.5058,-4.5039,-4.5039,-4.4609,-4.4082,-4.3848,-4.3848,-4.3848,-4.4238,-4.4199,-4.4043,-4.4062,-4.4219,-4.375,-4.3691,-4.3691,-4.3691,-4.3691,-4.3691,-4.3633,-4.3398,-4.3144,-4.2754,-4.2383,-4.1973,-4.1582,-4.1289,-4.1172,-4.1172,-4.1172,-4.1172,-4.1172,-4.1172,-4.1172,-4.1172,-4.1172,-4.1172,-4.1172,-4.1172,-4.1172,-4.1172,-4.1172,-4.1172,-1.7277,-1.9261,-2.1519,-2.4032,-2.6411,-2.8796,-2.9753,-2.9513,-2.9726,-2.9633,-2.9432,-2.9392,-2.9339,-2.9272,-2.9339,-2.9392,-2.9406,-2.9566,-2.978,-2.9806,-2.982,-2.9793,-2.9713,-2.9686,-2.97,-2.97,-2.9713,-2.9713,-2.97,-2.9659,-2.9753,-2.978,-2.9726,-2.9793,-2.9873,-2.986,-2.9847,-2.9913,-2.9913,-2.9913,-2.9913,-2.9913,-2.9927,-2.9953,-3.014,-3.0408,-3.0635,-3.0702,-3.0808,-3.0996,-3.1102,-3.1183,-3.1289,-3.1517,-3.1664,-3.2569,-3.565,-3.8315,-3.9389,-4.2565,-4.5454,-4.5764,-4.5918,-4.6035,-4.6035,-4.5976,-4.5996,-4.6016,-4.6035,-4.5937,-4.5898,-4.5371,-4.5312,-4.541,-4.5273,-4.5019,-4.4785,-4.4707,-4.4668,-4.4707,-4.4766,-4.4726,-4.4316,-4.4316,-4.4219,-4.3828,-4.3691,-4.3691,-4.3691,-4.3691,-4.3691,-4.3691,-4.3613,-4.3359,-4.3066,-4.2598,-4.2031,-4.1621,-4.1328,-4.1172,-4.1172,-4.1172,-4.1172,-4.1172,-4.1172,-4.1172,-4.1172,-4.1172,-4.1172,-4.1172,-4.1172,-4.1172,-4.1172,-4.1172,-4.1172,-1.7314,-1.921,-2.15,-2.3849,-2.6411,-2.8796,-2.9833,-2.9726,-2.9847,-2.9833,-2.9713,-2.9686,-2.9606,-2.9513,-2.9606,-2.9619,-2.9566,-2.978,-2.9913,-2.99,-2.99,-2.9913,-2.9913,-2.9913,-2.9913,-2.9913,-2.99,-2.9913,-2.9913,-2.994,-2.9967,-3.01,-3.0007,-2.9993,-3.006,-3.0007,-2.9913,-2.9913,-2.9913,-2.9913,-2.9913,-2.9913,-3.002,-3.01,-3.0301,-3.0541,-3.0942,-3.0996,-3.1156,-3.1356,-3.1436,-3.1436,-3.145,-3.1583,-3.1664,-3.2408,-3.6252,-3.8794,-4.0067,-4.3193,-4.6269,-4.6308,-4.6308,-4.6308,-4.6308,-4.6308,-4.6308,-4.6308,-4.6289,-4.6289,-4.6289,-4.6016,-4.5801,-4.584,-4.5762,-4.5625,-4.5566,-4.5293,-4.5039,-4.5078,-4.5176,-4.4922,-4.4707,-4.459,-4.4258,-4.3867,-4.3711,-4.3691,-4.3691,-4.3691,-4.3691,-4.3691,-4.3691,-4.3555,-4.332,-4.2793,-4.2051,-4.1621,-4.125,-4.1172,-4.1172,-4.1172,-4.1172,-4.1172,-4.1172,-4.1172,-4.1172,-4.1172,-4.1172,-4.1172,-4.1172,-4.1172,-4.1172,-4.1172,-4.1172,-1.7307,-1.9176,-2.149,-2.386,-2.647,-2.8887,-3.0034,-3.006,-3.0007,-3.0007,-2.9967,-2.9953,-2.9753,-2.9659,-2.9793,-2.9753,-2.9686,-2.9766,-2.9913,-2.9913,-2.9913,-2.9913,-2.9913,-2.9913,-2.9967,-2.9967,-2.994,-2.9927,-2.9993,-3.0007,-3.0181,-3.0341,-3.0207,-3.0247,-3.0327,-3.0207,-3.0074,-3.0047,-3.0114,-3.002,-2.9967,-2.998,-3.0154,-3.0381,-3.0541,-3.0808,-3.1196,-3.1316,-3.1423,-3.1704,-3.173,-3.173,-3.173,-3.1677,-3.1717,-3.1907,-3.6298,-3.8677,-4.0004,-4.3248,-4.6308,-4.6308,-4.6308,-4.6308,-4.6308,-4.6308,-4.6308,-4.6308,-4.6308,-4.6308,-4.6308,-4.6211,-4.623,-4.6269,-4.6289,-4.6308,-4.6172,-4.5644,-4.5391,-4.5351,-4.5547,-4.543,-4.5,-4.4746,-4.4336,-4.3965,-4.3808,-4.3691,-4.3691,-4.3711,-4.3711,-4.3691,-4.3691,-4.334,-4.3047,-4.2715,-4.1992,-4.1641,-4.123,-4.125,-4.123,-4.1172,-4.1172,-4.1172,-4.1172,-4.1172,-4.1172,-4.1172,-4.1172,-4.1172,-4.1172,-4.1172,-4.1172,-4.1172,-4.1172,-1.7304,-1.9522,-2.1673,-2.4129,-2.673,-2.9339,-3.0408,-3.0581,-3.0368,-3.0287,-3.0247,-3.0034,-2.9913,-2.986,-2.9873,-2.9873,-2.986,-2.994,-2.9953,-2.9953,-2.9953,-2.9953,-2.9967,-2.9927,-3.0047,-3.0154,-3.0087,-3.006,-3.0247,-3.0301,-3.0448,-3.0648,-3.0635,-3.0648,-3.0675,-3.0648,-3.0461,-3.0341,-3.0448,-3.0368,-3.0127,-3.0194,-3.0421,-3.0702,-3.0889,-3.1183,-3.1476,-3.1597,-3.173,-3.1984,-3.2024,-3.2038,-3.2011,-3.1864,-3.1837,-3.3021,-3.6451,-3.9208,-3.9925,-4.3591,-4.5821,-4.6308,-4.6387,-4.6348,-4.6348,-4.6328,-4.6348,-4.6308,-4.6308,-4.6308,-4.6308,-4.6308,-4.6308,-4.6308,-4.6308,-4.6308,-4.625,-4.6113,-4.5957,-4.5918,-4.5996,-4.5898,-4.5391,-4.4941,-4.459,-4.4219,-4.3945,-4.3789,-4.3711,-4.3711,-4.373,-4.3711,-4.3691,-4.3183,-4.2676,-4.2324,-4.1875,-4.166,-4.1406,-4.1406,-4.1367,-4.1211,-4.1172,-4.1289,-4.125,-4.1172,-4.1172,-4.1172,-4.1172,-4.1172,-4.1172,-4.1172,-4.1172,-4.1172,-4.1172,-1.7304,-1.9522,-2.1663,-2.4161,-2.6778,-2.9417,-3.0528,-3.0755,-3.0635,-3.0501,-3.0354,-3.0207,-3.0047,-2.9953,-2.9913,-2.9993,-3.0114,-3.014,-3.014,-3.0154,-3.014,-3.014,-3.01,-3.0007,-3.0221,-3.0381,-3.0314,-3.0301,-3.0555,-3.0581,-3.0742,-3.0902,-3.0889,-3.0862,-3.0942,-3.0849,-3.0742,-3.0648,-3.0715,-3.0688,-3.0394,-3.0528,-3.0728,-3.0982,-3.1156,-3.137,-3.1637,-3.1851,-3.2038,-3.2265,-3.2332,-3.2412,-3.2425,-3.2512,-3.2118,-3.3051,-3.6742,-3.9587,-4.0495,-4.4068,-4.6814,-4.6973,-4.6953,-4.6836,-4.6699,-4.6621,-4.6543,-4.6367,-4.6308,-4.6308,-4.6308,-4.6328,-4.6308,-4.6308,-4.6328,-4.6348,-4.6308,-4.6308,-4.6308,-4.6328,-4.623,-4.5996,-4.5625,-4.5215,-4.4883,-4.4512,-4.4121,-4.3906,-4.375,-4.3711,-4.373,-4.3828,-4.3808,-4.3379,-4.2832,-4.2441,-4.207,-4.1797,-4.166,-4.166,-4.1699,-4.1641,-4.1582,-4.1582,-4.1465,-4.1348,-4.1172,-4.1172,-4.1172,-4.1172,-4.1172,-4.1172,-4.1172,-4.1172,-4.1172,-1.7393,-1.9623,-2.132,-2.3862,-2.7014,-2.8926,-3.0201,-3.0929,-3.0915,-3.0768,-3.0541,-3.0408,-3.0221,-3.006,-3.0034,-3.014,-3.0368,-3.0394,-3.0448,-3.0448,-3.0448,-3.0434,-3.0301,-3.0261,-3.0314,-3.0528,-3.0675,-3.0648,-3.0835,-3.0875,-3.1049,-3.1196,-3.1062,-3.1062,-3.1223,-3.1236,-3.1036,-3.0915,-3.1022,-3.1036,-3.0915,-3.0889,-3.0982,-3.1223,-3.1289,-3.1476,-3.177,-3.2051,-3.2385,-3.2652,-3.2826,-3.2906,-3.3197,-3.3483,-3.3406,-3.3877,-3.752,-3.9691,-4.2017,-4.4727,-4.7441,-4.7422,-4.7539,-4.7363,-4.7187,-4.7031,-4.6894,-4.6543,-4.6582,-4.6562,-4.6543,-4.6543,-4.6601,-4.6621,-4.6641,-4.6562,-4.6504,-4.6465,-4.6406,-4.6387,-4.6328,-4.6074,-4.5683,-4.5469,-4.5137,-4.4609,-4.4219,-4.3984,-4.3828,-4.3711,-4.375,-4.3945,-4.3906,-4.3574,-4.3164,-4.2793,-4.2461,-4.2207,-4.209,-4.207,-4.2129,-4.2187,-4.207,-4.1875,-4.1816,-4.168,-4.1426,-4.1172,-4.1172,-4.1172,-4.1172,-4.1172,-4.1172,-4.1172,-4.1172,-1.785,-1.9966,-2.0192,-2.2964,-2.7019,-2.7783,-2.9355,-3.1476,-3.1249,-3.1169,-3.0982,-3.0595,-3.0354,-3.0274,-3.0261,-3.0301,-3.0421,-3.0595,-3.0662,-3.0635,-3.0702,-3.0608,-3.0448,-3.0621,-3.0568,-3.0702,-3.0942,-3.1116,-3.1169,-3.1169,-3.1316,-3.1503,-3.153,-3.157,-3.1543,-3.1623,-3.1664,-3.1356,-3.165,-3.165,-3.1263,-3.1183,-3.1209,-3.1343,-3.1503,-3.1784,-3.2078,-3.2372,-3.2719,-3.324,-3.3547,-3.3561,-3.3841,-3.5963,-3.6466,-3.6997,-3.8783,-4.1136,-4.3466,-4.6196,-4.7734,-4.7773,-4.7754,-4.7578,-4.7558,-4.7441,-4.7266,-4.6933,-4.7148,-4.7168,-4.6992,-4.7187,-4.7344,-4.7344,-4.7246,-4.707,-4.6914,-4.666,-4.6601,-4.6387,-4.6308,-4.6055,-4.5723,-4.5586,-4.5391,-4.4824,-4.4355,-4.4141,-4.4062,-4.4082,-4.3867,-4.4043,-4.416,-4.3867,-4.3457,-4.3105,-4.291,-4.2637,-4.2598,-4.2539,-4.2598,-4.2617,-4.2305,-4.2148,-4.2129,-4.1914,-4.1523,-4.1289,-4.1211,-4.1211,-4.125,-4.1211,-4.1172,-4.1172,-4.1172,-1.7284,-1.8097,-1.9354,-2.193,-2.5432,-2.6987,-2.9036,-3.102,-3.1289,-3.1129,-3.0969,-3.0742,-3.0515,-3.0354,-3.0207,-3.0207,-3.0394,-3.0662,-3.0688,-3.0715,-3.0849,-3.0875,-3.0688,-3.0755,-3.0795,-3.1049,-3.1183,-3.1303,-3.1396,-3.1476,-3.157,-3.1637,-3.1677,-3.165,-3.1677,-3.1797,-3.1704,-3.1597,-3.169,-3.1717,-3.1543,-3.149,-3.1623,-3.1931,-3.1917,-3.2158,-3.2519,-3.2706,-3.3093,-3.3534,-3.3708,-3.3748,-3.3977,-3.4917,-3.596,-3.945,-4.0011,-4.1917,-4.449,-4.7036,-4.7896,-4.8359,-4.8457,-4.8613,-4.832,-4.7871,-4.7558,-4.7324,-4.7461,-4.7461,-4.7363,-4.7461,-4.7539,-4.7598,-4.7715,-4.7363,-4.7129,-4.6973,-4.6777,-4.6523,-4.6269,-4.6055,-4.5898,-4.5879,-4.5683,-4.5215,-4.4844,-4.4668,-4.4726,-4.4922,-4.459,-4.4199,-4.4258,-4.4219,-4.3808,-4.3418,-4.3398,-4.3242,-4.3242,-4.3183,-4.3125,-4.3008,-4.2676,-4.2598,-4.2656,-4.2305,-4.1699,-4.1504,-4.1484,-4.1426,-4.1328,-4.125,-4.1172,-4.1172,-4.1172,-1.7869,-1.7829,-1.8784,-2.063,-2.3326,-2.5821,-2.8164,-3.0187,-3.0874,-3.1062,-3.0822,-3.0702,-3.0501,-3.0301,-3.014,-3.0247,-3.0488,-3.0702,-3.0768,-3.0849,-3.0982,-3.1062,-3.0996,-3.1009,-3.1169,-3.1476,-3.1383,-3.1396,-3.149,-3.161,-3.165,-3.1677,-3.1677,-3.1677,-3.169,-3.1784,-3.181,-3.1797,-3.1717,-3.169,-3.165,-3.165,-3.1944,-3.2171,-3.2291,-3.2412,-3.2973,-3.32,-3.3507,-3.3948,-3.3975,-3.4055,-3.4367,-3.6006,-3.7628,-4.0754,-4.2379,-4.4311,-4.6093,-4.7788,-4.8663,-4.8965,-4.9082,-4.8984,-4.8789,-4.8203,-4.7793,-4.7754,-4.793,-4.7891,-4.7793,-4.7832,-4.8008,-4.8027,-4.7988,-4.7578,-4.7226,-4.7129,-4.6855,-4.6484,-4.6269,-4.6191,-4.6094,-4.6191,-4.5976,-4.5586,-4.5332,-4.5176,-4.5215,-4.5371,-4.4961,-4.4414,-4.4316,-4.4277,-4.3887,-4.3633,-4.3691,-4.3691,-4.3691,-4.3574,-4.334,-4.3223,-4.3008,-4.3027,-4.3008,-4.2617,-4.1992,-4.1875,-4.1758,-4.1484,-4.125,-4.1211,-4.1172,-4.1172,-4.1172,-2.0887,-2.0654,-1.8358,-1.9053,-2.1511,-2.3566,-2.6016,-2.8703,-3.0389,-3.1076,-3.0768,-3.0528,-3.0274,-3.0114,-3.0261,-3.0448,-3.0742,-3.0782,-3.1009,-3.1236,-3.137,-3.1236,-3.1223,-3.1303,-3.1356,-3.1142,-3.1343,-3.145,-3.141,-3.1597,-3.165,-3.1677,-3.1677,-3.1677,-3.173,-3.1824,-3.1931,-3.1891,-3.177,-3.1677,-3.1677,-3.1717,-3.1904,-3.2131,-3.2225,-3.2505,-3.3334,-3.3627,-3.3908,-3.4456,-3.4376,-3.4666,-3.536,-3.7421,-3.962,-4.1975,-4.4796,-4.6728,-4.8069,-4.8459,-4.8682,-4.8867,-4.8906,-4.9004,-4.8965,-4.8867,-4.8574,-4.8242,-4.8379,-4.8418,-4.8398,-4.8457,-4.8516,-4.8476,-4.8281,-4.791,-4.7578,-4.7344,-4.7051,-4.6504,-4.625,-4.6172,-4.6133,-4.6191,-4.6133,-4.5742,-4.5723,-4.5566,-4.5254,-4.5273,-4.4961,-4.459,-4.4433,-4.4219,-4.3828,-4.3691,-4.3691,-4.3691,-4.3691,-4.3496,-4.3262,-4.3183,-4.3125,-4.291,-4.2754,-4.2539,-4.2324,-4.2012,-4.1699,-4.1367,-4.1172,-4.1172,-4.1172,-4.1172,-4.1172,-2.3568,-2.3568,-2.2545,-2.3446,-2.5861,-2.6791,-2.8276,-3.0164,-3.1231,-3.1223,-3.0782,-3.0501,-3.0394,-3.0434,-3.0341,-3.0515,-3.0795,-3.0996,-3.1116,-3.1209,-3.1303,-3.1356,-3.1423,-3.1476,-3.1543,-3.1396,-3.1583,-3.165,-3.1557,-3.1623,-3.165,-3.1677,-3.1677,-3.1677,-3.173,-3.181,-3.1864,-3.1851,-3.1757,-3.169,-3.1704,-3.1891,-3.2158,-3.2599,-3.2853,-3.3146,-3.3668,-3.3988,-3.4148,-3.4242,-3.4282,-3.5007,-3.606,-3.8493,-4.0562,-4.2898,-4.5943,-4.7307,-4.8663,-4.8887,-4.8965,-4.916,-4.9062,-4.8945,-4.9101,-4.9023,-4.8828,-4.8711,-4.873,-4.8711,-4.8711,-4.873,-4.8789,-4.8769,-4.8574,-4.8223,-4.7832,-4.7519,-4.707,-4.6465,-4.6269,-4.6172,-4.6152,-4.6133,-4.6055,-4.5957,-4.5976,-4.5937,-4.5625,-4.5312,-4.5058,-4.4746,-4.4551,-4.4199,-4.3789,-4.373,-4.3711,-4.3691,-4.3691,-4.3496,-4.3301,-4.3144,-4.3027,-4.2773,-4.248,-4.2246,-4.2051,-4.1914,-4.168,-4.1426,-4.1269,-4.1172,-4.1172,-4.1172,-4.1172,-2.6444,-2.6444,-2.6444,-2.696,-2.7818,-2.8542,-2.9675,-3.0843,-3.1534,-3.1463,-3.0915,-3.0715,-3.0715,-3.0822,-3.0755,-3.0808,-3.1049,-3.1169,-3.1142,-3.1236,-3.1356,-3.145,-3.1463,-3.153,-3.165,-3.1677,-3.1677,-3.1664,-3.1637,-3.1664,-3.1677,-3.1677,-3.1677,-3.1677,-3.1717,-3.1851,-3.1851,-3.173,-3.2064,-3.1944,-3.1944,-3.2198,-3.2478,-3.2919,-3.308,-3.3414,-3.3774,-3.4108,-3.4255,-3.4229,-3.4367,-3.5452,-3.7036,-3.875,-4.0803,-4.3642,-4.5961,-4.712,-4.8273,-4.8887,-4.9004,-4.9121,-4.9023,-4.9043,-4.9141,-4.9043,-4.8828,-4.8828,-4.8848,-4.8848,-4.8848,-4.8848,-4.8848,-4.8808,-4.873,-4.8398,-4.7832,-4.7441,-4.6933,-4.6426,-4.6308,-4.6211,-4.6211,-4.6211,-4.6172,-4.6113,-4.6133,-4.6113,-4.5957,-4.5644,-4.5351,-4.5,-4.4629,-4.4219,-4.3789,-4.375,-4.3691,-4.3691,-4.3672,-4.3555,-4.3379,-4.3183,-4.2793,-4.2383,-4.2109,-4.1933,-4.1738,-4.1562,-4.1562,-4.1562,-4.1367,-4.1172,-4.1172,-4.1172,-4.1172,-2.9319,-2.9319,-2.9319,-2.7873,-2.6381,-2.8008,-2.8977,-2.9738,-3.1231,-3.1784,-3.1289,-3.1183,-3.1156,-3.1183,-3.1116,-3.1236,-3.141,-3.1356,-3.1343,-3.1503,-3.1423,-3.1463,-3.1557,-3.1664,-3.1677,-3.1677,-3.1677,-3.1677,-3.1677,-3.1677,-3.1677,-3.1677,-3.1677,-3.1677,-3.173,-3.2238,-3.2211,-3.1904,-3.2732,-3.2625,-3.2318,-3.2545,-3.2866,-3.2959,-3.316,-3.3494,-3.3748,-3.4215,-3.4362,-3.4282,-3.4269,-3.5577,-3.7599,-3.9684,-4.1941,-4.4607,-4.7345,-4.8517,-4.8887,-4.8867,-4.8906,-4.8945,-4.8887,-4.8926,-4.8906,-4.8848,-4.8848,-4.8848,-4.8848,-4.8848,-4.8848,-4.8848,-4.8848,-4.8808,-4.873,-4.8398,-4.7832,-4.7344,-4.6855,-4.6445,-4.6348,-4.6289,-4.6289,-4.6289,-4.6289,-4.6269,-4.6289,-4.625,-4.6152,-4.5762,-4.5371,-4.5019,-4.459,-4.416,-4.3769,-4.373,-4.3691,-4.3691,-4.3652,-4.3535,-4.3301,-4.2988,-4.2558,-4.2051,-4.1816,-4.1719,-4.1465,-4.1211,-4.1289,-4.1387,-4.1308,-4.1172,-4.1172,-4.1327,-4.1463,-3.1982,-3.1982,-3.1982,-3.1567,-3.0723,-3.1466,-3.1765,-3.181,-3.2208,-3.2171,-3.177,-3.1436,-3.1356,-3.141,-3.137,-3.1436,-3.161,-3.1623,-3.1637,-3.1623,-3.153,-3.1583,-3.165,-3.1677,-3.1677,-3.1677,-3.1677,-3.1677,-3.1677,-3.1677,-3.1677,-3.1677,-3.173,-3.1677,-3.1824,-3.2171,-3.2251,-3.1944,-3.2492,-3.2799,-3.2278,-3.2679,-3.3013,-3.3026,-3.332,-3.3534,-3.3654,-3.4162,-3.4349,-3.4148,-3.4082,-3.5332,-3.7635,-3.9851,-4.2307,-4.4868,-4.7496,-4.9297,-4.9199,-4.9101,-4.8867,-4.8848,-4.8848,-4.8848,-4.8848,-4.8848,-4.8848,-4.8848,-4.8848,-4.8848,-4.8848,-4.8848,-4.8848,-4.8769,-4.8594,-4.8164,-4.7676,-4.7266,-4.6855,-4.6504,-4.6308,-4.6308,-4.6308,-4.6308,-4.6308,-4.6308,-4.6308,-4.6308,-4.623,-4.5625,-4.5117,-4.4844,-4.4473,-4.4043,-4.375,-4.3691,-4.3633,-4.3594,-4.3574,-4.3516,-4.3223,-4.2793,-4.2402,-4.1914,-4.1719,-4.1523,-4.1328,-4.1172,-4.1172,-4.1172,-4.1172,-4.1172,-4.1172,-4.1463,-4.1907,-3.3414,-3.3414,-3.3414,-3.3414,-3.3414,-3.3414,-3.3414,-3.3347,-3.3,-3.2679,-3.2372,-3.1998,-3.1877,-3.1917,-3.181,-3.1637,-3.1837,-3.181,-3.1704,-3.1704,-3.1664,-3.1664,-3.1664,-3.1677,-3.1677,-3.1677,-3.1677,-3.1677,-3.1677,-3.1677,-3.1677,-3.1717,-3.1864,-3.2024,-3.2198,-3.2478,-3.2746,-3.2692,-3.3213,-3.34,-3.3,-3.3013,-3.3253,-3.328,-3.3427,-3.3614,-3.3668,-3.3895,-3.4215,-3.3855,-3.4233,-3.5166,-3.7368,-3.9867,-4.2324,-4.5093,-4.7515,-4.9071,-4.916,-4.9043,-4.8867,-4.8848,-4.8848,-4.8848,-4.8848,-4.8848,-4.8848,-4.8848,-4.8848,-4.8848,-4.8848,-4.8848,-4.8828,-4.875,-4.8594,-4.8183,-4.7656,-4.7266,-4.6914,-4.6562,-4.6308,-4.6308,-4.6308,-4.6308,-4.6308,-4.6308,-4.6308,-4.6308,-4.623,-4.5586,-4.5019,-4.4785,-4.4355,-4.3867,-4.3652,-4.3633,-4.3574,-4.3496,-4.3437,-4.3398,-4.293,-4.2461,-4.2129,-4.1797,-4.1543,-4.1328,-4.125,-4.1172,-4.1172,-4.1172,-4.1172,-4.1172,-4.1172,-4.1753,-4.2637,-3.3414,-3.3414,-3.3414,-3.3414,-3.3414,-3.3414,-3.3414,-3.3414,-3.3387,-3.3213,-3.2959,-3.2893,-3.2666,-3.2505,-3.2478,-3.2251,-3.2024,-3.1998,-3.1864,-3.173,-3.1677,-3.1677,-3.1677,-3.1677,-3.1677,-3.1677,-3.1677,-3.1677,-3.1677,-3.1677,-3.1677,-3.1864,-3.2211,-3.2492,-3.2799,-3.3133,-3.3307,-3.3374,-3.3774,-3.3774,-3.3387,-3.3494,-3.3534,-3.3521,-3.3534,-3.3561,-3.3641,-3.3855,-3.3921,-3.3855,-3.3868,-3.5445,-3.7273,-3.9784,-4.2358,-4.5209,-4.7979,-4.8555,-4.9043,-4.8984,-4.8867,-4.8848,-4.8848,-4.8848,-4.8848,-4.8848,-4.8848,-4.8848,-4.8848,-4.8848,-4.8848,-4.8848,-4.8848,-4.8808,-4.8769,-4.8301,-4.7734,-4.7324,-4.6973,-4.666,-4.6387,-4.6308,-4.6308,-4.6308,-4.6308,-4.6308,-4.6308,-4.6308,-4.6133,-4.5527,-4.5058,-4.4883,-4.4375,-4.3672,-4.3535,-4.3594,-4.3594,-4.3535,-4.3262,-4.3105,-4.2617,-4.2226,-4.1953,-4.166,-4.1348,-4.1172,-4.1172,-4.1172,-4.1172,-4.1172,-4.1463,-4.1463,-4.1463,-4.2769,-4.3815,-3.3414,-3.3414,-3.3414,-3.3414,-3.3414,-3.3414,-3.3414,-3.3414,-3.3414,-3.3347,-3.3267,-3.3066,-3.2839,-3.2545,-3.2318,-3.2078,-3.1904,-3.1784,-3.1744,-3.169,-3.1677,-3.1677,-3.1677,-3.1677,-3.1677,-3.1677,-3.1677,-3.1677,-3.1677,-3.1677,-3.1944,-3.2305,-3.2505,-3.2973,-3.3534,-3.3961,-3.3774,-3.3774,-3.4255,-3.4028,-3.3654,-3.3574,-3.3601,-3.3641,-3.3627,-3.3627,-3.3721,-3.3935,-3.3935,-3.3641,-3.3788,-3.4597,-3.4496,-3.8698,-4.2724,-4.7498,-4.8935,-4.8984,-4.9199,-4.9023,-4.8848,-4.8848,-4.8848,-4.8848,-4.8848,-4.8848,-4.8848,-4.8848,-4.8848,-4.8848,-4.8848,-4.8848,-4.8808,-4.873,-4.8594,-4.8183,-4.7637,-4.7226,-4.6875,-4.6562,-4.6308,-4.6308,-4.6308,-4.6308,-4.6308,-4.6308,-4.6308,-4.6308,-4.6055,-4.5469,-4.5098,-4.4941,-4.4355,-4.3652,-4.3574,-4.3652,-4.3633,-4.3555,-4.3203,-4.2891,-4.2558,-4.2187,-4.1836,-4.1543,-4.125,-4.1172,-4.1172,-4.1172,-4.1172,-4.1907,-4.2196,-4.1907,-4.2042,-4.3731,-4.5211,-3.2151,-3.3053,-3.2933,-3.2959,-3.3093,-3.3307,-3.3414,-3.3414,-3.3414,-3.3414,-3.3387,-3.324,-3.2919,-3.2559,-3.2358,-3.2091,-3.1704,-3.1704,-3.1677,-3.1677,-3.1677,-3.1677,-3.1677,-3.1677,-3.1677,-3.1677,-3.1677,-3.1677,-3.1677,-3.173,-3.1957,-3.2492,-3.2706,-3.3454,-3.4042,-3.4349,-3.4376,-3.4322,-3.4322,-3.4162,-3.3881,-3.3534,-3.3574,-3.3654,-3.3654,-3.3614,-3.3721,-3.3948,-3.3734,-3.3467,-3.3654,-3.3614,-3.4399,-3.8457,-4.3487,-4.7778,-4.9043,-4.8984,-4.9082,-4.9004,-4.8887,-4.8848,-4.8848,-4.8848,-4.8848,-4.8848,-4.8848,-4.8848,-4.8848,-4.8848,-4.8848,-4.8828,-4.8711,-4.8613,-4.8281,-4.7969,-4.7539,-4.7109,-4.6758,-4.6426,-4.6308,-4.6308,-4.6308,-4.6308,-4.6308,-4.6308,-4.6308,-4.6308,-4.6016,-4.5508,-4.5176,-4.5,-4.4316,-4.3633,-4.3652,-4.3613,-4.3555,-4.3379,-4.2949,-4.2656,-4.2422,-4.2031,-4.1562,-4.1348,-4.1211,-4.1327,-4.1463,-4.1327,-4.1327,-4.235,-4.3318,-4.3518,-4.4144,-4.575,-4.7006,-3.0565,-3.2545,-3.2238,-3.2332,-3.2612,-3.3093,-3.3347,-3.3414,-3.3414,-3.3414,-3.34,-3.3374,-3.3026,-3.2599,-3.2412,-3.2104,-3.1797,-3.1677,-3.1677,-3.1677,-3.1677,-3.1677,-3.1677,-3.1677,-3.1677,-3.1677,-3.1677,-3.1677,-3.1704,-3.1851,-3.2185,-3.2612,-3.3213,-3.3828,-3.4255,-3.4482,-3.4482,-3.4389,-3.4402,-3.4336,-3.4108,-3.3761,-3.34,-3.344,-3.332,-3.3213,-3.3414,-3.348,-3.3427,-3.3427,-3.3414,-3.3427,-3.6129,-3.9026,-4.4246,-4.6953,-4.8702,-4.8906,-4.8945,-4.8887,-4.8887,-4.8848,-4.8848,-4.8848,-4.8848,-4.8848,-4.8848,-4.8848,-4.8848,-4.8848,-4.8848,-4.8848,-4.8769,-4.8516,-4.8203,-4.7851,-4.748,-4.7031,-4.6621,-4.6348,-4.6308,-4.6308,-4.6308,-4.6308,-4.6308,-4.6308,-4.6308,-4.6308,-4.5996,-4.5527,-4.5195,-4.498,-4.4277,-4.3672,-4.3555,-4.3516,-4.3437,-4.3183,-4.2773,-4.2441,-4.2226,-4.1758,-4.1211,-4.1172,-4.1172,-4.1618,-4.1773,-4.1907,-4.2637,-4.4117,-4.5041,-4.527,-4.6245,-4.7578,-4.812,-3.2012,-3.2519,-3.2225,-3.2278,-3.2532,-3.2692,-3.3026,-3.34,-3.3414,-3.34,-3.3374,-3.3173,-3.2906,-3.2572,-3.2332,-3.2011,-3.1757,-3.1677,-3.1677,-3.1677,-3.1677,-3.1677,-3.1677,-3.1677,-3.1677,-3.1677,-3.1677,-3.1677,-3.173,-3.2064,-3.2585,-3.316,-3.3627,-3.3988,-3.4202,-3.4362,-3.4255,-3.4108,-3.4028,-3.4122,-3.4095,-3.3627,-3.3213,-3.344,-3.3467,-3.3387,-3.3561,-3.3721,-3.3587,-3.348,-3.3427,-3.5352,-3.9221,-4.229,-4.5379,-4.8088,-4.8848,-4.8848,-4.8848,-4.8848,-4.8848,-4.8848,-4.8848,-4.8848,-4.8848,-4.8848,-4.8848,-4.8848,-4.8848,-4.8848,-4.8848,-4.8848,-4.8769,-4.8457,-4.8125,-4.7754,-4.7383,-4.6914,-4.6465,-4.6367,-4.6308,-4.6308,-4.6308,-4.6308,-4.6308,-4.6308,-4.6308,-4.623,-4.5976,-4.5586,-4.5137,-4.4824,-4.4199,-4.3711,-4.3574,-4.3476,-4.3437,-4.3144,-4.2754,-4.2383,-4.2012,-4.1582,-4.1172,-4.1172,-4.1327,-4.1907,-4.2637,-4.3359,-4.4398,-4.5871,-4.6961,-4.7485,-4.7818,-4.8971,-4.9073,-2.9494,-3.056,-3.1587,-3.2078,-3.2345,-3.2492,-3.2879,-3.332,-3.328,-3.3293,-3.336,-3.3106,-3.2812,-3.2519,-3.2238,-3.1944,-3.1704,-3.1677,-3.1677,-3.1677,-3.1677,-3.1677,-3.1677,-3.1677,-3.1677,-3.1677,-3.1677,-3.169,-3.1744,-3.1917,-3.2385,-3.3013,-3.3467,-3.3721,-3.3841,-3.3801,-3.3654,-3.3454,-3.3374,-3.3467,-3.3708,-3.3307,-3.2986,-3.324,-3.32,-3.324,-3.3427,-3.3574,-3.3574,-3.4041,-3.4585,-3.805,-4.1524,-4.4021,-4.6149,-4.8069,-4.8848,-4.8848,-4.8848,-4.8828,-4.8828,-4.8808,-4.8828,-4.8828,-4.8516,-4.8516,-4.8691,-4.8711,-4.8828,-4.8848,-4.8848,-4.8848,-4.8652,-4.8379,-4.793,-4.75,-4.7051,-4.6582,-4.6367,-4.6328,-4.6308,-4.6308,-4.6308,-4.6308,-4.6308,-4.6308,-4.6308,-4.6133,-4.5879,-4.5566,-4.5156,-4.4687,-4.4101,-4.3789,-4.3672,-4.3574,-4.3496,-4.3144,-4.2715,-4.2187,-4.1738,-4.1426,-4.1172,-4.1463,-4.2042,-4.2922,-4.3663,-4.4827,-4.6293,-4.7927,-4.8988,-4.9747,-5.0044,-4.9939,-4.9977,-2.6588,-2.8524,-3.0596,-3.1717,-3.2011,-3.2291,-3.2746,-3.3187,-3.308,-3.312,-3.3227,-3.2919,-3.2692,-3.2519,-3.2185,-3.1917,-3.1744,-3.169,-3.1677,-3.1677,-3.1677,-3.1677,-3.1677,-3.1677,-3.1677,-3.1677,-3.1677,-3.1677,-3.169,-3.1944,-3.2251,-3.2505,-3.2706,-3.2893,-3.3106,-3.3106,-3.2973,-3.2879,-3.2786,-3.2666,-3.2759,-3.2879,-3.2786,-3.2652,-3.2585,-3.2719,-3.3013,-3.3227,-3.34,-3.4386,-3.5734,-3.9205,-4.229,-4.4418,-4.6523,-4.8088,-4.8848,-4.8848,-4.8828,-4.873,-4.873,-4.873,-4.875,-4.8555,-4.8223,-4.8203,-4.8379,-4.8457,-4.8594,-4.8652,-4.8633,-4.8613,-4.8398,-4.8164,-4.7676,-4.7226,-4.6738,-4.6348,-4.6308,-4.6308,-4.6308,-4.6308,-4.6308,-4.6308,-4.6308,-4.6308,-4.6211,-4.5996,-4.5762,-4.5391,-4.5,-4.457,-4.4062,-4.3828,-4.3711,-4.3652,-4.3555,-4.3144,-4.2676,-4.2031,-4.1641,-4.2027,-4.2196,-4.235,-4.2922,-4.4398,-4.5574,-4.6735,-4.8361,-4.9819,-5.0503,-5.1035,-5.0567,-5.0547,-5.0431,-3.0406,-3.0525,-3.0876,-3.1129,-3.1423,-3.1717,-3.2171,-3.2692,-3.2893,-3.3026,-3.2812,-3.2291,-3.2091,-3.2505,-3.1971,-3.169,-3.1637,-3.1637,-3.1677,-3.1677,-3.1677,-3.1677,-3.1677,-3.1677,-3.1677,-3.1677,-3.1677,-3.1677,-3.1704,-3.2078,-3.2372,-3.2478,-3.3013,-3.2986,-3.2625,-3.2572,-3.2452,-3.2332,-3.2265,-3.2185,-3.2051,-3.2238,-3.2585,-3.2599,-3.2679,-3.2933,-3.3187,-3.336,-3.34,-3.4186,-3.5888,-3.8948,-4.184,-4.4347,-4.628,-4.805,-4.8828,-4.8769,-4.8711,-4.8476,-4.8379,-4.832,-4.8223,-4.7949,-4.7734,-4.7695,-4.7773,-4.7734,-4.7812,-4.7871,-4.7891,-4.7949,-4.7812,-4.7656,-4.7305,-4.6914,-4.6484,-4.6348,-4.6308,-4.6308,-4.6308,-4.6308,-4.6308,-4.6308,-4.6308,-4.6308,-4.6308,-4.6074,-4.5723,-4.5312,-4.4883,-4.4433,-4.4004,-4.3828,-4.3691,-4.3691,-4.3555,-4.3125,-4.2817,-4.2329,-4.2441,-4.3024,-4.3359,-4.3663,-4.5148,-4.6882,-4.7904,-4.8483,-4.9961,-5.1303,-5.2025,-5.2304,-5.1649,-5.0795,-5.0343]}]]